     2              OBSERVATION DATA    GPS                 RINEX VERSION / TYPE
teqc 1998Oct22 19990626 00:39:03UTC                         PGM / RUN BY / DATE
                                                            COMMENT
Original Marker Name: LPUR                                  COMMENT
Campaign Name: northern baja california 1999                COMMENT
4-Character Station Name: LPUR                              COMMENT
6-Character Antenna Code: DMRCHT                            COMMENT
Vertical Measurement Point: BCR                             COMMENT
Vertical Offset to Rinex Ref. Point: 0.0349                 COMMENT
Radial Measurement Point: ECF                               COMMENT
Radial Offset to Rinex Ref. Point: 0.1896                   COMMENT
Antenna Height from Field Measurement: 1.3293 m             COMMENT
Additional Antenna Identification Info.:                    COMMENT
Turborogue and Ashtech Choke Ring                           COMMENT
Original XYZ: -2308397.3700 -4874041.6271 3393847.4237      COMMENT
New XYZ position is based on association with SCEC monument COMMENT
E1C8L7I1+0011. Position of that monument is believed to be  COMMENT
valid to within 1 m horizontally; vertical accuracy         COMMENT
should be no worse than 3-times this value.                 COMMENT
                                                            COMMENT
Revised Rinex header created by UCSD GPS archive for        COMMENT
GSAC on 31-Aug-1999 (1999:243) 22:27:52 GMT                 COMMENT
For assistance contact dagnew@ucsd.edu or hjohnson@ucsd.edu COMMENT
                                                            COMMENT
LPUR                                                        MARKER NAME
JGG CICESE (ENSENADA)                                       OBSERVER / AGENCY
312 ASHTECH Z12-XII3 1F50                                   REC # / TYPE / VERS
404 DORNE-MARGOL. TYPE T                                    ANT # / TYPE
 -2308418.0000 -4874045.0000  3393827.0000                  APPROX POSITION XYZ
        1.2808        0.0000        0.0000                  ANTENNA: DELTA H/E/N
     1     1     0                                          WAVELENGTH FACT L1/2
     7    C1    L1    L2    P1    P2    S1    S2            # / TYPES OF OBSERV
     0                                                      INTERVAL
  1999     6    16     1    50    0.000000                  TIME OF FIRST OBS
  1999     6    16    11    39    0.000000                  TIME OF LAST OBS
                                                            END OF HEADER
 99  6 16  1 50  0.0000000  0  8G 1G31G29G15G25G23G 8G21
  20987680.468     -182467.43149   -126417.97247  20987679.912    20987687.683
       243.000         209.000
                     17136.83245                                  24215122.786
       216.000         149.000
  21275560.430       -9012.19649     -6366.76847  21275560.596    21275567.373
       239.000         204.000
  21940225.620     -334091.17149   -238414.74346  21940224.339    21940233.091
       233.000         187.000
  21491073.868     -289649.85949   -207892.08947  21491073.959    21491081.956
       241.000
                       205.000
       212.000          74.000
  23458701.126       58208.14249     41953.08545  23458700.749    23458710.152
       217.000         154.000
  21583307.879      -61072.87949    -45058.72147  21583307.357    21583315.719
       237.000         195.000
 99  6 16  1 50 30.0000000  0  8G 1G31G29G15G25G23G 8G21
  20972906.171     -260105.08549   -186914.80547  20972906.049    20972913.587
       243.000         211.000
  24217396.431       35913.32249     26490.75945  24217394.936    24217407.944
       216.000         157.000
  21274934.419      -12301.13549     -8929.59247  21274934.809    21274941.781
       240.000         205.000
  21914775.494     -467833.15649   -342629.25346  21914774.447    21914782.088
       232.000         187.000
  21468903.204     -406156.08449   -298676.08347  21468903.497    21468911.404
       242.000
                       206.000
       202.000          74.000
  23463003.501       80809.26249     59564.31745  23463001.002    23463010.806
       216.000         155.000
  21578554.028      -86055.43349    -64525.67747  21578553.368    21578561.877
       236.000         195.000
 99  6 16  1 51  0.0000000  0  8G 1G31G29G15G25G23G 8G21
  20830186.886    -1010098.28949   -771325.04947  20830187.032    20830194.425
       243.000         211.000
  24091713.527     -624555.60649   -488160.54045  24091712.075    24091724.717
       214.000         155.000
  21146338.266     -688078.47849   -535509.35447  21146339.014    21146345.526
       239.000         205.000
  21761397.589    -1273841.51749   -970687.67747  21761396.369    21761404.656
       234.000         188.000
  21318807.972    -1194913.39249   -913292.08847  21318807.996    21318815.899
       242.000
                       206.000     -504129.97044                  24568823.256
       204.000         103.000
  23339388.878     -568783.90649   -446612.24045  23339386.799    23339397.760
       211.000         153.000
  21445847.342     -783433.10249   -607936.87247  21445846.699    21445855.238
       237.000         195.000
 99  6 16  1 51 30.0000000  0  8G 1G31G29G15G25G23G 8G21
  20825985.999    -1032174.76949   -788527.45947  20825985.920    20825993.711
       243.000         211.000
  24104522.763     -557239.57849   -435706.68845  24104522.087    24104535.658
       215.000         155.000
  21156231.257     -636091.34849   -494999.92847  21156231.566    21156238.290
       239.000         205.000
  21746554.189    -1351841.07949  -1031466.52247  21746552.805    21746561.170
       233.000         188.000
  21307251.436    -1255643.32049   -960614.03347  21307251.357    21307259.294
       241.000         206.000
  24581147.969     -580470.88549   -453615.03844  24581146.526    24581158.559
       206.000         127.000
  23354319.593     -490320.53249   -385472.02945  23354318.742    23354329.861
       216.000         157.000
  21451647.898     -752950.71549   -584184.39447  21451647.533    21451655.591
       236.000         195.000
 99  6 16  1 52  0.0000000  0  8G 1G31G29G15G25G23G 8G21
  20821825.612    -1054038.17349   -805563.83447  20821825.400    20821833.246
       243.000         211.000
  24117346.851     -489848.34849   -383194.23345  24117346.458    24117358.012
       216.000         156.000
  21166139.627     -584022.91349   -454427.13947  21166139.886    21166146.840
       239.000         205.000
  21731770.994    -1429526.38549  -1092000.50447  21731770.788    21731778.862
       235.000         189.000
  21295755.921    -1316052.63049  -1007686.14647  21295755.815    21295763.477
       242.000         207.000
  24593495.887     -515580.75349   -403051.33144  24593496.357    24593508.497
       205.000         131.000
  23369313.787     -411526.68749   -324074.29445  23369313.041    23369322.357
       215.000         157.000
  21457478.631     -722309.53449   -560308.17947  21457478.137    21457486.977
       236.000         195.000
 99  6 16  1 52 30.0000000  0  7G 1G31G29G15G25G 8G21
  20817730.237    -1075559.78749   -822333.88347  20817730.025    20817737.726
       243.000         211.000
  24130208.991     -422256.75349   -330525.62745  24130209.024    24130221.718
       216.000         155.000
  21176086.792     -531750.07649   -413695.07647  21176087.000    21176094.074
       239.000         204.000
  21717072.471    -1506767.36249  -1152188.23047  21717071.154    21717079.682
       232.000         189.000
  21284344.620    -1376019.29449  -1054413.33947  21284344.635    21284352.450
       242.000         207.000
  23384391.710     -332291.00049   -262332.22045  23384390.503    23384401.138
       212.000         154.000
  21463362.950     -691387.30049   -536212.95847  21463362.313    21463370.907
       236.000         195.000
 99  6 16  1 53  0.0000000  0  7G 1G31G29G15G25G 8G21
  20813698.539    -1096746.60049   -838843.03747  20813698.177    20813706.210
       243.000         211.000
  24143104.009     -354492.20649   -277722.28845  24143103.817    24143117.042
       212.000         153.000
  21186069.328     -479291.73849   -372818.46247  21186069.639    21186076.424
       239.000         204.000
  21702452.771    -1583594.34749  -1212053.39647  21702452.075    21702459.969
       233.000         189.000
  21273014.057    -1435561.67749  -1100809.91947  21273013.799    21273021.885
       242.000         207.000
  23399545.389     -252656.94749   -200279.81045  23399546.811    23399555.225
       215.000         154.000
  21469294.760     -660215.46949   -511923.24947  21469294.697    21469302.748
       236.000         195.000
 99  6 16  1 53 30.0000000  0  7G 1G31G29G15G25G 8G21
  20809734.187    -1117579.32849   -855076.28747  20809734.021    20809741.786
       243.000         211.000
  24156031.634     -286557.61249   -224786.43645  24156031.407    24156045.359
       215.000         155.000
  21196089.403     -426636.37049   -331788.31947  21196089.423    21196096.512
       239.000         204.000
  21687911.036    -1660010.72849  -1271598.58247  21687909.832    21687918.776
       233.000         188.000
  21261763.513    -1494683.57749  -1146878.85447  21261763.368    21261771.216
       242.000         207.000
  23414771.523     -172644.94149   -137932.82245  23414772.011    23414780.309
       217.000         156.000
  21475275.090     -628788.58149   -487434.78847  21475274.867    21475283.231
       236.000         194.000
 99  6 16  1 54  0.0000000  0  7G 1G31G29G15G25G 8G21
  20805843.679    -1138024.17049   -871007.29347  20805843.374    20805850.911
       243.000         212.000
  24168992.751     -218447.58049   -171713.86545  24168992.695    24169005.151
       214.000         155.000
  21206150.504     -373764.89149   -290589.78147  21206150.757    21206157.629
       239.000         204.000
  21673450.442    -1736001.79249  -1330812.36847  21673450.243    21673457.832
       233.000         189.000
  21250594.463    -1553377.12649  -1192614.00847  21250594.390    21250602.205
       242.000         207.000
  23430072.776      -92236.51849    -75276.96345  23430071.919    23430081.517
       212.000         153.000
  21481308.566     -597082.69849   -462728.92747  21481308.160    21481316.459
       236.000         194.000
 99  6 16  1 54 30.0000000  0  7G 1G31G29G15G25G 8G21
  20802032.085    -1158054.26349   -886615.11747  20802031.903    20802039.366
       244.000         212.000
  24181988.472     -150154.52549   -118498.66945  24181987.678    24182001.218
       211.000         152.000
  21216251.681     -320683.03749   -249227.31847  21216252.024    21216258.771
       239.000         204.000
  21659072.964    -1811555.57849  -1389685.39947  21659072.766    21659080.595
       235.000         189.000
  21239514.650    -1611601.66849  -1237983.69947  21239514.630    21239522.541
       242.000         208.000
  23445455.522      -11399.21749    -12286.91745  23445455.949    23445466.129
       217.000         154.000
  21487397.610     -565084.66649   -437795.42147  21487397.724    21487405.666
       236.000         195.000
 99  6 16  1 55  0.0000000  0  7G 1G31G29G15G25G 8G21
  20798302.257    -1177654.66549   -901888.10747  20798301.945    20798309.635
       244.000         212.000
  24195016.832      -81690.14449    -65149.97545  24195017.438    24195029.889
       212.000         150.000
  21226394.450     -267382.59649   -207694.52247  21226394.543    21226401.351
       239.000         204.000
  21644780.453    -1886663.73649  -1448211.18147  21644779.651    21644788.015
       233.000         189.000
  21228528.820    -1669332.42749  -1282968.62847  21228528.885    21228536.756
       242.000         208.000
  23460923.855       69885.70649     51051.91245  23460923.890    23460933.851
       216.000         156.000
  21493545.433     -532778.02549   -412621.43647  21493545.568    21493553.095
       235.000         195.000
 99  6 16  1 55 30.0000000  0  7G 1G31G29G15G25G 8G21
  20794647.372    -1196861.21149   -916854.20747  20794647.295    20794654.895
       244.000         212.000
  24208073.885      -13076.56249    -11685.01845  24208074.809    24208087.863
       216.000         154.000
  21236572.143     -213898.43849   -166018.57847  21236572.587    21236579.295
       238.000         203.000
  21630569.751    -1961340.87449  -1506401.12547  21630569.219    21630576.950
       234.000         190.000
  21217633.629    -1726586.64349  -1327582.22847  21217633.528    21217641.236
       242.000         208.000
  23476472.493      151594.02149    114720.65645  23476471.607    23476481.503
       213.000         154.000
  21499748.950     -500178.46449   -387219.21547  21499748.724    21499756.986
       235.000         194.000
 99  6 16  1 56  0.0000000  0  7G 1G31G29G15G25G 8G21
  20791060.182    -1215712.42949   -931543.42047  20791059.949    20791067.551
       243.000         212.000
  24221158.676       55683.76149     41894.24745  24221158.591    24221173.190
       210.000         154.000
  21246781.121     -160250.01549   -124214.62747  21246781.629    21246788.163
       239.000         203.000
  21616440.588    -2035590.15149  -1564257.65547  21616439.760    21616448.277
       234.000         190.000
  21206830.872    -1783355.26349  -1371817.44047  21206830.747    21206838.329
       242.000         208.000
  23492100.762      233722.20749    178716.59545  23492100.297    23492110.019
       213.000         151.000
  21506005.828     -467298.65949   -361598.61147  21506005.722    21506013.820
       235.000         194.000
 99  6 16  1 56 30.0000000  0  7G 1G31G29G15G25G 8G21
  20787531.040    -1234257.93249   -945994.41447  20787530.792    20787538.184
       244.000         212.000
  24234269.091      124580.05749     95579.42145  24234267.736    24234282.817
       209.000         151.000
  21257016.215     -106464.72949    -82304.02947  21257016.664    21257023.173
       239.000         203.000
  21602389.334    -2109429.85449  -1621795.03247  21602388.488    21602396.773
       234.000         190.000
  21196119.456    -1839643.74649  -1415678.51747  21196119.522    21196127.255
       243.000         208.000
  23507804.605      316245.21049    243020.19445  23507803.846    23507814.521
       214.000         154.000
  21512310.460     -434167.64849   -335782.26547  21512310.148    21512318.347
       236.000         194.000
 99  6 16  1 57  0.0000000  0  7G 1G31G29G15G25G 8G21
  20784054.136    -1252528.98349   -960231.55947  20784053.769    20784061.404
       243.000         212.000
  24247406.861      193619.26249    149376.00745  24247407.849    24247420.312
       214.000         150.000
  21267276.004      -52549.35349    -40292.07147  21267276.221    21267282.978
       239.000         203.000
  21588414.855    -2182866.22949  -1679018.12547  21588413.932    21588422.328
       232.000         190.000
  21185493.584    -1895483.24449  -1459189.74347  21185493.528    21185501.224
       243.000         209.000
  23523579.174      399140.42249    307613.76745  23523579.465    23523590.029
       213.000         156.000
  21518659.759     -400801.77349   -309782.90547  21518659.452    21518667.951
       235.000         193.000
 99  6 16  1 57 30.0000000  0  7G 1G31G29G15G25G 8G21
  20780625.333    -1270547.30449   -974271.77347  20780624.923    20780632.539
       243.000         212.000
  24260571.149      262795.85749    203279.71845  24260571.646    24260583.325
       216.000         149.000
  21277558.011        1482.87349      1810.94347  21277558.383    21277565.105
       238.000         203.000
  21574515.857    -2255905.97249  -1735932.16647  21574515.314    21574523.541
       232.000         191.000
  21174948.441    -1950898.13149  -1502370.10247  21174948.448    21174956.016
       243.000         209.000
  23539420.344      482385.80849    372480.24345  23539419.689    23539429.310
       211.000         152.000
  21525050.858     -367216.51949   -283612.60647  21525050.578    21525059.047
       235.000         193.000
 99  6 16  1 58  0.0000000  0  7G 1G31G29G15G25G 8G21
  20777247.247    -1288299.03049   -988104.25047  20777246.981    20777254.721
       244.000         212.000
  24273759.297      332098.98249    257281.95545  24273759.006    24273773.402
       210.000         148.000
  21287865.108       55647.01849     44016.75247  21287865.008    21287872.166
       238.000         203.000
  21560692.343    -2328548.94449  -1792537.03147  21560691.404    21560699.717
       236.000         192.000
  21164480.744    -2005905.94949  -1545233.26247  21164480.595    21164488.311
       243.000         209.000
  23555328.408      565984.65249    437622.15345  23555329.165    23555337.438
       213.000         150.000
  21531484.262     -333408.53049   -257268.73747  21531484.004    21531492.226
       235.000         193.000
 99  6 16  1 58 30.0000000  0  7G 1G31G29G15G25G 8G21
  20773925.151    -1305756.62949  -1001707.53947  20773924.831    20773932.333
       244.000         212.000
  24286971.555      401530.32449    311384.04145  24286971.430    24286986.437
       208.000         148.000
  21298201.255      109963.71349     86341.43447  21298201.192    21298207.903
       238.000         202.000
  21546947.464    -2400778.75649  -1848819.95347  21546946.699    21546955.383
       236.000         193.000
  21154089.269    -2060513.22449  -1587784.31347  21154089.249    21154096.715
       243.000         209.000
  23571304.022      649935.83049    503038.59145  23571304.176    23571315.389
       214.000         154.000
  21537964.414     -299355.50049   -230733.93647  21537964.168    21537972.699
       235.000         193.000
 99  6 16  1 59  0.0000000  0  7G 1G31G29G15G25G 8G21
  20770665.043    -1322888.56849  -1015057.06047  20770664.528    20770672.099
       244.000         212.000
  24300206.748      471080.60849    365578.84045  24300207.386    24300221.094
       214.000         151.000
  21308567.960      164441.25149    128791.44447  21308568.585    21308575.255
       238.000         202.000
  21533284.302    -2472579.33649  -1904768.40847  21533283.418    21533291.319
       234.000         193.000
  21143775.383    -2114712.75749  -1630017.64547  21143775.279    21143782.900
       243.000         209.000
  23587346.041      734237.63049    568728.19645  23587345.710    23587356.629
       213.000         153.000
  21544494.771     -265038.71649   -203993.60447  21544494.487    21544503.112
       236.000         193.000
 99  6 16  1 59 30.0000000  0  7G 1G31G29G15G25G 8G21
  20767474.863    -1339653.09949  -1028120.28947  20767474.587    20767481.982
       244.000         212.000
  24313467.146      540762.54049    419876.26245  24313468.466    24313479.940
       216.000         151.000
  21318969.502      219101.57249    171383.88747  21318969.644    21318976.726
       238.000         202.000
  21519708.368    -2543920.77349  -1960359.09847  21519707.916    21519716.001
       235.000         193.000
  21133545.966    -2168468.61649  -1671905.26247  21133546.090    21133553.480
       243.000         209.000
  23603458.187      818907.39749    634704.57145  23603458.865    23603466.308
       213.000         148.000
  21551083.434     -230415.16649   -177014.24747  21551083.355    21551091.565
       235.000         193.000
 99  6 16  2  0  0.0000000  0  7G 1G31G29G15G25G 8G21
  20764353.741    -1356054.79849  -1040900.80047  20764353.477    20764360.846
       244.000         212.000
  24326754.603      610587.85449    474285.41645  24326755.717    24326765.690
       208.000         145.000
  21329404.347      273937.04749    214112.81147  21329404.341    21329411.578
       237.000         202.000
  21506221.257    -2614796.13749  -2015586.60947  21506220.643    21506229.058
       236.000         194.000
  21123403.824    -2221765.53549  -1713435.26247  21123403.632    21123411.313
       243.000         209.000
  23619640.560      903945.13649    700967.74945  23619640.703    23619650.496
       212.000         148.000
  21557731.867     -195477.59349   -149790.18447  21557731.523    21557739.592
       235.000         193.000
 99  6 16  2  0 30.0000000  0  7G 1G31G29G15G25G 8G21
  20761296.599    -1372119.97249  -1053419.08147  20761296.523    20761303.796
       244.000         212.000
  24340069.063      680556.18249    528805.95345  24340069.171    24340081.982
       208.000         143.000
  21339867.748      328922.38249    256958.51247  21339868.057    21339874.783
       237.000         201.000
  21492821.549    -2685211.51849  -2070455.69747  21492820.610    21492828.576
       236.000         194.000
  21113350.876    -2274593.86749  -1754600.12747  21113350.901    21113358.288
       243.000         210.000
  23635889.705      989333.69549    767504.20245  23635888.375    23635899.721
       210.000         152.000
  21564435.358     -160250.75949   -122340.73547  21564434.762    21564443.136
       235.000         193.000
 99  6 16  2  1  0.0000000  0  7G 1G31G29G15G25G 8G21
  20758300.767    -1387863.06949  -1065686.39247  20758300.518    20758307.978
       245.000         212.000
  24353410.553      750664.56349    583435.64045  24353411.824    24353425.615
       213.000         148.000
  21350355.390      384035.41949    299903.72047  21350355.576    21350362.398
       238.000         201.000
  21479507.378    -2755177.60249  -2124974.68147  21479507.007    21479514.682
       235.000         194.000
  21103386.819    -2326955.13349  -1795401.04447  21103386.819    21103394.222
       243.000         210.000
  23652206.098     1075077.46549    834317.40045  23652206.018    23652216.527
       210.000         151.000
  21571188.954     -124760.44849    -94685.96847  21571189.057    21571197.124
       234.000         192.000
 99  6 16  2  1 30.0000000  0  7G 1G31G29G15G25G 8G21
  20755359.777    -1403318.12849  -1077729.25147  20755359.494    20755366.868
       245.000         212.000
  24366778.986      820914.50449    638175.63045  24366777.921    24366792.472
       211.000         147.000
  21360864.565      439261.13149    342936.72847  21360864.741    21360871.693
       237.000         201.000
  21466275.313    -2824712.29249  -2179157.51347  21466274.977    21466282.732
       236.000         195.000
  21093506.624    -2378875.76549  -1835858.61247  21093506.379    21093513.811
       243.000         210.000
  23668589.051     1161170.68049    901403.01245  23668588.927    23668595.142
       213.000         146.000
  21577989.382      -89024.10949    -66839.49847  21577989.159    21577997.905
       235.000         192.000
 99  6 16  2  2  0.0000000  0  7G 1G31G29G15G25G 8G21
  20752469.920    -1418504.18549  -1089562.50247  20752469.614    20752476.990
       245.000         212.000
  24380167.298      891270.51349    692998.30945  24380166.652    24380180.719
       208.000         144.000
  21371393.246      494589.58949    386049.79647  21371393.422    21371400.109
       237.000         201.000
  21453122.139    -2893832.90449  -2233017.68747  21453121.283    21453129.653
       237.000         195.000
  21083706.561    -2430375.37949  -1875988.11647  21083706.494    21083713.961
       243.000         210.000
  23685037.516     1247607.06049    968756.00545  23685037.280    23685048.341
       211.000         148.000
  21584829.261      -53080.51849    -38831.53847  21584829.254    21584837.217
       234.000         192.000
 99  6 16  2  2 30.0000000  0  7G 1G31G29G15G25G 8G21
  20749638.477    -1433383.33649  -1101156.61247  20749638.224    20749645.724
       245.000         212.000
  24393574.491      961725.52949    747898.09345  24393574.959    24393589.563
       210.000         143.000
  21381945.679      550042.77749    429260.04947  21381945.847    21381952.775
       237.000         201.000
  21440050.783    -2962523.19049  -2286542.55647  21440050.632    21440058.141
       236.000         195.000
  21073989.380    -2481439.26549  -1915778.09647  21073989.321    21073996.785
       243.000         210.000
  23701554.746     1334406.17849   1036391.60045  23701554.195    23701564.402
       210.000         149.000
  21591711.759      -16912.70349    -10648.85947  21591711.589    21591720.266
       234.000         192.000
 99  6 16  2  3  0.0000000  0  7G 1G31G29G15G25G 8G21
  20746866.672    -1447949.24649  -1112506.63147  20746866.103    20746873.769
       245.000         212.000
  24406998.488     1032267.67749    802865.78445  24406999.516    24407013.303
       214.000         148.000
  21392522.739      605625.54749    472571.28147  21392523.064    21392529.956
       237.000         201.000
  21427062.353    -3030777.75149  -2339727.89447  21427061.494    21427069.682
       237.000         195.000
  21064354.900    -2532068.52349  -1955229.40447  21064354.891    21064362.256
       243.000         210.000
  23718140.732     1421566.50249   1104308.62445  23718142.312    23718149.759
       214.000         149.000
  21598641.266       19501.91149     17726.13347  21598641.232    21598649.132
       234.000         192.000
 99  6 16  2  3 30.0000000  0  7G 1G31G29G15G25G 8G21
  20744156.796    -1462189.56249  -1123602.94947  20744156.609    20744163.949
       245.000         212.000
  24420437.643     1102889.21849    857895.33245  24420437.023    24420451.380
       207.000         146.000
  21403130.518      661369.78549    516008.33247  21403130.711    21403137.773
       238.000         201.000
  21414160.643    -3098576.50949  -2392558.05647  21414160.255    21414168.146
       237.000         195.000
  21054807.743    -2582238.89749  -1994323.14247  21054807.790    21054814.989
       243.000         211.000
  23734795.995     1509088.73749   1172507.76845  23734795.213    23734803.954
       210.000         147.000
  21605623.375       56193.42949     46316.88547  21605623.518    21605631.921
       234.000         192.000
 99  6 16  2  4  0.0000000  0  7G 1G31G29G15G25G 8G21
  20741515.871    -1476067.78949  -1134417.11847  20741515.438    20741522.949
       245.000         212.000
  24433891.205     1173588.37149    912985.30245  24433891.229    24433904.718
       209.000         143.000
  21413772.710      717294.63649    559586.11147  21413773.133    21413779.749
       237.000         200.000
  21401350.593    -3165893.60449  -2445012.90147  21401349.824    21401357.921
       236.000         195.000
  21045354.832    -2631914.05549  -2033030.99247  21045354.794    21045361.998
       243.000         211.000
  23751521.472     1596981.57449   1240995.61645  23751520.664    23751531.773
       210.000         146.000
  21612661.731       93180.07049     75137.60747  21612661.416    21612669.797
       234.000         191.000
 99  6 16  2  4 30.0000000  0  7G 1G31G29G15G25G 8G21
  20738944.707    -1489579.09949  -1144945.38047  20738944.537    20738951.830
       245.000         212.000
  24447365.631     1244395.57349    968159.56845  24447366.390    24447380.096
       214.000         142.000
  21424451.432      773411.42849    603313.45547  21424451.681    21424458.495
       237.000         200.000
  21388634.602    -3232716.49949  -2497082.65547  21388633.947    21388642.460
       236.000         196.000
  21035999.424    -2681076.87849  -2071339.62647  21035999.411    21036006.708
       244.000         211.000
  23768315.786     1685236.01149   1309765.23845  23768316.327    23768324.401
       213.000         147.000
  21619761.160      130487.52349    104208.31147  21619761.221    21619769.666
       234.000         191.000
 99  6 16  2  5  0.0000000  0  7G 1G31G29G15G25G 8G21
  20736440.792    -1502737.08549  -1155198.32148  20736440.431    20736447.986
       245.000         213.000
  24460861.711     1315315.38749   1023421.54945  24460862.537    24460875.182
       213.000         144.000
  21435166.393      829718.39149    647188.98547  21435166.803    21435173.544
       237.000         200.000
  21376012.264    -3299047.23449  -2548768.90547  21376011.155    21376019.791
       236.000         195.000
  21026740.008    -2729735.47449  -2109255.35347  21026740.051    21026747.181
       244.000         211.000
  23785177.768     1773845.82049   1378811.80845  23785176.955    23785186.371
       211.000         146.000
  21626919.956      168106.84449    133522.02747  21626919.875    21626928.006
       233.000         191.000
 99  6 16  2  5 30.0000000  0  7G 1G31G29G15G25G 8G21
  20734005.476    -1515534.50749  -1165170.30348  20734005.127    20734012.615
       245.000         213.000
  24474378.412     1386346.22249   1078770.01745  24474377.151    24474393.202
       207.000         141.000
  21445916.856      886212.09049    691210.02547  21445916.971    21445923.731
       237.000         200.000
  21363483.119    -3364887.87349  -2600073.28247  21363483.098    21363490.877
       235.000         195.000
  21017575.684    -2777894.17449  -2146781.55447  21017575.755    21017582.881
       244.000         211.000
  23802105.935     1862804.04049   1448129.82345  23802105.785    23802115.644
       210.000         146.000
  21634136.356      206029.04249    163071.74747  21634135.969    21634145.213
       234.000         191.000
 99  6 16  2  6  0.0000000  0  7G 1G31G29G15G25G 8G21
  20731639.245    -1527969.39949  -1174859.80348  20731639.045    20731646.295
       245.000         213.000
  24487919.448     1457504.88549   1134218.06745  24487920.066    24487934.028
       209.000         143.000
  21456697.446      942864.45049    735354.69447  21456697.657    21456704.367
       237.000         200.000
  21351046.366    -3430242.87049  -2650999.21847  21351046.028    21351053.877
       235.000         195.000
  21008504.405    -2825564.02049  -2183926.83047  21008504.215    21008511.699
       244.000         211.000
  23819097.767     1952096.49749   1517708.29245  23819096.283    23819106.639
       207.000         145.000
  21641408.168      244242.63749    192848.53547  21641407.765    21641416.532
       234.000         191.000
 99  6 16  2  6 30.0000000  0  7G 1G31G29G15G25G 8G21
  20729337.069    -1540067.51349  -1184286.87548  20729336.639    20729343.942
       246.000         213.000
  24501483.002     1528780.22849   1189757.04245  24501483.756    24501497.539
       213.000         145.000
  21467504.612      999656.56349    779608.26247  21467504.756    21467511.571
       237.000         199.000
  21338700.077    -3495122.42049  -2701554.68047  21338699.945    21338707.781
       235.000         195.000
  20999523.997    -2872755.81949  -2220699.60147  20999523.842    20999531.443
       244.000         211.000
  23836150.755     2041710.20749   1587537.11445  23836151.596    23836159.482
       214.000         144.000
  21648734.610      282743.11349    222848.86347  21648734.573    21648742.921
       234.000         190.000
 99  6 16  2  7  0.0000000  0  7G 1G31G29G15G25G 8G21
  20727095.960    -1551844.22549  -1193463.49848  20727095.660    20727103.124
       246.000         213.000
  24515063.427     1600144.52149   1245365.37945  24515064.564    24515077.928
       210.000         144.000
  21478334.062     1056565.54849    823952.89847  21478334.189    21478341.474
       237.000         199.000
  21326444.240    -3559527.29349  -2751740.25847  21326443.830    21326451.808
       236.000         195.000
  20990635.123    -2919466.77549  -2257097.68947  20990635.086    20990642.539
       244.000         211.000
  23853265.260     2131646.75749   1657617.50745  23853263.539    23853274.566
       208.000         146.000
  21656114.461      321524.38749    253068.00047  21656114.204    21656122.500
       233.000         190.000
 99  6 16  2  7 30.0000000  0  7G 1G31G29G15G25G 8G21
  20724915.452    -1563302.76949  -1202392.20448  20724915.240    20724922.506
       245.000         213.000
  24528659.968     1671593.94449   1301039.99345  24528659.702    24528673.837
       208.000         143.000
  21489186.650     1113596.37849    868392.47047  21489187.425    21489193.995
       237.000         199.000
  21314281.738    -3623441.38349  -2801543.41447  21314281.250    21314289.196
       237.000         196.000
  20981843.130    -2965668.99949  -2293099.36747  20981843.102    20981850.312
       244.000         212.000
  23870442.255     2221912.87749   1727954.62545  23870441.737    23870452.853
       206.000         145.000
  21663549.908      360597.89649    283514.85047  21663550.016    21663558.573
       234.000         190.000
 99  6 16  2  8  0.0000000  0  7G 1G31G29G15G25G 8G21
  20722790.192    -1574470.91749  -1211094.62048  20722789.861    20722797.184
       245.000         213.000
  24542270.836     1743118.98149   1356773.52145  24542270.520    24542285.431
       210.000         144.000
  21500060.687     1170739.50249    912919.55147  21500061.137    21500067.657
       236.000         199.000
  21302211.959    -3686868.57349  -2850967.15947  21302211.846    21302219.718
       237.000         196.000
  20973147.283    -3011365.70949  -2328707.12847  20973147.172    20973154.554
       244.000         212.000
  23887682.931     2312513.39349   1798552.38545  23887683.971    23887689.917
       214.000         143.000
  21671038.078      399947.86649    314177.13047  21671038.202    21671046.203
       233.000         190.000
 99  6 16  2  8 30.0000000  0  7G 1G31G29G15G25G 8G21
  20720714.123    -1585380.69149  -1219595.71748  20720713.858    20720721.394
       246.000         213.000
  24555891.615     1814695.58949   1412547.24045  24555892.399    24555907.434
       208.000         146.000
  21510956.589     1227997.63949    957536.24947  21510956.645    21510963.841
       236.000         199.000
  21290233.389    -3749816.59749  -2900017.52447  21290232.739    21290241.177
       238.000         197.000
  20964545.349    -3056569.02249  -2363930.42847  20964545.197    20964552.570
       244.000         212.000
  23904988.113     2403451.95849   1869413.63545  23904987.931    23904998.304
       209.000         143.000
  21678576.638      439563.33149    345046.28947  21678576.574    21678584.921
       233.000         190.000
 99  6 16  2  9  0.0000000  0  7G 1G31G29G15G25G 8G21
  20718686.103    -1596037.96649  -1227900.06048  20718685.642    20718693.217
       245.000         213.000
  24569524.648     1886336.28649   1468370.89645  24569524.442    24569540.638
       213.000         149.000
  21521875.755     1285378.30549   1002248.42647  21521875.955    21521883.047
       237.000         198.000
  21278346.688    -3812281.87849  -2948691.73847  21278346.237    21278354.057
       238.000         198.000
  20956033.771    -3101297.49049  -2398783.71947  20956033.880    20956041.068
       244.000         212.000
  23922357.389     2494729.73349   1940539.02945  23922355.688    23922369.183
       205.000         145.000
  21686165.962      479445.43649    376123.21547  21686165.700    21686174.425
       233.000         190.000
 99  6 16  2  9 30.0000000  0  7G 1G31G29G15G25G 8G21
  20716704.401    -1606451.52649  -1236014.49148  20716704.104    20716711.380
       246.000         213.000
  24583169.029     1958036.71049   1524241.09045  24583169.346    24583182.823
       209.000         146.000
  21532816.257     1342871.02249   1047047.92247  21532816.311    21532823.326
       236.000         198.000
  21266548.856    -3874279.79049  -2997001.75847  21266548.475    21266556.207
       237.000         198.000
  20947604.598    -3145592.96649  -2433299.61147  20947604.585    20947611.805
       244.000         212.000
  23939787.713     2586326.21149   2011912.80745  23939787.960    23939798.298
       209.000         146.000
  21693801.709      519571.48149    407390.22947  21693801.654    21693810.037
       234.000         190.000
 99  6 16  2 10  0.0000000  0  7G 1G31G29G15G25G 8G21
  20714770.863    -1616612.29749  -1243931.94848  20714770.563    20714777.832
       245.000         213.000
  24596824.415     2029795.18549   1580156.56145  24596824.623    24596839.428
       213.000         144.000
  21543778.040     1400475.55949   1091934.54447  21543778.492    21543785.350
       236.000         198.000
  21254839.078    -3935815.15149  -3044951.34647  21254838.282    21254846.484
       238.000         198.000
  20939253.510    -3189477.96649  -2467495.65547  20939253.387    20939260.695
       245.000         212.000
  23957274.039     2678216.86049   2083515.98045  23957273.715    23957280.690
       208.000         141.000
  21701484.439      559944.37349    438849.58847  21701484.585    21701492.829
       234.000         189.000
 99  6 16  2 10 30.0000000  0  7G 1G31G29G15G25G 8G21
  20712891.094    -1626490.54349  -1251629.25748  20712890.924    20712898.242
       246.000         213.000
  24610490.059     2101607.52549   1636113.97745  24610489.523    24610505.789
       212.000         144.000
  21554763.393     1458203.83949   1136917.59047  21554763.488    21554770.188
       236.000         198.000
  21243219.752    -3996874.98549  -3092530.40147  21243219.525    21243226.952
       237.000         198.000
  20930983.864    -3232935.11249  -2501358.30947  20930983.881    20930990.969
       246.000         212.000
  23974814.351     2770392.60949   2155341.12545  23974813.732    23974825.459
       207.000         141.000
  21709218.621      600587.73849    470519.71247  21709218.391    21709226.886
       233.000         189.000
 99  6 16  2 11  0.0000000  0  7G 1G31G29G15G25G 8G21
  20711072.073    -1636049.20149  -1259077.53348  20711071.843    20711079.194
       246.000         213.000
  24624164.359     2173465.41549   1692106.87145  24624164.915    24624180.387
       214.000         147.000
  21565771.330     1516050.75349   1181993.07847  21565771.567    21565778.379
       235.000         197.000
  21231693.875    -4057443.68549  -3139726.74947  21231693.225    21231701.552
       238.000         199.000
  20922799.661    -3275943.22549  -2534871.06747  20922799.637    20922806.732
       245.000         212.000
  23992408.475     2862849.56449   2227385.42545  23992409.361    23992418.717
       210.000         147.000
  21717006.537      641513.36349    502409.77247  21717006.549    21717015.150
       233.000         189.000
 99  6 16  2 11 30.0000000  0  7G 1G31G29G15G25G 8G21
  20709322.758    -1645242.14949  -1266240.84548  20709322.524    20709329.687
       245.000         213.000
  24637849.491     2245379.69949   1748143.70545  24637849.841    24637864.178
       213.000         148.000
  21576806.187     1574039.29849   1227178.92947  21576806.628    21576813.658
       235.000         197.000
  21220267.265    -4117490.68549  -3186516.58447  21220266.665    21220274.580
       238.000         199.000
  20914711.473    -3318446.56849  -2567990.49747  20914711.357    20914718.296
       246.000         212.000
  24010061.427     2955616.19549   2299671.06045  24010061.380    24010072.427
       207.000         145.000
  21724851.263      682737.26449    534532.25747  21724850.979    21724860.129
       233.000         189.000
 99  6 16  2 12  0.0000000  0  7G 1G31G29G15G25G 8G21
  20707645.747    -1654054.74449  -1273107.77248  20707645.455    20707652.738
       245.000         213.000
  24651545.655     2317353.04849   1804226.55545  24651545.830    24651559.541
       210.000         143.000
  21587868.122     1632169.91749   1272475.48847  21587868.100    21587875.327
       236.000         197.000
  21208941.982    -4177005.18749  -3232891.47247  21208941.405    21208949.600
       238.000         199.000
  20906726.335    -3360408.42249  -2600687.98947  20906726.474    20906733.279
       246.000         212.000
  24027774.724     3048699.22849   2372203.23445  24027774.288    24027783.433
       208.000         142.000
  21732754.919      724271.28049    566896.39347  21732754.797    21732763.667
       232.000         189.000
 99  6 16  2 12 30.0000000  0  7G 1G31G29G15G25G 8G21
  20706040.587    -1662489.71449  -1279680.44548  20706040.097    20706047.694
       245.000         213.000
  24665255.086     2389395.79749   1860363.56745  24665254.350    24665267.933
       209.000         136.000
  21598955.740     1690435.62849   1317877.31547  21598955.894    21598962.852
       235.000         197.000
  21197719.830    -4235977.96949  -3278844.25247  21197718.975    21197727.597
       237.000         199.000
  20898846.142    -3401819.10749  -2632956.00148  20898846.070    20898853.156
       245.000         213.000
  24045552.127     3142119.28549   2444998.07445  24045552.101    24045563.416
       207.000         143.000
  21740717.964      766117.05849    599503.45747  21740717.614    21740726.477
       232.000         188.000
 99  6 16  2 13  0.0000000  0  7G 1G31G29G15G25G 8G21
  20704502.644    -1670571.56549  -1285977.96848  20704502.491    20704509.780
       244.000         213.000
  24678979.310     2461516.15049   1916561.02145  24678979.928    24678994.193
       213.000         138.000
  21610066.218     1748821.43449   1363372.72347  21610066.382    21610073.546
       236.000         196.000
  21186599.393    -4294416.52349  -3324380.75047  21186598.863    21186606.810
       237.000         199.000
  20891066.117    -3442703.02549  -2664813.53748  20891065.976    20891072.938
       245.000         213.000
  24063393.869     3235877.50949   2518056.32145  24063393.829    24063404.619
       207.000         146.000
  21748737.821      808261.61049    632343.33047  21748737.542    21748746.322
       232.000         188.000
 99  6 16  2 13 30.0000000  0  7G 1G31G29G15G25G 8G21
  20703024.910    -1678336.86149  -1292028.81948  20703024.604    20703031.989
       243.000         213.000
  24692718.900     2533716.85849   1972821.05645  24692720.076    24692734.691
       210.000         141.000
  21621199.021     1807324.25549   1408959.31147  21621199.265    21621206.184
       234.000         196.000
  21175576.465    -4352342.03649  -3369517.46847  21175575.374    21175583.883
       238.000         199.000
  20883382.356    -3483080.95449  -2696276.80248  20883382.325    20883389.387
       245.000         213.000
  24081296.106     3329954.11949   2591362.70845  24081296.146    24081305.257
       207.000         144.000
  21756811.636      850689.31649    665403.84447  21756811.643    21756820.063
       233.000         188.000
 99  6 16  2 14  0.0000000  0  7G 1G31G29G15G25G 8G21
  20701599.885    -1685825.03649  -1297863.73348  20701599.481    20701607.088
       244.000         213.000
  24706468.117     2605968.62449   2029120.85045  24706466.129    24706484.229
       205.000         139.000
  21632349.410     1865920.42449   1454618.63847  21632349.656    21632356.991
       234.000         196.000
  21164646.761    -4409777.57949  -3414272.40847  21164646.440    21164654.231
       239.000         199.000
  20875787.198    -3522993.58449  -2727377.49748  20875787.173    20875794.240
       245.000         213.000
  24099252.400     3424314.84349   2664890.50745  24099251.315    24099260.841
       211.000         141.000
  21764938.691      893396.89149    698682.43747  21764938.297    21764946.586
       232.000         188.000
 99  6 16  2 14 30.0000000  0  7G 1G31G29G15G25G 8G21
  20700222.411    -1693063.87949  -1303504.36748  20700222.174    20700229.343
       244.000         213.000
  24720224.076     2678256.59249   2085448.84745  24720224.115    24720238.894
       205.000         137.000
  21643517.003     1924606.50249   1500348.02547  21643517.345    21643524.276
       235.000         195.000
  21153808.378    -4466733.39149  -3458653.52747  21153807.654    21153815.757
       239.000         200.000
  20868276.711    -3562461.45749  -2758131.63248  20868276.743    20868283.626
       245.000         213.000
  24117260.264     3518946.90349   2738629.73845  24117259.609    24117271.398
       207.000         143.000
  21773118.095      936379.79549    732175.57247  21773118.044    21773126.515
       232.000         188.000
 99  6 16  2 15  0.0000000  0  7G 1G31G29G15G25G 8G21
  20698892.117    -1700054.77849  -1308951.79848  20698891.965    20698899.106
       244.000         213.000
  24733985.611     2750572.62749   2141798.76545  24733984.829    24733997.359
       208.000         135.000
  21654701.627     1983381.46749   1546146.66947  21654701.852    21654708.907
       235.000         195.000
  21143060.838    -4523212.57049  -3502663.24947  21143060.244    21143068.160
       238.000         200.000
  20860852.721    -3601474.64449  -2788531.46948  20860852.622    20860859.714
       245.000         213.000
  24135318.739     3613845.87749   2812576.87245  24135318.866    24135330.068
       208.000         143.000
  21781349.525      979636.12249    765881.75447  21781349.236    21781358.149
       232.000         188.000
 99  6 16  2 15 30.0000000  0  7G 1G31G29G15G25G 8G21
  20697612.446    -1706779.43449  -1314191.76948  20697612.331    20697619.386
       244.000         213.000
  24747751.752     2822912.78149   2198167.51545  24747751.838    24747767.798
       206.000         132.000
  21665904.819     2042254.29849   1592021.57347  21665905.306    21665912.377
       235.000         195.000
  21132405.960    -4579204.01949  -3546292.91947  21132405.710    21132413.390
       239.000         200.000
  20853520.602    -3640004.90649  -2818554.99748  20853520.568    20853527.546
       245.000         213.000
  24153426.553     3709002.87449   2886725.13945  24153426.241    24153436.406
       207.000         144.000
  21789633.156     1023166.73849    799801.67546  21789633.011    21789641.372
       232.000         187.000
 99  6 16  2 16  0.0000000  0  7G 1G31G29G15G25G 8G21
  20696386.144    -1713223.47149  -1319213.07548  20696385.790    20696393.269
       245.000         213.000
  24761522.114     2895276.57049   2254554.59245  24761522.265    24761540.590
       204.000         135.000
  21677127.096     2101227.50349   1637974.69247  21677127.287    21677133.952
       234.000         195.000
  21121847.156    -4634690.98349  -3589529.48347  21121846.420    21121854.493
       239.000         201.000
  20846282.278    -3678042.17049  -2848194.37448  20846282.259    20846289.200
       245.000         213.000
  24171584.920     3804426.17149   2961080.94245  24171584.250    24171595.255
       203.000         138.000
  21797970.298     1066978.59249    833940.73446  21797970.179    21797978.456
       231.000         187.000
 99  6 16  2 16 30.0000000  0  7G 1G31G29G15G25G 8G21
  20695216.146    -1719371.89549  -1324004.03848  20695215.670    20695223.089
       243.000         213.000
  24775300.468     2967681.11849   2310973.38645  24775300.786    24775316.906
       209.000         141.000
  21688371.069     2160315.09949   1684016.94147  21688371.393    21688378.371
       234.000         195.000
  21111387.629    -4689655.64449  -3632359.05847  21111387.231    21111395.200
       239.000         201.000
  20839142.593    -3715561.52749  -2877430.19648  20839142.522    20839149.475
       245.000         213.000
  24189796.121     3900126.83549   3035652.81145  24189796.402    24189806.800
       207.000         141.000
  21806360.199     1111067.63149    868295.77846  21806359.931    21806369.048
       231.000         187.000
 99  6 16  2 17  0.0000000  0  7G 1G31G29G15G25G 8G21
  20694103.310    -1725219.57349  -1328560.64548  20694103.111    20694110.449
       244.000         213.000
  24789083.555     3040110.11749   2367411.26845  24789083.295    24789097.710
       207.000         142.000
  21699634.897     2219507.15049   1730140.59347  21699634.925    21699642.296
       234.000         195.000
  21101027.820    -4744097.14449  -3674780.96947  21101026.883    21101035.221
       239.000         201.000
  20832102.526    -3752557.18349  -2906257.93248  20832102.496    20832109.566
       245.000         213.000
  24208056.732     3996086.07849   3110426.11945  24208057.720    24208066.642
       210.000         145.000
  21814802.252     1155430.64449    902864.31646  21814802.357    21814810.647
       231.000         187.000
 99  6 16  2 17 30.0000000  0  7G 1G31G29G15G25G 8G21
  20693051.313    -1730747.77949  -1332868.31548  20693050.929    20693058.256
       244.000         213.000
  24802874.864     3112582.16549   2423882.75545  24802873.748    24802888.965
       207.000         134.000
  21710924.270     2278832.83549   1776368.37747  21710924.210    21710931.685
       234.000         195.000
  21090773.209    -4797985.12849  -3716771.57947  21090772.812    21090780.578
       241.000         202.000
  20825164.359    -3789017.33349  -2934668.39948  20825164.369    20825171.241
       245.000         214.000
  24226368.145     4092311.58749   3185407.07245  24226366.166    24226376.208
       200.000         137.000
  21823301.412     1200093.82449    937666.74946  21823301.383    21823309.344
       231.000         187.000
 99  6 16  2 18  0.0000000  0  6G 1G31G29G15G25G21
  20692050.087    -1736009.03249  -1336967.97748  20692049.892    20692057.035
       244.000         213.000
  24816665.432     3185051.93749   2480352.55245  24816663.841    24816683.392
       204.000         132.000
  21722231.025     2338250.25549   1822667.62947  21722231.332    21722238.495
       233.000         194.000
  21080617.662    -4851352.83949  -3758356.78147  21080616.863    21080624.970
       239.000         202.000
  20818319.538    -3824987.01749  -2962696.68448  20818319.477    20818326.361
       245.000         214.000
  21831854.943     1245042.70849    972691.80646  21831854.402    21831863.216
       231.000         186.000
 99  6 16  2 18 30.0000000  0  6G 1G31G29G15G25G21
  20691100.251    -1741000.24849  -1340857.21548  20691100.239    20691107.281
       245.000         213.000
  24830456.106     3257521.55649   2536822.02345  24830456.962    24830473.366
       207.000         139.000
  21733554.043     2397753.38749   1869033.68347  21733554.613    21733561.335
       235.000         194.000
  21070562.458    -4904193.20549  -3799531.06647  21070561.973    21070569.689
       240.000         202.000
  20811569.446    -3860458.84249  -2990337.02148  20811569.500    20811576.486
       245.000         214.000
  21840466.283     1290295.44949   1007953.63246  21840466.000    21840475.000
       231.000         186.000
 99  6 16  2 19  0.0000000  0  6G 1G31G29G15G25G21
  20690209.810    -1745679.73349  -1344503.55148  20690209.466    20690216.923
       244.000         213.000
  24844255.182     3330034.20049   2593325.06545  24844256.199    24844272.048
       208.000         144.000
  21744899.349     2457373.11749   1915490.58947  21744899.749    21744907.004
       234.000         194.000
  21060614.622    -4956469.11649  -3840265.50647  21060614.230    21060621.893
       240.000         202.000
  20804920.582    -3895398.72549  -3017562.86448  20804920.583    20804927.682
       244.000         214.000
  21849143.119     1335892.37649   1043483.65446  21849142.893    21849151.631
       231.000         186.000
 99  6 16  2 19 30.0000000  0  6G 1G31G29G15G25G21
  20689370.312    -1750090.96549  -1347940.85548  20689370.137    20689377.367
       245.000         213.000
  24858055.890     3402555.71549   2649835.03745  24858055.496    24858071.004
       205.000         141.000
  21756262.204     2517085.05149   1962019.33747  21756262.453    21756269.351
       234.000         194.000
  21050767.524    -5008216.08149  -3880587.79147  21050766.917    21050774.661
       240.000         202.000
  20798363.662    -3929855.55249  -3044412.30148  20798363.553    20798370.626
       245.000         214.000
  21857876.744     1381787.49349   1079246.03146  21857876.777    21857885.616
       231.000         186.000
 99  6 16  2 20  0.0000000  0  6G 1G31G29G15G25G21
  20688584.708    -1754219.50649  -1351157.88348  20688584.321    20688591.729
       245.000         214.000
  24871856.033     3475076.50449   2706344.47045  24871857.401    24871869.971
       202.000         134.000
  21767641.056     2576881.09849   2008613.63347  21767641.166    21767648.171
       234.000         193.000
  21041021.175    -5059433.04849  -3920497.08047  21041020.814    21041028.592
       240.000         202.000
  20791900.071    -3963821.56549  -3070879.28348  20791900.087    20791907.014
       245.000         214.000
  21866667.754     1427984.40949   1115243.57146  21866668.101    21866676.267
       230.000         185.000
 99  6 16  2 20 30.0000000  0  6G 1G31G29G15G25G21
  20687855.853    -1758049.76649  -1354142.48548  20687855.676    20687862.860
       244.000         214.000
  24885657.104     3547601.51749   2762857.32944  24885657.448    24885671.722
       203.000         128.000
  21779037.725     2636770.65349   2055280.79347  21779037.776    21779044.848
       233.000         193.000
  21031376.120    -5110118.19649  -3959991.97047  21031375.292    21031383.211
       241.000         203.000
  20785530.351    -3997294.60349  -3096962.12948  20785530.127    20785537.267
       244.000         214.000
  21875512.895     1474466.05249   1151462.98146  21875513.027    21875521.278
       230.000         185.000
 99  6 16  2 21  0.0000000  0  6G 1G31G29G15G25G21
  20687185.343    -1761573.26449  -1356888.05448  20687185.070    20687192.337
       244.000         214.000
  24899457.630     3620122.46649   2819366.92745  24899458.663    24899475.606
       208.000         134.000
  21790456.253     2696775.50749   2102037.78947  21790456.331    21790463.722
       234.000         193.000
  21021834.329    -5160260.64249  -3999063.98347  21021833.917    21021841.560
       240.000         203.000
  20779254.819    -4030272.58149  -3122659.21048  20779254.721    20779261.685
       244.000         214.000
  21884410.933     1521225.13649   1187898.56946  21884410.958    21884420.344
       231.000         185.000
 99  6 16  2 21 30.0000000  0  5G 1G29G15G25G21
  20686493.278    -1765209.94549  -1359721.81348  20686493.179    20686500.281
       244.000         213.000
  21801816.002     2756471.38149   2148554.03147  21801816.067    21801823.146
       233.000         193.000
  21012316.778    -5210275.78349  -4038036.79247  21012316.166    21012323.892
       242.000         203.000
  20772994.201    -4063172.20249  -3148295.23048  20772993.826    20773000.910
       245.000         214.000
  21893283.463     1567850.23549   1224229.75746  21893283.585    21893291.780
       231.000         185.000
 99  6 16  2 22  0.0000000  0  5G 1G29G15G25G21
  20685791.093    -1768900.09949  -1362597.24048  20685791.005    20685797.965
       245.000         214.000
  21813125.859     2815905.07749   2194865.97447  21813125.587    21813133.196
       233.000         192.000
  21002834.649    -5260104.64849  -4076864.45647  21002833.731    21002842.185
       241.000         203.000
  20766761.636    -4095924.09249  -3173816.14548  20766761.650    20766768.457
       245.000         214.000
  21902143.697     1614410.59049   1260510.49846  21902143.232    21902152.014
       230.000         185.000
 99  6 16  2 22 30.0000000  0  5G 1G29G15G25G21
  20685182.525    -1772098.18249  -1365089.23748  20685182.126    20685189.325
       245.000         214.000
  21824497.889     2875664.98249   2241432.10647  21824497.944    21824504.984
       234.000         192.000
  20993497.882    -5309169.39049  -4115096.69747  20993497.354    20993505.060
       241.000         203.000
  20760667.657    -4127947.99649  -3198769.78948  20760667.559    20760674.634
       244.000         214.000
  21911099.396     1661472.89649   1297182.36246  21911099.352    21911107.679
       230.000         185.000
 99  6 16  2 23  0.0000000  0  5G 1G29G15G25G21
  20684673.570    -1774772.41549  -1367173.03448  20684673.259    20684680.616
       244.000         214.000
  21835939.039     2935788.70649   2288281.73547  21835939.194    21835946.279
       233.000         192.000
  20984315.412    -5357423.44849  -4152697.23947  20984314.741    20984322.557
       240.000         203.000
  20754723.569    -4159184.33049  -3223109.74848  20754723.604    20754730.379
       245.000         214.000
  21920159.968     1709086.51249   1334283.82846  21920159.499    21920168.943
       230.000         184.000
 99  6 16  2 23 30.0000000  0  5G 1G29G15G25G21
  20684260.479    -1776943.05849  -1368864.42248  20684260.085    20684267.299
       244.000         214.000
  21847445.195     2996254.05649   2335397.56147  21847445.498    21847452.445
       233.000         192.000
  20975284.883    -5404878.96249  -4189675.54847  20975284.423    20975292.256
       240.000         203.000
  20748929.183    -4189634.10849  -3246836.79948  20748929.215    20748935.830
       245.000         214.000
  21929325.870     1757253.98449   1371816.86746  21929325.714    21929334.603
       230.000         184.000
 99  6 16  2 24  0.0000000  0  5G 1G29G15G25G21
  20683944.069    -1778606.00249  -1370160.20548  20683943.894    20683951.146
       244.000         214.000
  21859019.752     3057078.46149   2382793.17147  21859020.095    21859027.001
       232.000         192.000
  20966408.550    -5451523.84649  -4226022.19047  20966407.838    20966415.891
       241.000         204.000
  20743286.284    -4219287.55449  -3269943.33448  20743286.192    20743293.154
       244.000         214.000
  21938598.178     1805980.71449   1409785.68646  21938598.264    21938607.937
       230.000         184.000
 99  6 16  2 24 30.0000000  0  5G 1G29G15G25G21
  20683733.596    -1779711.90749  -1371021.93248  20683733.259    20683740.473
       244.000         214.000
  21870669.236     3118296.76249   2430495.71847  21870669.730    21870676.528
       233.000         191.000
  20957695.999    -5497308.71449  -4261698.69947  20957695.449    20957703.600
       240.000         204.000
  20737803.527    -4248099.17749  -3292393.90348  20737803.617    20737810.466
       245.000         215.000
  21947984.703     1855306.44049   1448221.27246  21947984.766    21947993.208
       230.000         184.000
 99  6 16  2 25  0.0000000  0  5G 1G29G15G25G21
  20683605.258    -1780386.16849  -1371547.31348  20683605.218    20683612.244
       244.000         214.000
  21882361.676     3179740.63249   2478374.03347  21882361.846    21882369.126
       233.000         191.000
  20949118.878    -5542381.16449  -4296820.06747  20949118.597    20949126.202
       240.000         204.000
  20732451.056    -4276226.58249  -3314311.31648  20732450.823    20732457.903
       245.000         215.000
  21957457.390     1905085.59249   1487010.16146  21957456.589    21957466.002
       230.000         183.000
 99  6 16  2 25 30.0000000  0  5G 1G29G15G25G21
  20683520.922    -1780829.31149  -1371892.59748  20683520.617    20683527.701
       245.000         214.000
  21894056.888     3241199.57949   2526264.10647  21894057.140    21894064.596
       233.000         191.000
  20940638.340    -5586947.04949  -4331546.71847  20940637.708    20940645.771
       241.000         204.000
  20727185.563    -4303896.69349  -3335872.39248  20727185.208    20727192.232
       244.000         215.000
  21966976.955     1955110.66949   1525990.68846  21966976.439    21966985.743
       228.000         183.000
 99  6 16  2 26  0.0000000  0  5G 1G29G15G25G21
  20683467.460    -1781110.08649  -1372111.36548  20683467.254    20683474.420
       245.000         214.000
  21905742.013     3302605.07849   2574112.52147  21905742.270    21905748.979
       233.000         191.000
  20932241.360    -5631073.60049  -4365931.04647  20932241.061    20932248.498
       241.000         205.000
  20721992.003    -4331188.90649  -3357139.01048  20721991.993    20721998.744
       245.000         215.000
  21976527.140     2005297.58249   1565097.32146  21976527.317    21976536.078
       229.000         183.000
 99  6 16  2 26 30.0000000  0  5G 1G29G15G25G21
  20683442.804    -1781239.66449  -1372212.31748  20683442.581    20683449.559
       244.000         214.000
  21917415.447     3363949.56949   2621913.40047  21917415.589    21917423.060
       232.000         190.000
  20923927.569    -5674762.96249  -4399974.69847  20923926.977    20923935.048
       241.000         205.000
  20716868.782    -4358111.55949  -3378117.65648  20716868.750    20716875.593
       245.000         215.000
  21986107.309     2055641.30549   1604326.15446  21986107.155    21986116.645
       228.000         183.000
 99  6 16  2 27  0.0000000  0  5G 1G29G15G25G21
  20683445.638    -1781224.46749  -1372200.45348  20683445.279    20683452.318
       244.000         214.000
  21929077.986     3425236.54149   2669669.45747  21929077.845    21929085.162
       232.000         190.000
  20915696.620    -5718017.04549  -4433679.18447  20915696.205    20915703.905
       241.000         205.000
  20711814.328    -4384672.66949  -3398814.58548  20711814.309    20711821.049
       244.000         215.000
  21995717.310     2106142.29549   1643677.52746  21995717.062    21995726.349
       229.000         183.000
 99  6 16  2 27 30.0000000  0  5G 1G29G15G25G21
  20683475.958    -1781065.12549  -1372076.27348  20683475.798    20683482.901
       245.000         214.000
  21940731.481     3486475.95249   2717388.45647  21940732.097    21940739.015
       232.000         190.000
  20907549.577    -5760829.83549  -4467039.80147  20907549.255    20907556.949
       241.000         205.000
  20706830.235    -4410864.13249  -3419223.47948  20706830.350    20706837.041
       245.000         215.000
  22005358.806     2156808.00049   1683157.25546  22005358.747    22005367.382
       229.000         182.000
 99  6 16  2 28  0.0000000  0  5G 1G29G15G25G21
  20683544.310    -1780706.08749  -1371796.48448  20683544.180    20683551.201
       244.000         214.000
  21952387.321     3547727.54449   2765116.94647  21952387.458    21952394.784
       232.000         190.000
  20899497.941    -5803141.61449  -4500010.01847  20899497.159    20899504.969
       241.000         205.000
  20701927.107    -4436629.94449  -3439300.68948  20701926.974    20701933.818
       245.000         215.000
  22015042.510     2207695.71649   1722809.97546  22015042.433    22015051.487
       230.000         182.000
 99  6 16  2 28 30.0000000  0  5G 1G29G15G25G21
  20683639.590    -1780205.52249  -1371406.42148  20683639.334    20683646.331
       244.000         214.000
  21964029.824     3608909.38149   2812791.07947  21964029.719    21964037.392
       231.000         189.000
  20891528.268    -5845022.42749  -4532644.43947  20891528.196    20891535.586
       241.000         205.000
  20697091.963    -4462038.45749  -3459099.48948  20697091.801    20697098.810
       245.000         215.000
  22024757.329     2258747.34349   1762590.42046  22024757.418    22024766.360
       229.000         182.000
 99  6 16  2 29  0.0000000  0  6G 1G29G15G25G21G14
  20683746.392    -1779644.24149  -1370969.03848  20683746.121    20683753.296
       244.000         214.000
  21975639.651     3669919.40049   2860331.33547  21975639.781    21975647.249
       232.000         189.000
  20883622.010    -5886570.36549  -4565019.45747  20883621.620    20883629.276
       242.000         205.000
  20692307.969    -4487178.43649  -3478689.04548  20692307.893    20692314.697
       244.000         215.000
  22034486.811     2309876.14249   1802431.00446  22034485.863    22034495.550
       229.000         181.000
                  -1265190.17345                                  24397627.505
       205.000         135.000
 99  6 16  2 29 30.0000000  0  6G 1G29G15G25G21G14
  20683859.099    -1779051.85949  -1370507.42748  20683858.783    20683866.015
       244.000         214.000
  21987214.754     3730746.72249   2907729.21747  21987214.858    21987221.916
       232.000         189.000
                  -1038298.87146                                  20875782.700
       241.000         184.000
  20687570.678    -4512072.77349  -3498087.19548  20687570.753    20687577.575
       245.000         215.000
  22044227.857     2361065.56849   1842318.82346  22044228.218    22044236.822
       229.000         181.000
  24381476.787    -1750351.44849  -1331281.73045  24381477.285    24381487.257
       208.000         139.000
 99  6 16  2 30  0.0000000  0  6G 1G29G15G25G21G14
  20684205.064    -1777233.81049  -1369090.75248  20684204.713    20684211.772
       245.000         214.000
  21998984.265     3792595.82649   2955923.29647  21998984.050    21998991.634
       231.000         189.000
  20868217.526    -1396201.81349  -1069248.07047  20868216.634    20868224.328
       241.000         202.000
  20683110.405    -4535511.52249  -3516351.11848  20683110.321    20683116.906
       245.000         215.000
  22054209.674     2413519.97949   1883192.34646  22054209.389    22054218.402
       229.000         181.000
  24365512.373    -1834254.16549  -1396660.39545  24365510.848    24365520.466
       209.000         140.000
 99  6 16  2 30 30.0000000  0  6G 1G29G15G25G21G14
  20684606.496    -1775124.33549  -1367446.99048  20684606.165    20684613.341
       244.000         214.000
  22010772.969     3854546.06549   3004196.17647  22010773.419    22010780.666
       230.000         188.000
  20860771.589    -1435326.98849  -1099735.21947  20860771.169    20860779.113
       241.000         205.000
  20678756.260    -4558392.68949  -3534180.56248  20678756.315    20678763.256
       245.000         216.000
  22064256.714     2466317.63049   1924333.32646  22064256.783    22064266.031
       229.000         180.000
  24349544.701    -1918160.94749  -1462042.19945  24349543.332    24349554.565
       207.000         142.000
 99  6 16  2 31  0.0000000  0  6G 1G29G15G25G21G14
  20685025.991    -1772920.08949  -1365729.38748  20685025.545    20685032.648
       244.000         214.000
  22022551.486     3916442.33349   3052427.01047  22022551.845    22022558.574
       231.000         188.000
  20853406.163    -1474031.18449  -1129894.33647  20853406.137    20853414.204
       241.000         206.000
  20674477.499    -4580877.68449  -3551701.30248  20674477.587    20674484.286
       245.000         216.000
  22074334.737     2519277.82849   1965600.97446  22074334.636    22074343.523
       228.000         180.000
  24333543.143    -2002247.92849  -1527564.35145  24333542.569    24333552.427
       210.000         143.000
 99  6 16  2 31 30.0000000  0  6G 1G29G15G25G21G14
  20685465.916    -1770607.74749  -1363927.55348  20685465.580    20685472.852
       244.000         214.000
  22034327.899     3978327.31149   3100649.04347  22034328.412    22034335.443
       232.000         188.000
  20846129.577    -1512271.59049  -1159692.05447  20846129.215    20846136.904
       241.000         206.000
  20670281.351    -4602928.50049  -3568883.71848  20670281.332    20670287.930
       245.000         216.000
  22084448.567     2572425.86249   2007014.98446  22084448.674    22084457.513
       229.000         180.000
  24317511.466    -2086494.00349  -1593210.59345  24317511.017    24317521.430
       215.000         143.000
 99  6 16  2 32  0.0000000  0  6G 1G29G15G25G21G14
  20685934.292    -1768146.47049  -1362009.66048  20685933.856    20685941.080
       244.000         214.000
  22046108.210     4040233.12849   3148887.30547  22046108.397    22046116.249
       231.000         188.000
  20838949.585    -1550002.85749  -1189093.03447  20838949.246    20838957.168
       241.000         207.000
  20666177.789    -4624492.78249  -3585687.01748  20666177.923    20666184.527
       245.000         216.000
  22094605.152     2625799.06749   2048604.45146  22094605.283    22094614.281
       229.000         180.000
  24301453.399    -2170879.15349  -1658965.25145  24301453.204    24301462.306
       205.000         142.000
 99  6 16  2 32 30.0000000  0  6G 1G29G15G25G21G14
  20686439.932    -1765488.92649  -1359938.83448  20686439.636    20686446.701
       245.000         214.000
  22057900.755     4102203.34249   3197175.75146  22057900.673    22057908.066
       231.000         187.000
  20831875.594    -1587176.95949  -1218059.86447  20831875.193    20831883.066
       242.000         207.000
  20662174.969    -4645527.66549  -3602077.80348  20662174.884    20662181.583
       245.000         216.000
  22104812.868     2679440.60949   2090403.01046  22104813.036    22104822.029
       228.000         180.000
  24285379.860    -2255345.46849  -1724782.89545  24285379.532    24285389.772
       217.000         148.000
 99  6 16  2 33  0.0000000  0  6G 1G29G15G25G21G14
  20686987.207    -1762612.93049  -1357697.78948  20686986.937    20686993.996
       244.000         213.000
  22069707.948     4164250.45849   3245524.12446  22069708.329    22069715.453
       231.000         187.000
  20824911.411    -1623774.29949  -1246577.26647  20824910.984    20824919.090
       241.000         207.000
  20658272.653    -4666034.35149  -3618057.00748  20658272.546    20658279.182
       245.000         216.000
  22115073.915     2733362.53749   2132420.04846  22115074.303    22115083.246
       227.000         179.000
  24269294.364    -2339874.78449  -1790649.83145  24269293.808    24269303.318
       214.000         148.000
 99  6 16  2 33 30.0000000  0  6G 1G29G15G25G21G14
  20687582.960    -1759481.92849  -1355258.03848  20687582.864    20687589.887
       244.000         213.000
  22081531.332     4226382.73849   3293938.84946  22081532.143    22081538.953
       231.000         187.000
  20818061.231    -1659772.15649  -1274627.52947  20818060.756    20818068.573
       242.000         207.000
  20654471.774    -4686007.79449  -3633620.69548  20654471.717    20654478.364
       245.000         216.000
  22125390.465     2787576.41549   2174664.58246  22125390.011    22125398.912
       228.000         179.000
  24253201.057    -2424444.82849  -1856548.54745  24253200.349    24253210.179
       214.000         141.000
 99  6 16  2 34  0.0000000  0  6G 1G29G15G25G21G14
  20688233.246    -1756064.56149  -1352595.14148  20688233.024    20688240.324
       244.000         214.000
  22093371.128     4288600.82549   3342420.43646  22093371.037    22093378.533
       231.000         187.000
                                   -668064.17646                  20811334.235
       241.000         185.000
  20650773.844    -4705440.64049  -3648763.13648  20650773.807    20650780.310
       245.000         216.000
  22135765.322     2842096.91949   2217148.03046  22135765.319    22135774.247
       228.000         179.000
  24237105.089    -2509029.22849  -1922458.29645  24237104.522    24237115.263
       213.000         151.000
 99  6 16  2 34 30.0000000  0  6G 1G29G15G25G21G14
  20688937.178    -1752365.24649  -1349712.54948  20688936.787    20688944.346
       244.000         213.000
  22105223.893     4350887.22849   3390955.25046  22105224.112    22105232.000
       230.000         186.000
  20804706.152     -914747.94549   -695174.83847  20804705.782    20804713.639
       241.000         203.000
  20647175.675    -4724348.92649  -3663496.83448  20647175.758    20647182.420
       245.000         216.000
  22146196.886     2896914.91749   2259863.29246  22146197.317    22146206.026
       228.000         179.000
  24221006.192    -2593629.32749  -1988380.33645  24221006.236    24221015.803
       216.000         145.000
 99  6 16  2 35  0.0000000  0  6G 1G29G15G25G21G14
  20689695.147    -1748382.09449  -1346608.77948  20689694.692    20689701.821
       244.000         213.000
  22117090.652     4413247.73149   3439547.81346  22117091.066    22117098.707
       230.000         186.000
  20798201.049     -948935.76949   -721814.68547  20798199.926    20798207.914
       242.000         206.000
  20643677.256    -4742733.00749  -3677822.05748  20643677.270    20643683.900
       244.000         216.000
  22156686.676     2952038.56849   2302816.74246  22156685.975    22156695.134
       227.000         178.000
  24204903.346    -2678249.82749  -2054318.31545  24204903.154    24204912.587
       213.000         150.000
 99  6 16  2 35 30.0000000  0  6G 1G29G15G25G21G14
  20690506.773    -1744116.68149  -1343285.06948  20690506.620    20690513.748
       245.000         214.000
  22128968.250     4475664.75949   3488184.42846  22128968.064    22128975.906
       230.000         186.000
  20791809.317     -982517.47249   -747982.22547  20791809.580    20791817.604
       243.000         207.000
  20640278.776    -4760592.17849  -3691738.26048  20640278.582    20640285.376
       244.000         216.000
  22167235.999     3007475.99649   2346014.67146  22167236.122    22167245.468
       227.000         178.000
  24188795.601    -2762896.11449  -2120276.34945  24188795.126    24188804.293
       212.000         145.000
 99  6 16  2 36  0.0000000  0  6G 1G29G15G25G21G14
  20691366.871    -1739596.89449  -1339763.14548  20691366.605    20691373.766
       245.000         214.000
  22140853.420     4538121.77749   3536852.18846  22140853.606    22140860.846
       229.000         185.000
  20785532.393    -1015504.37349   -773686.29647  20785532.645    20785540.445
       242.000         208.000
  20636980.750    -4777923.10649  -3705242.84848  20636980.835    20636987.488
       245.000         216.000
  22177846.694     3063234.98749   2389463.18046  22177846.736    22177855.247
       227.000         178.000
  24172679.205    -2847588.03049  -2186269.97545  24172678.913    24172688.618
       212.000         146.000
 99  6 16  2 36 30.0000000  0  6G 1G29G15G25G21G14
  20692270.919    -1734846.11549  -1336061.22248  20692270.779    20692277.813
       244.000         214.000
  22152745.929     4600617.16649   3585549.85346  22152746.223    22152753.904
       229.000         185.000
  20779366.871    -1047905.52349   -798933.92947  20779366.664    20779374.288
       242.000         208.000
  20633781.032    -4794737.50349  -3718344.94248  20633781.001    20633787.646
       245.000         216.000
  22188515.693     3119300.19549   2433150.30446  22188515.720    22188524.995
       227.000         178.000
  24156550.412    -2932344.91549  -2252314.19045  24156549.119    24156559.466
       210.000         147.000
 99  6 16  2 37  0.0000000  0  6G 1G29G15G25G21G14
  20693220.772    -1729854.62049  -1332171.73048  20693220.432    20693227.724
       244.000         214.000
  22164648.079     4663163.39949   3634287.13346  22164648.223    22164655.733
       229.000         185.000
  20773315.223    -1079707.64649   -823714.79647  20773315.113    20773322.733
       243.000         208.000
  20630680.544    -4811030.50949  -3731040.75948  20630680.577    20630686.950
       245.000         216.000
  22199243.066     3175672.49449   2477076.70846  22199242.684    22199252.134
       226.000         177.000
  24140410.017    -3017162.44549  -2318405.70945  24140409.222    24140419.190
       210.000         146.000
 99  6 16  2 37 30.0000000  0  6G 1G29G15G25G21G14
  20694219.688    -1724605.24249  -1328081.29648  20694219.550    20694226.587
       245.000         213.000
  22176562.357     4725773.10749   3683073.87446  22176562.455    22176570.329
       229.000         184.000
  20767379.548    -1110900.58749   -848020.96647  20767379.282    20767386.688
       243.000         208.000
  20627682.172    -4826786.84149  -3743318.39248  20627682.113    20627688.740
       245.000         216.000
  22210030.692     3232362.13549   2521250.38746  22210030.896    22210040.099
       227.000         177.000
  24124261.327    -3102023.91049  -2384531.42545  24124261.591    24124271.367
       210.000         148.000
 99  6 16  2 38  0.0000000  0  6G 1G29G15G25G21G14
  20695267.100    -1719101.18049  -1323792.40248  20695266.935    20695273.957
       244.000         214.000
  22188492.548     4788466.89749   3731926.14046  22188493.416    22188500.170
       229.000         184.000
  20761559.624    -1141484.79649   -871852.79847  20761559.172    20761566.785
       242.000         208.000
  20624786.495    -4842003.70449  -3755175.65548  20624786.537    20624793.079
       244.000         216.000
  22220876.670     3289357.75249   2565662.49646  22220876.907    22220885.637
       226.000         177.000
  24108107.500    -3186912.97949  -2450678.68945  24108107.215    24108117.280
       212.000         149.000
 99  6 16  2 38 30.0000000  0  6G 1G29G15G25G21G14
  20696366.766    -1713322.38949  -1319289.43348  20696366.424    20696373.595
       245.000         214.000
  22200440.358     4851253.03849   3780850.36246  22200440.715    22200448.187
       229.000         184.000
  20755856.947    -1171452.58349   -895204.31147  20755856.400    20755864.250
       242.000         208.000
  20621991.624    -4856690.61549  -3766619.97248  20621991.662    20621998.236
       245.000         216.000
  22231780.457     3346657.46649   2610311.54446  22231779.729    22231789.574
       226.000         177.000
  24091952.460    -3271807.87349  -2516830.45545  24091952.358    24091961.908
       214.000         152.000
 99  6 16  2 39  0.0000000  0  6G 1G29G15G25G21G14
  20697516.563    -1707279.95049  -1314581.02848  20697516.398    20697523.516
       245.000         214.000
  22212402.060     4914112.11649   3829831.42646  22212402.134    22212409.936
       230.000         184.000
  20750270.285    -1200810.41849   -918080.53447  20750269.917    20750277.686
       242.000         208.000
  20619296.852    -4870851.53249  -3777654.42148  20619296.828    20619303.521
       245.000         216.000
  22242741.843     3404259.46249   2655196.15946  22242742.300    22242750.803
       227.000         177.000
  24075795.896    -3356710.49749  -2582988.23645  24075795.913    24075806.090
       212.000         149.000
 99  6 16  2 39 30.0000000  0  6G 1G29G15G25G21G14
  20698712.672    -1700994.40449  -1309683.18748  20698712.480    20698719.590
       245.000         214.000
  22224373.916     4977024.22049   3878853.79846  22224374.676    22224382.133
       229.000         183.000
  20744797.320    -1229571.31349   -940491.60647  20744796.546    20744804.633
       242.000         208.000
  20616700.788    -4884493.95149  -3788284.84248  20616700.625    20616707.175
       245.000         216.000
  22253760.189     3462160.85449   2700314.06646  22253760.062    22253769.499
       225.000         177.000
  24059637.065    -3441625.42849  -2649155.67245  24059636.440    24059646.377
       210.000         150.000
 99  6 16  2 40  0.0000000  0  6G 1G29G15G25G21G14
  20699951.173    -1694486.08349  -1304611.75948  20699950.862    20699958.131
       245.000         214.000
  22236351.832     5039968.00149   3927900.84946  22236352.284    22236359.552
       230.000         183.000
  20739434.892    -1257750.87749   -962449.70247  20739434.608    20739442.470
       243.000         208.000
  20614199.357    -4897638.85649  -3798527.59248  20614199.277    20614205.882
       245.000         216.000
  22264831.389     3520340.88849   2745649.09746  22264831.488    22264840.540
       227.000         176.000
  24043473.553    -3526564.76449  -2715342.10645  24043473.370    24043483.062
       210.000         150.000
 99  6 16  2 40 30.0000000  0  6G 1G29G15G25G21G14
  20701235.730    -1687735.69649  -1299351.70748  20701235.353    20701242.527
       245.000         214.000
  22248337.438     5102952.45249   3976979.60546  22248337.417    22248345.149
       230.000         183.000
  20734185.988    -1285333.97749   -983943.02147  20734185.542    20734193.543
       243.000         208.000
  20611793.313    -4910282.52149  -3808379.76248  20611793.292    20611799.677
       244.000         216.000
  22275958.844     3578815.41949   2791213.60646  22275959.004    22275968.033
       226.000         176.000
  24027304.300    -3611534.16249  -2781551.89145  24027304.483    24027314.107
       210.000         150.000
 99  6 16  2 41  0.0000000  0  6G 1G29G15G25G21G14
  20702565.334    -1680748.66149  -1293907.25548  20702565.052    20702572.231
       244.000         214.000
  22260331.036     5165979.14049   4026091.27846  22260330.944    22260339.245
       228.000         183.000
  20729051.633    -1312315.04849  -1004967.22447  20729051.027    20729058.874
       242.000         209.000
  20609485.082    -4922412.25349  -3817831.46548  20609485.130    20609491.656
       245.000         216.000
  22287142.848     3637587.68649   2837010.12046  22287143.302    22287152.243
       226.000         176.000
  24011128.552    -3696537.36349  -2847788.11445  24011128.642    24011138.286
       213.000         151.000
 99  6 16  2 41 30.0000000  0  6G 1G29G15G25G21G14
  20703940.098    -1673524.25949  -1288277.83748  20703939.991    20703946.908
       244.000         214.000
  22272334.213     5229056.18249   4075242.17046  22272334.454    22272341.944
       229.000         182.000
  20724031.914    -1338693.80649  -1025522.10647  20724031.781    20724039.385
       243.000         209.000
  20607273.598    -4934033.54349  -3826886.98348  20607273.681    20607280.124
       244.000         216.000
  22298384.221     3696661.04249   2883041.24746  22298384.140    22298393.617
       224.000         175.000
  23994944.369    -3781585.86849  -2914059.60345  23994944.735    23994953.280
       212.000         151.000
 99  6 16  2 42  0.0000000  0  7G 1G29G15G25G21G30G14
  20705363.149    -1666045.92149  -1282450.54948  20705362.836    20705369.861
       245.000         214.000
  22284351.216     5292205.49649   4124449.37746  22284351.964    22284359.244
       229.000         182.000
  20719130.677    -1364450.32649  -1045592.11447  20719130.205    20719138.003
       243.000         209.000
  20605162.616    -4945126.56349  -3835530.86048  20605162.543    20605169.037
       244.000         215.000
  22309686.359     3756053.89349   2929321.32946  22309685.926    22309696.304
       225.000         175.000
  24616189.951    -7598477.14749  -5652593.43345  24616189.297    24616200.559
       200.000         133.000
  23978752.349    -3866675.57349  -2980363.17345  23978752.075    23978762.209
       213.000         151.000
 99  6 16  2 42 30.0000000  0  7G 1G29G15G25G21G30G14
  20706837.534    -1658297.86549  -1276413.09048  20706837.185    20706844.282
       245.000         214.000
  22296385.156     5355443.49749   4173725.70146  22296385.124    22296392.864
       228.000         182.000
  20714353.557    -1389554.46949  -1065153.79247  20714353.222    20714360.773
       242.000         209.000
  20603158.960    -4955655.51749  -3843735.20148  20603159.000    20603165.697
       244.000         215.000
  22321055.461     3815798.63949   2975875.62446  22321055.795    22321064.355
       226.000         175.000
  24613362.699    -7613332.68349  -5664169.11344  24613363.513    24613371.836
       204.000         130.000
  23962555.750    -3951788.71449  -3046685.04045  23962555.668    23962565.708
       214.000         152.000
 99  6 16  2 43  0.0000000  0  7G 1G29G15G25G21G30G14
  20708353.501    -1650331.43149  -1270205.46948  20708353.205    20708360.324
       244.000         214.000
  22308426.705     5418722.35749   4223033.85646  22308426.797    22308434.080
       228.000         182.000
  20709693.603    -1414042.58449  -1084235.44347  20709693.128    20709700.837
       242.000         209.000
  20601258.676    -4965641.40649  -3851516.38048  20601258.705    20601265.374
       244.000         215.000
  22332485.006     3875861.60649   3022677.88246  22332485.712    22332494.161
       226.000         175.000
  24610626.658    -7627711.20849  -5675373.14544  24610628.386    24610636.895
       203.000         130.000
  23946349.672    -4036951.26349  -3113045.37245  23946349.008    23946359.487
       210.000         150.000
 99  6 16  2 43 30.0000000  0  7G 1G29G15G25G21G30G14
  20709907.759    -1642163.52449  -1263840.85448  20709907.449    20709914.933
       245.000         214.000
  22320474.286     5482033.34249   4272367.05746  22320474.617    22320481.886
       227.000         181.000
  20705148.066    -1437929.15149  -1102848.35847  20705147.645    20705155.408
       243.000         209.000
  20599459.214    -4975097.50349  -3858884.73548  20599459.261    20599466.055
       244.000         216.000
  22343972.071     3936225.56249   3069714.67846  22343971.930    22343981.199
       225.000         175.000
  24607975.702    -7641641.40949  -5686227.74144  24607974.144    24607983.876
       202.000         130.000
  23930132.678    -4122172.15449  -3179451.23145  23930132.844    23930142.029
       215.000         151.000
 99  6 16  2 44  0.0000000  0  7G 1G29G15G25G21G30G14
  20711502.709    -1633781.77349  -1257309.60348  20711502.345    20711509.376
       244.000         213.000
  22332529.068     5545381.65949   4321729.34846  22332529.152    22332536.731
       227.000         181.000
  20700718.933    -1461204.26349  -1120984.82047  20700718.601    20700726.415
       241.000         209.000
  20597761.799    -4984017.47949  -3865835.33148  20597762.016    20597768.393
       244.000         216.000
  22355514.941     3996883.63149   3116980.65146  22355514.869    22355524.071
       224.000         174.000
  24605411.629    -7655115.27449  -5696726.79644  24605413.317    24605420.576
       203.000         129.000
  23913909.172    -4207427.63949  -3245883.99445  23913909.275    23913917.747
       212.000         150.000
 99  6 16  2 44 30.0000000  0  7G 1G29G15G25G21G30G14
  20713138.562    -1625185.39649  -1250611.12248  20713138.403    20713145.471
       245.000         213.000
  22344590.130     5608762.76549   4371117.19546  22344589.772    22344598.268
       227.000         181.000
  20696405.299    -1483871.89649  -1138647.91647  20696405.187    20696412.847
       242.000         209.000
  20596165.687    -4992404.94449  -3872370.98648  20596165.681    20596172.308
       244.000         215.000
  22367111.813     4057825.45449   3164467.73146  22367110.871    22367121.624
       225.000         174.000
  24602931.966    -7668145.10549  -5706879.85244  24602933.284    24602943.059
       206.000         131.000
  23897680.620    -4292708.75649  -3312336.70445  23897679.801    23897689.448
       212.000         148.000
 99  6 16  2 45  0.0000000  0  7G 1G29G15G25G21G30G14
  20714819.359    -1616352.71049  -1243728.50148  20714819.189    20714826.338
       244.000         213.000
  22356663.171     5672207.07049   4420554.26546  22356663.644    22356670.707
       228.000         181.000
  20692210.209    -1505917.17649  -1155826.06747  20692210.131    20692217.855
       243.000         209.000
  20594673.960    -5000243.94249  -3878479.26048  20594674.004    20594680.654
       244.000         216.000
  22378765.067     4119063.59949   3212185.70146  22378765.063    22378774.462
       225.000         174.000
  24600537.215    -7680729.57049  -5716685.89245  24600537.312    24600547.209
       205.000         132.000
  23881451.102    -4377995.11549  -3378793.53045  23881450.506    23881461.076
       213.000         150.000
 99  6 16  2 45 30.0000000  0  7G 1G29G15G25G21G30G14
  20716548.670    -1607265.09449  -1236647.22748  20716548.242    20716555.531
       244.000         213.000
  22368749.507     5735721.25949   4470045.81246  22368750.017    22368757.869
       228.000         181.000
  20688134.578    -1527334.48449  -1172514.88947  20688134.602    20688142.282
       242.000         210.000
  20593284.139    -5007547.33449  -3884170.18348  20593284.286    20593290.720
       244.000         215.000
  22390476.818     4180608.60649   3260142.81246  22390476.576    22390485.142
       225.000         173.000
  24598228.251    -7692863.21549  -5726140.64544  24598227.471    24598236.948
       197.000         130.000
  23865221.627    -4463281.81149  -3445250.61445  23865221.661    23865230.487
       213.000         150.000
 99  6 16  2 46  0.0000000  0  7G 1G29G15G25G21G30G14
  20718327.073    -1597919.50049  -1229364.93848  20718326.881    20718333.731
       244.000         213.000
  22380845.910     5799288.25149   4519578.49246  22380846.552    22380853.896
       227.000         180.000
  20684177.598    -1548129.42949  -1188718.75147  20684177.402    20684185.275
       244.000         210.000
  20591994.171    -5014326.05549  -3889452.27348  20591994.039    20592000.569
       244.000         215.000
  22402248.942     4242471.23549   3308347.39646  22402249.545    22402258.607
       224.000         173.000
  24596005.532    -7704542.12849  -5735241.04044  24596006.279    24596019.359
       201.000         130.000
  23848991.202    -4548572.30449  -3511710.66645  23848990.957    23849000.563
       215.000         153.000
 99  6 16  2 46 30.0000000  0  7G 1G29G15G25G21G30G14
  20720150.903    -1588335.15949  -1221896.61148  20720150.608    20720157.801
       245.000         213.000
  22392950.205     5862896.71649   4569143.51446  22392949.953    22392957.610
       227.000         180.000
  20680337.225    -1568311.81849  -1204445.29447  20680336.431    20680344.668
       244.000         210.000
  20590802.781    -5020586.62549  -3894330.60748  20590802.814    20590809.264
       244.000         215.000
  22414081.857     4304653.24949   3356800.84846  22414081.274    22414091.267
       224.000         173.000
  24593865.462    -7715787.09249  -5744003.26045  24593865.461    24593877.234
       201.000         133.000
  23832758.059    -4633877.64749  -3578182.31845  23832757.016    23832767.239
       216.000         152.000
 99  6 16  2 47  0.0000000  0  7G 1G29G15G25G21G30G14
  20722016.769    -1578529.83449  -1214256.09048  20722016.427    20722023.747
       244.000         213.000
  22405060.161     5926534.71949   4618731.54046  22405060.729    22405068.058
       226.000         180.000
  20676611.870    -1587888.53549  -1219699.89147  20676611.450    20676619.156
       243.000         210.000
  20589707.513    -5026342.10049  -3898815.36448  20589707.522    20589713.975
       244.000         215.000
  22425977.255     4367163.45749   3405510.04746  22425977.309    22425986.361
       224.000         173.000
  24591808.340    -7726598.04449  -5752427.31545  24591810.024    24591819.476
       204.000         135.000
  23816519.943    -4719209.74149  -3644674.78845  23816519.567    23816529.132
       217.000         153.000
 99  6 16  2 47 30.0000000  0  7G 1G29G15G25G21G30G14
  20723920.184    -1568526.98749  -1206461.65848  20723920.079    20723927.106
       244.000         213.000
  22417170.638     5990175.26949   4668321.55946  22417170.935    22417178.240
       227.000         180.000
  20672998.453    -1606876.87849  -1234496.01047  20672997.991    20673005.834
       242.000         210.000
  20588702.784    -5031621.72849  -3902929.32748  20588702.918    20588709.348
       244.000         215.000
  22437932.074     4429986.10349   3454462.70646  22437931.293    22437941.871
       224.000         173.000
  24589834.839    -7736968.59149  -5760508.17345  24589832.203    24589847.242
       195.000         134.000
  23800273.183    -4804587.36849  -3711202.77445  23800272.164    23800281.395
       212.000         153.000
 99  6 16  2 48  0.0000000  0  7G 1G29G15G25G21G30G14
  20725856.900    -1558349.75749  -1198531.34248  20725856.738    20725863.850
       244.000         213.000
  22429283.301     6053827.51349   4717920.68546  22429283.510    22429291.259
       227.000         180.000
  20669497.284    -1625275.11049  -1248832.30147  20669496.835    20669504.691
       243.000         210.000
  20587791.557    -5036410.32149  -3906660.67048  20587791.578    20587797.980
       244.000         215.000
  22449944.209     4493110.51249   3503650.48646  22449944.637    22449952.879
       224.000         172.000
  24587945.816    -7746893.26449  -5768241.62745  24587946.299    24587956.786
       203.000         133.000
  23784015.322    -4890021.87749  -3777775.07545  23784015.379    23784025.647
       215.000         154.000
 99  6 16  2 48 30.0000000  0  7G 1G29G15G25G21G30G14
  20727826.661    -1547998.55849  -1190465.46348  20727826.344    20727833.432
       244.000         213.000
  22441401.646     6117509.78849   4767543.21446  22441401.331    22441409.061
       227.000         179.000
  20666111.327    -1643068.68849  -1262697.43147  20666110.979    20666118.874
       243.000         210.000
  20586976.333    -5040694.26149  -3909998.77848  20586976.353    20586982.770
       244.000         216.000
  22462012.701     4556530.66749   3553068.73046  22462012.063    22462022.483
       223.000         172.000
  24586144.590    -7756360.18949  -5775618.42045  24586146.495    24586156.453
       206.000         137.000
  23767745.514    -4975519.99749  -3844396.93345  23767746.002    23767754.995
       214.000         156.000
 99  6 16  2 49  0.0000000  0  7G 1G29G15G25G21G30G14
  20729833.719    -1537451.39649  -1182246.88648  20729833.305    20729840.472
       244.000         213.000
  22453530.583     6181247.49649   4817208.94646  22453530.484    22453538.491
       227.000         179.000
  20662844.331    -1660236.82349  -1276075.19547  20662843.751    20662851.585
       242.000         209.000
  20586261.129    -5044452.50749  -3912927.24948  20586261.168    20586267.651
       244.000         216.000
  22474139.871     4620259.76549   3602727.70746  22474140.346    22474149.364
       222.000         171.000
  24584437.735    -7765331.99049  -5782609.38345  24584438.877    24584449.887
       207.000         140.000
  23751467.373    -5061062.34149  -3911053.24845  23751467.511    23751476.685
       215.000         154.000
 99  6 16  2 49 30.0000000  0  7G 1G29G15G25G21G30G14
  20731884.096    -1526676.56349  -1173850.90848  20731884.005    20731891.041
       244.000         213.000
  22465676.298     6245073.36049   4866943.36646  22465676.486    22465683.568
       227.000         179.000
  20659699.762    -1676761.18049  -1288951.32047  20659699.438    20659707.060
       243.000         209.000
  20585647.810    -5047675.40249  -3915438.56748  20585647.823    20585654.338
       244.000         216.000
  22486325.531     4684295.61849   3652625.70846  22486325.261    22486335.141
       223.000         171.000
  24582826.144    -7773800.93549  -5789208.50545  24582827.193    24582836.253
       205.000         140.000
  23735185.133    -5146626.08849  -3977726.30845  23735184.883    23735194.078
       210.000         153.000
 99  6 16  2 50  0.0000000  0  7G 1G29G15G25G21G30G14
  20733984.607    -1515638.41649  -1165249.75048  20733984.411    20733991.432
       244.000         213.000
  22477843.399     6309011.74149   4916765.46246  22477843.563    22477850.835
       226.000         179.000
  20656682.760    -1692615.72949  -1301305.51747  20656682.416    20656690.185
       243.000         209.000
  20585142.976    -5050328.20749  -3917505.65848  20585143.092    20585149.549
       245.000         216.000
  22498573.609     4748659.52649   3702779.34646  22498573.582    22498583.067
       222.000         170.000
  24581314.072    -7781747.35349  -5795400.46045  24581315.070    24581325.685
       210.000         142.000
  23718905.458    -5232175.63449  -4044388.22145  23718904.594    23718915.176
       213.000         153.000
 99  6 16  2 50 30.0000000  0  7G 1G29G15G25G21G30G14
  20736138.421    -1504319.92349  -1156430.13548  20736137.940    20736145.293
       244.000         213.000
  22490029.424     6373049.29649   4966664.85046  22490029.616    22490036.739
       226.000         179.000
  20653792.192    -1707806.25249  -1313142.27947  20653791.668    20653799.631
       243.000         209.000
  20584745.514    -5052416.79049  -3919133.09848  20584745.447    20584751.992
       245.000         216.000
  22510881.911     4813340.10649   3753179.71846  22510882.011    22510891.894
       224.000         171.000
  24579901.712    -7789169.66749  -5801184.04345  24579901.638    24579912.923
       210.000         144.000
  23702630.732    -5317700.16749  -4111030.71445  23702630.540    23702639.887
       213.000         152.000
 99  6 16  2 51  0.0000000  0  7G 1G29G15G25G21G30G14
  20738345.197    -1492722.95349  -1147393.53148  20738344.983    20738352.171
       244.000         213.000
  22502231.642     6437172.61149   5016631.04546  22502231.799    22502239.016
       226.000         178.000
  20651026.737    -1722338.50449  -1324466.10847  20651026.262    20651034.258
       243.000         209.000
  20584453.328    -5053952.37049  -3920329.62448  20584453.270    20584459.646
       245.000         216.000
  22523250.114     4878334.64149   3803824.74946  22523249.499    22523259.388
       222.000         170.000
  24578588.012    -7796073.73649  -5806563.78245  24578590.436    24578598.800
       214.000         146.000
  23686363.311    -5403185.72049  -4177642.77545  23686363.082    23686373.025
       213.000         155.000
 99  6 16  2 51 30.0000000  0  7G 1G29G15G25G21G30G14
  20740601.071    -1480868.61549  -1138156.38148  20740600.891    20740607.950
       245.000         213.000
  22514443.674     6501347.47849   5066637.42046  22514443.965    22514451.063
       226.000         178.000
  20648383.779    -1736226.87549  -1335288.20547  20648383.442    20648391.257
       243.000         210.000
  20584263.395    -5054950.46449  -3921107.33348  20584263.471    20584269.883
       244.000         216.000
  22535676.899     4943637.83849   3854710.29446  22535676.256    22535686.694
       223.000         170.000
  24577368.499    -7802483.95049  -5811558.70945  24577370.011    24577377.689
       212.000         146.000
  23670099.964    -5488649.63049  -4244238.00345  23670099.701    23670109.219
       213.000         156.000
 99  6 16  2 52  0.0000000  0  7G 1G29G15G25G21G30G14
  20742900.769    -1468783.69449  -1128739.55748  20742900.569    20742907.459
       244.000         213.000
  22526658.640     6565537.15149   5116655.32646  22526658.859    22526666.069
       227.000         178.000
  20645861.543    -1749481.72749  -1345616.66247  20645861.138    20645868.857
       243.000         210.000
  20584176.574    -5055406.63149  -3921462.76348  20584176.531    20584183.055
       244.000         216.000
  22548160.774     5009240.26549   3905829.00646  22548160.214    22548171.217
       223.000         171.000
  24576243.035    -7808399.14049  -5816167.91145  24576243.721    24576253.280
       212.000         147.000
  23653838.557    -5574104.33949  -4310826.09745  23653838.928    23653847.449
       216.000         154.000
 99  6 16  2 52 30.0000000  0  7G 1G29G15G25G21G30G14
  20745238.837    -1456496.82949  -1119165.36648  20745238.350    20745245.622
       244.000         213.000
  22538873.679     6629727.84549   5166674.02246  22538873.573    22538881.871
       225.000         178.000
  20643456.742    -1762119.08849  -1355463.94547  20643456.622    20643464.303
       244.000         210.000
  20584188.158    -5055345.64249  -3921415.21048  20584188.223    20584194.669
       244.000         216.000
  22560700.384     5075136.20649   3957176.41646  22560699.872    22560709.412
       222.000         170.000
  24575206.736    -7813844.67749  -5820411.15945  24575207.338    24575217.270
       211.000         145.000
  23637574.528    -5659572.27449  -4377424.42545  23637574.558    23637584.038
       214.000         156.000
 99  6 16  2 53  0.0000000  0  7G 1G29G15G25G21G30G14
  20747611.367    -1444029.00649  -1109450.17348  20747610.998    20747617.984
       244.000         213.000
  22551087.345     6693910.81349   5216686.69946  22551087.717    22551094.904
       226.000         178.000
  20641168.734    -1774142.98849  -1364833.20947  20641168.217    20641176.171
       243.000         210.000
  20584295.064    -5054783.68949  -3920977.29648  20584294.949    20584301.258
       244.000         216.000
  22573298.076     5141337.66349   4008761.90846  22573298.171    22573307.552
       223.000         169.000
  24574257.117    -7818835.45849  -5824300.00545  24574257.086    24574267.822
       207.000         145.000
  23621305.044    -5745068.18449  -4444044.59945  23621305.421    23621314.332
       216.000         155.000
 99  6 16  2 53 30.0000000  0  7G 1G29G15G25G21G30G14
  20750018.841    -1431377.78849  -1099592.07448  20750018.661    20750025.507
       244.000         213.000
  22563300.338     6758090.56349   5266696.87746  22563300.602    22563306.989
       225.000         177.000
  20638997.336    -1785553.66049  -1373724.63347  20638997.000    20639004.581
       243.000         210.000
  20584497.629    -5053718.82449  -3920147.50148  20584497.699    20584504.015
       244.000         216.000
  22585953.550     5207842.01249   4060583.42146  22585952.351    22585962.788
       221.000         169.000
  24573393.402    -7823372.74449  -5827835.51345  24573393.983    24573403.313
       208.000         143.000
  23605029.028    -5830599.18549  -4510692.08245  23605029.478    23605039.462
       215.000         158.000
 99  6 16  2 54  0.0000000  0  7G 1G29G15G25G21G30G14
  20752464.941    -1418523.34649  -1089575.62148  20752464.668    20752471.860
       244.000         213.000
  22575518.489     6822297.30049   5316728.07746  22575518.344    22575526.196
       225.000         177.000
  20636945.105    -1796338.03449  -1382128.03147  20636944.890    20636952.625
       244.000         210.000
  20584797.098    -5052145.03049  -3918921.14348  20584797.161    20584803.552
       244.000         216.000
  22598667.001     5274652.23249   4112643.26546  22598667.478    22598676.543
       222.000         168.000
  24572617.411    -7827450.16749  -5831012.68745  24572617.671    24572627.243
       209.000         144.000
  23588748.079    -5916156.03849  -4577359.67745  23588748.050    23588756.873
       217.000         159.000
 99  6 16  2 54 30.0000000  0  7G 1G29G15G25G21G30G14
  20754951.353    -1405456.93649  -1079393.99848  20754951.206    20754958.171
       244.000         213.000
  22587746.977     6886558.86949   5366801.99546  22587748.107    22587755.350
       225.000         177.000
  20635013.837    -1806486.70649  -1390036.08447  20635013.417    20635021.299
       243.000         210.000
  20585193.940    -5050059.56449  -3917296.07448  20585194.027    20585200.479
       244.000         216.000
  22611442.053     5341785.41449   4164954.76946  22611441.845    22611451.751
       221.000         168.000
  24571930.068    -7831062.18749  -5833827.22645  24571930.397    24571940.175
       207.000         144.000
  23572463.845    -6001730.12849  -4644040.75345  23572463.713    23572473.579
       213.000         158.000
 99  6 16  2 55  0.0000000  0  7G 1G29G15G25G21G30G14
  20757480.630    -1392165.56849  -1069037.08648  20757480.345    20757487.457
       244.000         213.000
  22599987.476     6950882.77649   5416924.49746  22599987.464    22599994.883
       225.000         177.000
  20633205.856    -1815987.88249  -1397439.59447  20633205.309    20633213.397
       244.000         211.000
  20585691.527    -5047444.49049  -3915258.32648  20585691.502    20585698.080
       244.000         216.000
  22624278.733     5409242.34049   4217518.53746  22624278.988    22624288.680
       222.000         168.000
  24571335.351    -7834186.25449  -5836261.50445  24571335.368    24571345.326
       206.000         142.000
  23556179.229    -6087306.60149  -4710723.61945  23556178.957    23556189.147
       217.000         160.000
 99  6 16  2 55 30.0000000  0  7G 1G29G15G25G21G30G14
  20760051.310    -1378656.64049  -1058510.64348  20760051.096    20760058.176
       244.000         213.000
  22612240.176     7015271.57449   5467097.56146  22612240.731    22612248.390
       225.000         176.000
  20631520.329    -1824845.62749  -1404341.73347  20631519.846    20631527.634
       243.000         210.000
  20586291.073    -5044293.60949  -3912803.06748  20586291.177    20586297.573
       244.000         216.000
  22637173.714     5477005.42149   4270320.87846  22637173.211    22637183.275
       221.000         167.000
  24570833.348    -7836823.71649  -5838316.63945  24570833.516    24570843.944
       209.000         142.000
  23539896.974    -6172870.41949  -4777396.68545  23539895.370    23539905.550
       213.000         158.000
 99  6 16  2 56  0.0000000  0  7G 1G29G15G25G21G30G14
  20762658.230    -1364957.22649  -1047835.77848  20762658.061    20762665.049
       244.000         213.000
  22624503.791     7079716.68949   5517314.50746  22624503.862    22624511.831
       224.000         176.000
  20629955.564    -1833068.71649  -1410749.33347  20629954.899    20629963.151
       242.000         210.000
  20586993.197    -5040603.71949  -3909927.80348  20586993.261    20586999.840
       244.000         216.000
  22650124.666     5545063.09549   4323352.75446  22650124.815    22650134.717
       222.000         168.000
  24570423.616    -7838977.11349  -5839994.55745  24570423.160    24570433.633
       207.000         142.000
  23523617.514    -6258419.25049  -4844058.02045  23523616.939    23523626.575
       218.000         160.000
 99  6 16  2 56 30.0000000  0  7G 1G29G15G25G21G30G14
  20765298.574    -1351082.07549  -1037023.96848  20765298.243    20765305.428
       244.000         213.000
  22636773.079     7144192.37549   5567555.26346  22636773.288    22636780.717
       224.000         175.000
  20628508.647    -1840672.02549  -1416673.99747  20628508.161    20628515.947
       244.000         210.000
  20587794.865    -5036390.94049  -3906645.08948  20587794.966    20587801.383
       244.000         216.000
  22663130.731     5613409.90949   4376609.95446  22663129.872    22663140.128
       220.000         167.000
  24570105.618    -7840647.90249  -5841296.40345  24570105.020    24570116.000
       207.000         142.000
  23507340.160    -6343957.47649  -4910711.11045  23507339.018    23507348.334
       215.000         159.000
 99  6 16  2 57  0.0000000  0  7G 1G29G15G25G21G30G14
  20767974.859    -1337017.70049  -1026064.71548  20767974.610    20767981.852
       244.000         213.000
  22649047.480     7208694.34949   5617816.52046  22649048.050    22649055.178
       225.000         176.000
  20627179.833    -1847654.71949  -1422115.06047  20627179.271    20627187.321
       243.000         210.000
  20588695.032    -5031660.51549  -3902959.01648  20588695.063    20588701.595
       244.000         216.000
  22676190.152     5682037.58349   4430086.00946  22676190.420    22676200.101
       222.000         166.000
  24569877.780    -7841845.25249  -5842229.36245  24569877.388    24569887.584
       208.000         143.000
  23491066.146    -6429477.57249  -4977350.07445  23491065.864    23491075.436
       217.000         160.000
 99  6 16  2 57 30.0000000  0  8G 1G29G15G25G21G30G22G14
  20770678.048    -1322812.64949  -1014995.84448  20770677.779    20770684.959
       244.000         213.000
  22661319.291     7273182.67549   5668067.13046  22661319.155    22661327.428
       224.000         175.000
  20625960.502    -1854062.21149  -1427107.91947  20625960.045    20625968.034
       243.000         210.000
  20589684.346    -5026461.74749  -3898908.00448  20589684.408    20589690.761
       244.000         216.000
  22689295.333     5750905.73249   4483749.41546  22689295.248    22689306.972
       220.000         166.000
  24569729.836    -7842622.52649  -5842835.02145  24569730.340    24569739.854
       208.000         142.000
  24416580.396    -6999360.34149  -5103641.24845  24416580.793    24416596.247
       206.000         139.000
  23474787.156    -6515023.17849  -5044008.87645  23474786.234    23474795.930
       219.000         160.000
 99  6 16  2 58  0.0000000  0  8G 1G29G15G25G21G30G22G14
  20773422.541    -1308390.11849  -1003757.50248  20773422.109    20773429.507
       245.000         213.000
  22673597.776     7337706.73249   5718345.59046  22673597.425    22673606.511
       224.000         175.000
  20624861.781    -1859835.88249  -1431606.89247  20624861.426    20624869.348
       243.000         210.000
  20590770.765    -5020752.34549  -3894459.09648  20590770.706    20590777.192
       244.000         216.000
  22702458.268     5820076.97149   4537649.01846  22702458.625    22702468.629
       221.000         165.000
  24569675.468    -7842907.80349  -5843057.25545  24569675.807    24569684.916
       208.000         143.000
  24399254.607    -7090406.18249  -5174585.71745  24399251.410    24399269.096
       200.000         136.000
  23458510.928    -6600555.43549  -5110657.34645  23458511.311    23458520.169
       216.000         160.000
 99  6 16  2 58 30.0000000  0  8G 1G29G15G25G21G30G22G14
  20776213.291    -1293724.67649   -992329.88648  20776213.027    20776220.012
       245.000         213.000
  22685882.818     7402265.38449   5768650.99046  22685883.220    22685890.720
       224.000         175.000
  20623885.430    -1864966.32849  -1435604.65047  20623885.211    20623893.136
       243.000         210.000
  20591953.348    -5014537.84849  -3889616.60648  20591953.387    20591959.831
       244.000         216.000
  22715681.547     5889565.74549   4591796.03846  22715681.601    22715691.270
       220.000         165.000
  24569715.497    -7842697.76949  -5842893.55845  24569716.849    24569725.758
       210.000         143.000
  24381910.416    -7181550.10549  -5245606.63445  24381910.095    24381923.393
       209.000         137.000
  23442238.434    -6686066.88249  -5177289.54245  23442239.535    23442247.988
       219.000         161.000
 99  6 16  2 59  0.0000000  0  8G 1G29G15G25G21G30G22G14
  20779047.208    -1278832.41349   -980725.53248  20779047.115    20779054.103
       245.000         213.000
  22698174.485     7466858.16849   5818983.01046  22698174.651    22698182.341
       223.000         174.000
  20623031.441    -1869454.16149  -1439101.67947  20623031.133    20623039.063
       243.000         211.000
  20593234.978    -5007802.69049  -3884368.41048  20593235.030    20593241.470
       244.000         216.000
  22728963.045     5959359.78049   4646180.92546  22728962.707    22728973.170
       221.000         166.000
  24569848.685    -7841998.25349  -5842348.46145  24569849.267    24569858.875
       212.000         144.000
  24364548.579    -7272786.08649  -5316699.31745  24364546.086    24364561.906
       202.000         138.000
  23425969.388    -6771560.97849  -5243908.23345  23425969.259    23425977.169
       219.000         161.000
 99  6 16  2 59 30.0000000  0  8G 1G29G15G25G21G30G22G14
  20781919.904    -1263736.40049   -968962.40148  20781919.636    20781926.690
       244.000         213.000
  22710468.193     7531462.74649   5869324.21146  22710468.240    22710476.805
       223.000         173.000
  20622297.479    -1873311.32349  -1442107.27147  20622297.271    20622304.939
       243.000         211.000
  20594613.380    -5000559.01749  -3878723.96348  20594613.476    20594619.734
       244.000         216.000
  22742300.453     6029448.32949   4700795.30246  22742301.762    22742309.688
       222.000         165.000
  24570076.916    -7840799.50849  -5841414.31945  24570077.319    24570085.721
       206.000         141.000
  24347169.025    -7364113.63349  -5387863.23245  24347166.967    24347182.793
       206.000         138.000
  23409701.687    -6857048.32649  -5310521.66145  23409700.122    23409710.544
       219.000         162.000
 99  6 16  3  0  0.0000000  0  8G 1G29G15G25G21G30G22G14
  20784834.025    -1248422.41849   -957029.43048  20784833.589    20784840.733
       245.000         213.000
  22722764.248     7596078.27349   5919673.93346  22722765.037    22722772.918
       225.000         175.000
  20621685.081    -1876530.06149  -1444615.38347  20621684.675    20621692.437
       244.000         211.000
  20596092.241    -4992787.41549  -3872668.14748  20596092.202    20596098.622
       244.000         216.000
  22755695.521     6099838.89049   4755645.03846  22755695.950    22755705.775
       219.000         165.000
  24570402.393    -7839087.45949  -5840080.22545  24570402.294    24570411.268
       206.000         140.000
  24329771.832    -7455535.77449  -5459100.90045  24329770.430    24329785.889
       207.000         138.000
  23393436.368    -6942523.00249  -5377125.24146  23393436.921    23393445.365
       221.000         163.000
 99  6 16  3  0 30.0000000  0  8G 1G29G15G25G21G30G22G14
  20787785.650    -1232911.45649   -944942.96648  20787785.526    20787792.495
       244.000         213.000
  22735063.552     7660711.34949   5970037.34846  22735063.063    22735070.806
       222.000         173.000
  20621193.632    -1879112.61549  -1446627.77647  20621193.105    20621201.150
       243.000         211.000
  20597673.405    -4984478.09949  -3866193.33648  20597673.457    20597679.962
       244.000         216.000
  22769148.984     6170537.89549   4810735.06846  22769149.436    22769159.263
       220.000         165.000
  24570822.954    -7836876.73349  -5838357.54545  24570822.304    24570832.412
       205.000         138.000
  24312357.418    -7547048.60649  -5530409.31945  24312356.626    24312369.268
       209.000         138.000
  23377173.985    -7027982.35149  -5443716.87545  23377173.450    23377183.501
       217.000         162.000
 99  6 16  3  1  0.0000000  0  8G 1G29G15G25G21G30G22G14
  20790773.235    -1217211.37849   -932709.13248  20790773.077    20790780.151
       244.000         213.000
  22747368.093     7725372.24849   6020422.43546  22747368.734    22747375.353
       223.000         173.000
  20620823.998    -1881055.23349  -1448141.52147  20620823.611    20620831.510
       243.000         210.000
  20599356.370    -4975634.06849  -3859301.85848  20599356.402    20599362.788
       244.000         216.000
  22782662.661     6241552.06149   4866070.71046  22782662.731    22782672.292
       220.000         165.000
  24571341.381    -7834151.23549  -5836233.72745  24571341.874    24571351.407
       204.000         137.000
  24294928.909    -7638635.34149  -5601775.36145  24294928.041    24294942.471
       199.000         137.000
  23360913.786    -7113429.42949  -5510298.97146  23360914.056    23360922.107
       220.000         163.000
 99  6 16  3  1 30.0000000  0  8G 1G29G15G25G21G30G22G14
  20793795.529    -1201329.17049   -920333.38748  20793795.345    20793802.384
       245.000         213.000
  22759675.999     7790050.39549   6070820.96346  22759676.024    22759685.240
       223.000         173.000
  20620574.099    -1882368.72949  -1449165.03247  20620573.764    20620581.501
       244.000         210.000
  20601135.347    -4966285.17049  -3852016.98548  20601135.461    20601141.690
       244.000         216.000
  22796236.437     6312882.62449   4921652.88646  22796236.584    22796245.176
       218.000         163.000
  24571956.186    -7830919.59049  -5833715.50345  24571956.778    24571966.375
       205.000         138.000
  24277483.839    -7730306.50049  -5673206.95145  24277482.369    24277498.013
       209.000         139.000
  23344653.715    -7198876.07949  -5576880.71845  23344653.792    23344662.184
       222.000         162.000
 99  6 16  3  2  0.0000000  0  8G 1G29G15G25G21G30G22G14
  20796852.614    -1185263.98149   -907815.05148  20796852.389    20796859.339
       245.000         213.000
  22771989.445     7854758.01449   6121242.44846  22771989.730    22771997.352
       223.000         173.000
  20620445.370    -1883045.18549  -1449692.14547  20620444.793    20620452.787
       244.000         210.000
  20603012.592    -4956420.22149  -3844329.98748  20603012.641    20603019.113
       244.000         216.000
  22809874.506     6384551.26349   4977498.48946  22809874.293    22809884.316
       219.000         165.000
  24572667.648    -7827180.61049  -5830801.97145  24572668.546    24572677.227
       207.000         138.000
  24260023.358    -7822061.49849  -5744704.08245  24260021.257    24260037.516
       207.000         143.000
  23328394.813    -7284317.59649  -5643458.46845  23328394.339    23328403.791
       219.000         162.000
 99  6 16  3  2 30.0000000  0  8G 1G29G15G25G21G30G22G14
  20799941.170    -1169033.74049   -895168.11348  20799941.000    20799947.951
       245.000         213.000
  22784307.996     7919492.19849   6171684.64846  22784307.932    22784316.086
       222.000         173.000
  20620437.223    -1883087.62949  -1449725.23047  20620436.969    20620444.765
       243.000         210.000
  20604983.068    -4946065.28249  -3836261.18448  20604983.087    20604989.275
       244.000         216.000
  22823574.682     6456546.06249   5033598.24546  22823573.939    22823584.012
       218.000         164.000
  24573475.249    -7822936.91949  -5827495.15545  24573476.007    24573485.205
       203.000         140.000
  24242547.939    -7913893.64949  -5816261.30545  24242547.074    24242560.468
       209.000         141.000
  23312136.477    -7369755.09549  -5710033.11945  23312136.684    23312143.653
       221.000         161.000
 99  6 16  3  3  0.0000000  0  8G 1G29G15G25G21G30G22G14
  20803059.054    -1152649.45049   -882401.13248  20803058.782    20803065.787
       244.000         213.000
  22796628.364     7984235.70349   6222134.10546  22796629.102    22796635.994
       223.000         172.000
  20620547.670    -1882507.61049  -1449273.28147  20620547.052    20620554.766
       243.000         210.000
  20607045.374    -4935227.71749  -3827816.30748  20607045.359    20607051.896
       244.000         216.000
  22837332.609     6528844.44849   5089934.56846  22837332.614    22837343.310
       219.000         163.000
  24574377.465    -7818196.20649  -5823801.03645  24574378.832    24574387.282
       209.000         142.000
  24225055.624    -8005814.29449  -5887887.49345  24225052.745    24225068.461
       205.000         134.000
  23295878.039    -7455193.50949  -5776608.47545  23295878.669    23295887.040
       219.000         161.000
 99  6 16  3  3 30.0000000  0  8G 1G29G15G25G21G30G22G14
  20806207.453    -1136104.58749   -869509.02748  20806207.023    20806214.080
       244.000         213.000
  22808951.531     8048993.87549   6272595.00646  22808951.531    22808959.100
       223.000         172.000
  20620776.864    -1881303.48149  -1448335.00847  20620776.394    20620784.188
       243.000         210.000
  20609202.168    -4923893.45449  -3818984.39148  20609202.276    20609208.348
       244.000         216.000
  22851146.375     6601435.40249   5146498.87546  22851146.271    22851156.262
       219.000         163.000
  24575372.176    -7812968.96849  -5819727.83545  24575370.665    24575382.178
       205.000         139.000
  24207546.918    -8097823.21249  -5959582.42445  24207546.844    24207560.919
       210.000         144.000
  23279620.633    -7540627.24449  -5843180.17845  23279621.523    23279630.115
       218.000         160.000
 99  6 16  3  4  0.0000000  0  8G 1G29G15G25G21G30G22G14
  20809392.299    -1119368.07149   -856467.58648  20809391.958    20809399.071
       244.000         213.000
  22821281.743     8113790.09549   6323085.54446  22821282.115    22821289.975
       222.000         171.000
  20621129.041    -1879452.66349  -1446892.82247  20621128.590    20621136.352
       243.000         210.000
  20611458.499    -4912036.22449  -3809744.97348  20611458.604    20611465.069
       244.000         216.000
  22865016.118     6674321.17949   5203292.87746  22865016.289    22865026.055
       219.000         163.000
  24576463.759    -7807231.83049  -5815257.30745  24576463.978    24576474.858
       202.000         138.000
  24190025.554    -8189898.45749  -6031329.07745  24190025.744    24190039.819
       208.000         147.000
  23263366.981    -7626040.35449  -5909735.83645  23263368.035    23263376.289
       221.000         161.000
 99  6 16  3  4 30.0000000  0  8G 1G29G15G25G21G30G22G14
  20812616.548    -1102424.52349   -843264.82148  20812616.256    20812623.126
       244.000         213.000
  22833620.672     8178631.37649   6373611.19446  22833620.374    22833628.371
       223.000         172.000
  20621605.654    -1876947.88949  -1444941.05947  20621605.410    20621613.126
       244.000         210.000
  20613814.105    -4899657.38449  -3800099.10248  20613814.163    20613820.488
       244.000         215.000
  22878939.316     6747487.84749   5260305.79645  22878939.640    22878949.908
       219.000         162.000
  24577651.955    -7800987.21149  -5810391.32245  24577652.295    24577662.631
       202.000         137.000
  24172492.606    -8282033.52349  -6103122.32245  24172490.703    24172506.180
       204.000         142.000
  23247118.721    -7711425.30949  -5976269.49845  23247117.905    23247127.074
       219.000         161.000
 99  6 16  3  5  0.0000000  0  8G 1G29G15G25G21G30G22G14
  20815881.914    -1085264.79649   -829893.59748  20815881.655    20815888.704
       244.000         213.000
  22845967.790     8243515.63049   6424170.35646  22845967.806    22845976.273
       221.000         170.000
  20622206.347    -1873791.77849  -1442481.76047  20622205.954    20622213.841
       243.000         210.000
  20616269.788    -4886752.35049  -3790043.21148  20616269.673    20616276.174
       244.000         215.000
  22892915.495     6820931.92549   5317534.86046  22892914.465    22892925.895
       217.000         163.000
  24578935.162    -7794242.88949  -5805135.98245  24578934.778    24578945.125
       202.000         135.000
  24154949.560    -8374221.61049  -6174956.90245  24154948.317    24154962.504
       207.000         142.000
  23230876.085    -7796781.00749  -6042780.40945  23230875.719    23230885.017
       219.000         161.000
 99  6 16  3  5 30.0000000  0  8G 1G29G15G25G21G30G22G14
  20819190.403    -1067878.24549   -816345.63148  20819190.314    20819197.273
       244.000         213.000
  22858323.244     8308444.18649   6474764.01646  22858323.542    22858331.695
       221.000         170.000
  20622931.351    -1869981.95749  -1439513.07747  20622930.852    20622938.854
       243.000         210.000
  20618823.433    -4873332.84249  -3779586.42948  20618823.545    20618829.820
       244.000         216.000
  22906943.422     6894649.75049   5374977.21846  22906944.153    22906954.364
       219.000         163.000
  24580314.088    -7786995.19449  -5799488.38445  24580314.033    24580324.502
       202.000         134.000
  24137395.923    -8466464.48949  -6246834.18745  24137394.989    24137408.973
       212.000         144.000
  23214641.446    -7882094.33649  -6109258.22845  23214640.938    23214651.740
       219.000         162.000
 99  6 16  3  6  0.0000000  0  8G 1G29G15G25G21G30G22G14
  20822541.210    -1050269.66049   -802624.64848  20822540.885    20822548.153
       245.000         213.000
  22870687.162     8373416.74349   6525391.96046  22870686.623    22870695.257
       221.000         171.000
  20623780.029    -1865521.29749  -1436037.24347  20623779.804    20623787.401
       243.000         210.000
  20621474.260    -4859402.86849  -3768731.88448  20621474.340    20621480.626
       244.000         215.000
  22921025.602     6968650.85549   5432640.34745  22921025.644    22921035.513
       218.000         162.000
  24581790.199    -7779237.58749  -5793443.46045  24581790.121    24581799.259
       203.000         134.000
  24119831.879    -8558763.61649  -6318755.28245  24119829.789    24119845.407
       203.000         147.000
  23198415.633    -7967361.77649  -6175700.37745  23198415.361    23198425.755
       218.000         161.000
 99  6 16  3  6 30.0000000  0  8G 1G29G15G25G21G30G22G14
  20825931.419    -1032453.92149   -788742.24748  20825931.178    20825938.298
       245.000         213.000
  22883058.172     8438427.08049   6576049.36446  22883057.859    22883065.223
       220.000         170.000
  20624751.280    -1860417.78849  -1432060.48647  20624750.712    20624758.709
       244.000         210.000
  20624222.301    -4844961.46449  -3757478.81748  20624222.358    20624228.682
       244.000         215.000
  22935163.162     7042944.21749   5490531.17945  22935163.137    22935174.249
       216.000         162.000
  24583361.086    -7770981.94949  -5787010.43844  24583361.483    24583369.631
       202.000         131.000
  24102258.384    -8651111.04249  -6390713.98345  24102256.525    24102271.376
       207.000         143.000
  23182199.806    -8052575.58749  -6242100.66146  23182200.337    23182208.943
       218.000         163.000
 99  6 16  3  7  0.0000000  0  8G 1G29G15G25G21G30G22G14
  20829355.610    -1014459.65949   -774720.73148  20829355.407    20829362.470
       244.000         213.000
  22895435.115     8503468.48849   6626730.96746  22895435.600    22895442.979
       220.000         169.000
  20625840.840    -1854692.18249  -1427598.97447  20625840.188    20625848.223
       242.000         210.000
  20627066.190    -4830016.68849  -3745833.51648  20627066.189    20627072.743
       244.000         215.000
  22949355.505     7117524.43849   5548645.55245  22949354.353    22949365.274
       217.000         162.000
  24585024.148    -7762241.67449  -5780199.75244  24585025.061    24585033.772
       200.000         130.000
  24084673.526    -8743519.33549  -6462720.17845  24084672.078    24084686.429
       209.000         145.000
  23165991.324    -8137751.66849  -6308471.60646  23165990.588    23166001.009
       217.000         163.000
 99  6 16  3  7 30.0000000  0  8G 1G29G15G25G21G30G22G14
  20832812.691     -996292.61549   -760564.58948  20832812.614    20832819.407
       244.000         213.000
  22907820.891     8568556.10949   6677448.57946  22907821.315    22907828.806
       221.000         170.000
  20627048.750    -1848344.10349  -1422652.43047  20627048.382    20627056.239
       243.000         210.000
  20630006.185    -4814566.95049  -3733794.73948  20630006.164    20630012.600
       244.000         215.000
  22963606.230     7192412.38249   5606999.71345  22963606.156    22963616.730
       217.000         162.000
  24586781.888    -7753003.35549  -5773001.03044  24586782.415    24586792.345
       200.000         129.000
  24067077.561    -8835985.08249  -6534771.09645  24067075.580    24067090.729
       206.000         144.000
  23149788.362    -8222897.92349  -6374819.24646  23149788.305    23149798.120
       219.000         165.000
 99  6 16  3  8  0.0000000  0  8G 1G29G15G25G21G30G22G14
  20836301.927     -977956.36349   -746276.58748  20836301.599    20836308.961
       244.000         213.000
  22920213.806     8633681.35849   6728195.52746  22920214.496    22920221.413
       221.000         169.000
  20628374.726    -1841376.47849  -1417223.11747  20628374.274    20628382.001
       244.000         210.000
  20633043.106    -4798607.82149  -3721359.03148  20633042.942    20633049.193
       244.000         215.000
  22977918.698     7267624.30949   5665606.30545  22977918.008    22977929.199
       218.000         162.000
  24588634.262    -7743268.42649  -5765415.32544  24588635.462    24588645.877
       201.000         129.000
  24049473.492    -8928493.44949  -6606855.23645  24049472.667    24049486.370
       211.000         145.000
  23133587.242    -8308034.72949  -6441159.54746  23133586.951    23133595.979
       219.000         163.000
 99  6 16  3  8 30.0000000  0  8G 1G29G15G25G21G30G22G14
  20839823.805     -959448.76849   -731855.07548  20839823.470    20839830.699
       244.000         213.000
  22932611.633     8698832.77649   6778962.84046  22932611.693    22932619.368
       220.000         169.000
  20629819.606    -1833783.88949  -1411306.82247  20629819.093    20629826.938
       242.000         210.000
  20636174.976    -4782149.57749  -3708534.40648  20636174.993    20636181.100
       244.000         215.000
  22992293.082     7343161.80049   5724466.58845  22992293.746    22992302.926
       218.000         161.000
  24590582.754    -7733029.08949  -5757436.58644  24590583.423    24590592.179
       205.000         129.000
  24031863.773    -9021032.44449  -6678963.22945  24031862.558    24031876.329
       211.000         148.000
  23117388.484    -8393159.68449  -6507490.61746  23117387.426    23117396.604
       220.000         165.000
 99  6 16  3  9  0.0000000  0  8G 1G29G15G25G21G30G22G14
  20843377.996     -940771.17849   -717301.09748  20843377.780    20843384.895
       245.000         213.000
  22945011.897     8763996.47349   6829739.74746  22945013.088    22945019.837
       222.000         169.000
  20631382.409    -1825570.62549  -1404906.88847  20631382.211    20631389.833
       245.000         210.000
  20639396.478    -4765220.28449  -3695342.72948  20639396.593    20639402.833
       243.000         215.000
  23006727.227     7419013.36249   5783571.59045  23006727.254    23006737.340
       218.000         161.000
  24592629.277    -7722275.96749  -5749057.46244  24592629.837    24592637.747
       204.000         128.000
  24014246.414    -9113611.72449  -6751102.62645  24014244.265    24014257.756
       209.000         145.000
  23101190.742    -8478278.82349  -6573817.16246  23101191.438    23101201.075
       221.000         165.000
 99  6 16  3  9 30.0000000  0  7G 1G29G15G25G21G22G14
  20846965.462     -921918.82149   -702610.93648  20846965.066    20846972.287
       245.000         213.000
  22957408.320     8829139.38449   6880500.44446  22957408.337    22957416.274
       221.000         169.000
  20633061.741    -1816745.81649  -1398030.42147  20633061.409    20633069.205
       245.000         210.000
  20642704.189    -4747838.11649  -3681798.16348  20642704.233    20642710.523
       246.000         215.000
  23021217.327     7495158.91549   5842905.70545  23021217.363    23021227.546
       219.000         161.000
  23996618.837    -9206243.74149  -6823283.14945  23996617.547    23996631.853
       208.000         145.000
  23084993.333    -8563396.81949  -6640142.77746  23084992.842    23085001.181
       221.000         167.000
 99  6 16  3 10  0.0000000  0  7G 1G29G15G25G21G22G14
  20850588.576     -902879.38149   -687774.99648  20850588.358    20850595.363
       244.000         213.000
  22969798.979     8894253.00649   6931238.32046  22969799.659    22969807.975
       220.000         168.000
  20634861.357    -1807289.14349  -1390661.58747  20634860.913    20634868.718
       244.000         210.000
  20646101.424    -4729985.50349  -3667887.01548  20646101.361    20646107.545
       246.000         215.000
  23035762.619     7571594.67049   5902465.92745  23035762.933    23035772.459
       219.000         160.000
  23978983.172    -9298918.09749  -6895496.62645  23978981.806    23978995.749
       212.000         147.000
  23068802.178    -8648481.67849  -6706442.61446  23068802.760    23068811.789
       224.000         170.000
 99  6 16  3 10 30.0000000  0  7G 1G29G15G25G21G22G14
  20854244.623     -883666.66449   -672804.03048  20854244.387    20854251.555
       245.000         213.000
  22982185.617     8959344.15149   6981958.66746  22982186.244    22982192.459
       222.000         169.000
  20636781.100    -1797199.88949  -1382799.84247  20636780.814    20636788.715
       244.000         210.000
  20649586.434    -4711671.64549  -3653616.45548  20649586.419    20649592.757
       245.000         215.000
  23050360.773     7648307.95649   5962242.42145  23050360.697    23050371.321
       217.000         160.000
  23961339.512    -9391635.77349  -6967743.89345  23961337.551    23961351.009
       209.000         148.000
  23052620.899    -8733515.06249  -6772702.30546  23052620.593    23052629.734
       224.000         171.000
 99  6 16  3 11  0.0000000  0  7G 1G29G15G25G21G22G14
  20857936.103     -864267.81649   -657688.02547  20857935.792    20857943.010
       244.000         212.000
  22994571.520     9024432.09349   7032676.54046  22994571.749    22994578.283
       221.000         168.000
  20638821.733    -1786476.46949  -1374443.94147  20638821.411    20638829.486
       245.000         210.000
  20653161.736    -4692883.05349  -3638975.97048  20653161.774    20653167.986
       245.000         215.000
  23065011.414     7725297.60149   6022234.25445  23065011.645    23065022.469
       216.000         160.000
  23943688.291    -9484392.05249  -7040021.17645  23943687.030    23943701.310
       209.000         147.000
  23036452.096    -8818482.90049  -6838910.94546  23036450.717    23036460.435
       222.000         172.000
 99  6 16  3 11 30.0000000  0  7G 1G29G15G25G21G22G14
  20861660.601     -844695.39749   -642436.77747  20861660.293    20861667.339
       244.000         212.000
  23006955.718     9089511.84049   7083388.01346  23006955.186    23006963.844
       220.000         168.000
  20640981.242    -1775128.92049  -1365601.70547  20640980.786    20640988.413
       244.000         210.000
  20656829.666    -4673607.84849  -3623956.30848  20656829.674    20656835.889
       245.000         215.000
  23079714.441     7802562.83849   6082440.83645  23079715.475    23079724.869
       219.000         160.000
  23926030.138    -9577185.03749  -7112327.14945  23926029.494    23926041.627
       213.000         146.000
  23020293.096    -8903398.54849  -6905078.91546  23020293.972    23020302.335
       225.000         173.000
 99  6 16  3 12  0.0000000  0  7G 1G29G15G25G21G22G14
  20865413.151     -824975.56949   -627070.65947  20865412.975    20865420.009
       244.000         212.000
  23019340.721     9154595.26549   7134102.33546  23019341.142    23019349.101
       221.000         168.000
  20643259.063    -1763158.53049  -1356274.13147  20643258.520    20643266.805
       244.000         210.000
  20660589.707    -4653848.47949  -3608559.37148  20660589.611    20660595.989
       245.000         215.000
  23094471.333     7880109.64449   6142866.82845  23094470.661    23094481.035
       214.000         159.000
  23908367.546    -9670001.30949  -7184651.24845  23908365.573    23908380.315
       208.000         148.000
  23004142.803    -8988268.63849  -6971211.38546  23004143.583    23004150.719
       224.000         172.000
 99  6 16  3 12 30.0000000  0  7G 1G29G15G25G21G22G14
  20869196.005     -805096.49049   -611580.44947  20869195.666    20869202.797
       244.000         212.000
  23031729.110     9219696.92049   7184830.89446  23031728.956    23031736.392
       218.000         167.000
  20645654.481    -1750570.54249  -1346465.32747  20645654.191    20645662.096
       245.000         210.000
  20664441.429    -4633607.26849  -3592786.97348  20664441.465    20664447.662
       245.000         215.000
  23109281.533     7957938.37949   6203512.50045  23109282.177    23109292.690
       219.000         159.000
  23890700.465    -9762840.67949  -7256993.29545  23890699.613    23890712.618
       212.000         149.000
  22987998.773    -9073105.87949  -7037318.25846  22987999.429    22988007.905
       225.000         172.000
 99  6 16  3 13  0.0000000  0  7G 1G29G15G25G21G22G14
  20873012.848     -785038.78149   -595951.05347  20873012.564    20873019.395
       244.000         212.000
  23044123.675     9284831.11249   7235584.80746  23044123.335    23044131.941
       217.000         166.000
  20648169.797    -1737352.51749  -1336165.57947  20648169.600    20648177.180
       245.000         210.000
  20668389.056    -4612862.07249  -3576621.86248  20668389.222    20668395.344
       245.000         214.000
  23124148.642     8036064.37649   6264389.79545  23124148.645    23124158.892
       215.000         159.000
  23873030.354    -9855697.46849  -7329348.99945  23873028.856    23873041.526
       208.000         149.000
  22971859.879    -9157916.03549  -7103404.04846  22971859.563    22971868.086
       222.000         171.000
 99  6 16  3 13 30.0000000  0  7G 1G29G15G25G21G22G14
  20876863.520     -764803.15449   -580183.01347  20876863.248    20876870.243
       244.000         212.000
  23056526.684     9350010.14849   7286373.63446  23056527.038    23056535.449
       219.000         166.000
  20650808.141    -1723488.23949  -1325362.26247  20650807.743    20650815.566
       245.000         210.000
  20672436.238    -4591593.96749  -3560049.29148  20672436.330    20672442.594
       245.000         214.000
  23139074.194     8114498.34849   6325507.09245  23139075.162    23139084.220
       217.000         158.000
  23855359.320    -9948557.93549  -7401707.49345  23855356.780    23855371.041
       209.000         148.000
  22955725.830    -9242700.41149  -7169469.69646  22955724.972    22955734.534
       224.000         172.000
 99  6 16  3 14  0.0000000  0  7G 1G29G15G25G21G22G14
  20880752.464     -744366.36949   -564258.23247  20880752.246    20880759.175
       244.000         212.000
  23068945.047     9415268.86049   7337224.55446  23068945.611    23068953.377
       220.000         166.000
  20653574.195    -1708952.87949  -1314036.02747  20653573.569    20653581.595
       245.000         210.000
  20676585.789    -4569787.91549  -3543057.54148  20676585.937    20676592.051
       245.000         214.000
  23154060.218     8193249.81249   6386871.77245  23154060.258    23154070.662
       217.000         158.000
  23837691.459   -10041402.59849  -7474053.71745  23837690.610    23837702.546
       212.000         149.000
  22939602.715    -9327427.87449  -7235491.08046  22939603.243    22939611.635
       226.000         172.000
 99  6 16  3 14 30.0000000  0  7G 1G29G15G25G21G22G14
  20884680.913     -723721.99149   -548171.68447  20884680.726    20884687.720
       244.000         212.000
  23081377.455     9480601.37949   7388133.00346  23081376.566    23081385.281
       216.000         165.000
  20656465.245    -1693760.33649  -1302197.69747  20656464.707    20656472.542
       245.000         210.000
  20680837.262    -4547446.25349  -3525648.42848  20680837.324    20680843.674
       245.000         214.000
  23169103.419     8272301.87649   6448470.69345  23169102.584    23169113.852
       216.000         159.000
  23820024.639   -10134240.91849  -7546395.00345  23820022.402    23820037.265
       209.000         149.000
  22923490.822    -9412095.97449  -7301466.16946  22923492.486    22923500.073
       225.000         173.000
 99  6 16  3 15  0.0000000  0  7G 1G29G15G25G21G22G14
  20888646.225     -702884.33549   -531934.54047  20888645.811    20888652.863
       243.000         212.000
  23093824.166     9546010.68749   7439101.27146  23093824.818    23093832.583
       218.000         164.000
  20659480.882    -1677912.85149  -1289849.02447  20659480.619    20659488.125
       245.000         210.000
  20685190.656    -4524569.00149  -3507821.97548  20685190.790    20685197.012
       245.000         214.000
  23184204.368     8351658.38749   6510306.82545  23184205.319    23184214.014
       215.000         157.000
  23802362.496   -10227054.01249  -7618716.58045  23802361.478    23802375.014
       212.000         150.000
  22907393.319    -9496688.89749  -7367382.67946  22907393.152    22907403.159
       221.000         172.000
 99  6 16  3 15 30.0000000  0  7G 1G29G15G25G21G22G14
  20892640.978     -681891.40849   -515576.40047  20892640.636    20892647.781
       244.000         212.000
  23106278.943     9611459.86249   7490100.61746  23106279.426    23106287.182
       218.000         166.000
  20662614.620    -1661445.04749  -1277016.98647  20662614.260    20662622.021
       245.000         210.000
  20689637.550    -4501200.36549  -3489612.62948  20689637.612    20689643.985
       245.000         214.000
  23199358.333     8431292.88449   6572359.58545  23199358.448    23199369.479
       217.000         157.000
  23784701.331   -10319863.33449  -7691035.29345  23784700.195    23784712.370
       211.000         150.000
  22891309.039    -9581212.29349  -7433245.01746  22891308.777    22891317.150
       221.000         171.000
 99  6 16  3 16  0.0000000  0  7G 1G29G15G25G21G22G14
  20896661.558     -660762.86449   -499112.58847  20896661.602    20896668.322
       244.000         212.000
  23118733.985     9676911.62349   7541101.97246  23118733.584    23118742.288
       218.000         165.000
  20665861.741    -1644381.44949  -1263720.69547  20665861.372    20665868.991
       244.000         210.000
  20694171.254    -4477375.42049  -3471047.71748  20694171.193    20694177.296
       245.000         214.000
  23214563.525     8511196.00449   6634621.63945  23214562.933    23214574.054
       214.000         158.000
  23767036.367   -10412692.75349  -7763369.62545  23767034.984    23767048.352
       215.000         151.000
  22875237.818    -9665666.87449  -7499053.73446  22875237.293    22875245.652
       221.000         171.000
 99  6 16  3 16 30.0000000  0  7G 1G29G15G25G21G22G14
  20900707.516     -639501.13849   -482544.99547  20900707.182    20900714.197
       244.000         212.000
  23131185.302     9742344.16449   7592088.33346  23131185.733    23131193.110
       218.000         164.000
  20669222.371    -1626720.95149  -1249959.28247  20669222.105    20669229.901
       245.000         210.000
  20698791.240    -4453096.97649  -3452129.42748  20698791.325    20698797.666
       245.000         214.000
  23229822.319     8591381.87949   6697104.02345  23229823.088    23229832.969
       215.000         156.000
  23749367.282   -10505543.33649  -7835720.46245  23749364.827    23749379.714
       212.000         151.000
  22859179.143    -9750055.09449  -7564810.73746  22859178.190    22859188.485
       221.000         170.000
 99  6 16  3 17  0.0000000  0  7G 1G29G15G25G21G22G14
  20904777.268     -618114.61449   -465880.16347  20904776.954    20904784.054
       244.000         212.000
  23143629.096     9807735.76949   7643042.82446  23143630.118    23143636.684
       219.000         164.000
  20672695.668    -1608468.85349  -1235736.88447  20672695.111    20672703.084
       244.000         210.000
  20703490.472    -4428402.39349  -3432886.87748  20703490.542    20703496.846
       245.000         214.000
  23245134.801     8671848.44349   6759805.16345  23245134.418    23245145.484
       215.000         156.000
  23731691.415   -10598429.04749  -7908098.65545  23731689.843    23731703.228
       213.000         151.000
  22843129.672    -9834394.81549  -7630529.98846  22843130.540    22843138.658
       222.000         170.000
 99  6 16  3 17 30.0000000  0  7G 1G29G15G25G21G22G14
  20908873.856     -596586.88349   -449105.29947  20908873.738    20908880.776
       244.000         212.000
  23156062.619     9873073.96149   7693955.67146  23156062.511    23156071.016
       217.000         164.000
  20676282.470    -1589620.11549  -1221049.57447  20676281.858    20676289.976
       245.000         210.000
  20708268.832    -4403292.01949  -3413320.33548  20708268.814    20708275.203
       245.000         214.000
  23260500.592     8752596.81049   6822725.84345  23260500.221    23260511.913
       216.000         154.000
  23714006.828   -10691362.08849  -7980513.81545  23714006.105    23714017.064
       212.000         151.000
  22827089.510    -9918686.56449  -7696211.81846  22827089.365    22827097.901
       224.000         170.000
 99  6 16  3 18  0.0000000  0  7G 1G29G15G25G21G22G14
  20913003.027     -574888.15249   -432197.18947  20913002.779    20913009.895
       244.000         212.000
  23168490.785     9938384.88549   7744847.27246  23168490.378    23168498.764
       218.000         164.000
  20679987.402    -1570150.92149  -1205878.78947  20679986.843    20679994.924
       245.000         210.000
  20713132.914    -4377731.16649  -3393402.77148  20713132.886    20713139.176
       245.000         214.000
  23275921.717     8833635.10449   6885872.46945  23275922.354    23275933.045
       214.000         154.000
  23696319.634   -10784307.38549  -8052938.43445  23696318.890    23696330.522
       213.000         151.000
  22811059.770   -10002923.56649  -7761851.00346  22811058.743    22811068.222
       223.000         170.000
 99  6 16  3 18 30.0000000  0  7G 1G29G15G25G21G22G14
  20917166.714     -553007.68649   -415147.46947  20917166.597    20917173.369
       244.000         212.000
  23180919.585    10003697.93549   7795740.53046  23180920.373    23180927.837
       219.000         165.000
  20683812.090    -1550051.91549  -1190217.23747  20683811.445    20683819.522
       245.000         210.000
  20718085.356    -4351705.68249  -3373123.15948  20718085.278    20718091.549
       245.000         214.000
  23291398.930     8914967.60749   6949248.31945  23291399.560    23291410.304
       214.000         155.000
  23678636.652   -10877230.48249  -8125345.78245  23678636.201    23678648.929
       216.000         152.000
  22795039.339   -10087111.31549  -7827451.84346  22795039.333    22795048.562
       224.000         170.000
 99  6 16  3 19  0.0000000  0  7G 1G29G15G25G21G22G14
  20921366.301     -530938.70649   -397950.85447  20921366.120    20921373.031
       245.000         212.000
  23193353.157    10069036.52549   7846653.70546  23193353.545    23193360.584
       217.000         163.000
  20687756.633    -1529323.16649  -1174064.98747  20687756.174    20687764.263
       244.000         210.000
  20723128.594    -4325203.24249  -3352471.89048  20723128.687    20723134.899
       245.000         214.000
  23306928.714     8996577.11649   7012840.06145  23306929.738    23306939.287
       216.000         151.000
  23660960.089   -10970120.48149  -8197727.36045  23660958.219    23660971.712
       212.000         153.000
  22779030.105   -10171240.51549  -7893007.01046  22779029.456    22779039.431
       225.000         171.000
 99  6 16  3 19 30.0000000  0  7G 1G29G15G25G21G22G14
  20925600.139     -508690.12949   -380614.29047  20925600.059    20925606.776
       244.000         212.000
  23205793.608    10134411.54949   7897595.26945  23205794.213    23205801.559
       219.000         162.000
  20691819.761    -1507971.11249  -1157427.03547  20691819.382    20691827.456
       244.000         210.000
  20728267.881    -4298195.90049  -3331427.19148  20728267.909    20728274.324
       245.000         214.000
  23322509.102     9078451.68349   7076638.28945  23322508.244    23322521.173
       212.000         153.000
  23643291.174   -11062969.69949  -8270077.16445  23643289.291    23643302.644
       210.000         150.000
  22763032.579   -10255308.08249  -7958514.19146  22763033.460    22763040.865
       226.000         171.000
 99  6 16  3 20  0.0000000  0  7G 1G29G15G25G21G22G14
  20929868.715     -486258.38249   -363135.00047  20929868.384    20929875.419
       244.000         212.000
  23218246.390    10199850.96849   7948586.98446  23218246.123    23218255.303
       219.000         164.000
  20696004.751    -1485979.17649  -1140290.47647  20696004.364    20696012.096
       245.000         210.000
  20733506.291    -4270667.83649  -3309976.73948  20733506.332    20733512.704
       245.000         214.000
  23338144.493     9160614.78149   7140661.38145  23338144.309    23338154.527
       219.000         154.000
  23625636.004   -11155747.38849  -8342371.23045  23625635.803    23625647.808
       215.000         152.000
  22747049.619   -10339298.89749  -8023961.52446  22747049.156    22747056.265
       224.000         172.000
 99  6 16  3 20 30.0000000  0  7G 1G29G15G25G21G22G14
  20934170.890     -463650.14549   -345518.18247  20934170.645    20934177.582
       244.000         212.000
  23230708.026    10265336.98449   7999615.00346  23230708.255    23230716.271
       218.000         164.000
  20700309.235    -1463358.92349  -1122664.31547  20700308.844    20700316.770
       244.000         210.000
  20738839.483    -4242641.49749  -3288138.01348  20738839.520    20738845.643
       245.000         214.000
  23353832.550     9243055.95249   7204901.15145  23353831.909    23353843.685
       209.000         150.000
  23607989.591   -11248479.68249  -8414629.92545  23607988.789    23608000.140
       214.000         153.000
  22731082.291   -10423207.84049  -8089345.04946  22731082.389    22731090.604
       227.000         173.000
 99  6 16  3 21  0.0000000  0  7G 1G29G15G25G21G22G14
  20938507.288     -440861.96649   -327761.14747  20938507.053    20938514.067
       244.000         212.000
  23243174.599    10330849.08449   8050663.38845  23243173.326    23243181.559
       216.000         162.000
  20704732.654    -1440113.79049  -1104551.24347  20704732.342    20704740.088
       244.000         210.000
  20744265.879    -4214125.36249  -3265917.63448  20744266.063    20744272.340
       245.000         214.000
  23369571.698     9325765.48549   7269350.03545  23369572.542    23369583.185
       214.000         152.000
  23590348.695   -11341181.59449  -8486864.94245  23590347.442    23590359.462
       214.000         152.000
  22715132.968   -10507021.48749  -8154654.32946  22715134.240    22715141.753
       228.000         174.000
 99  6 16  3 21 30.0000000  0  7G 1G29G15G25G21G22G14
  20942874.689     -417911.12149   -309877.36047  20942874.819    20942881.308
       244.000         211.000
  23255643.406    10396373.39149   8101721.26545  23255643.463    23255651.525
       218.000         161.000
  20709273.746    -1416250.57049  -1085956.53547  20709273.388    20709281.078
       244.000         210.000
  20749782.736    -4185134.16849  -3243327.07748  20749782.874    20749789.080
       245.000         214.000
  23385364.087     9408753.89049   7334016.21045  23385363.390    23385375.811
       211.000         151.000
  23572714.795   -11433847.57049  -8559071.96145  23572713.530    23572726.382
       211.000         153.000
  22699202.095   -10590738.84549  -8219888.58846  22699200.421    22699211.505
       224.000         175.000
 99  6 16  3 22  0.0000000  0  7G 1G29G15G25G21G22G14
  20947271.084     -394807.86749   -291874.81347  20947270.796    20947277.824
       244.000         211.000
  23268112.030    10461895.88649   8152777.71646  23268111.921    23268120.674
       217.000         163.000
  20713930.379    -1391779.62449  -1066888.28047  20713930.215    20713937.896
       245.000         210.000
  20755385.661    -4155690.29349  -3220383.78648  20755385.815    20755392.189
       245.000         214.000
  23401208.275     9492016.10349   7398895.74745  23401208.650    23401218.626
       213.000         151.000
  23555085.166   -11526491.12149  -8631261.54245  23555085.074    23555096.281
       213.000         153.000
  22683288.111   -10674367.68749  -8285053.86446  22683287.557    22683296.786
       227.000         176.000
 99  6 16  3 22 30.0000000  0  7G 1G29G15G25G21G22G14
  20951695.952     -371554.82449   -273755.54447  20951695.553    20951702.658
       243.000         211.000
  23280580.885    10527419.88749   8203835.36145  23280581.399    23280588.459
       218.000         162.000
  20718701.682    -1366706.38649  -1047350.69847  20718701.352    20718709.128
       245.000         210.000
  20761074.125    -4125797.38149  -3197090.59148  20761074.347    20761080.396
       245.000         214.000
  23417102.800     9575541.04449   7463980.02945  23417102.237    23417114.983
       209.000         151.000
  23537460.175   -11619110.81949  -8703432.50245  23537458.387    23537470.373
       212.000         154.000
  22667390.612   -10757909.07649  -8350150.99946  22667391.781    22667398.395
       229.000         175.000
 99  6 16  3 23  0.0000000  0  7G 1G29G15G25G21G22G14
  20956146.671     -348166.14749   -255530.59547  20956146.392    20956153.484
       244.000         211.000
  23293049.995    10592946.41049   8254894.95945  23293050.397    23293057.656
       215.000         161.000
  20723586.678    -1341035.71549  -1027347.59047  20723586.440    20723594.151
       245.000         210.000
  20766848.090    -4095455.04549  -3173447.20148  20766848.170    20766854.372
       245.000         214.000
  23433047.863     9659333.91949   7529273.02845  23433047.419    23433058.049
       214.000         151.000
  23519842.064   -11711693.21449  -8775574.41145  23519840.213    23519852.296
       213.000         153.000
  22651506.643   -10841379.55049  -8415192.83046  22651506.259    22651514.493
       228.000         175.000
 99  6 16  3 23 30.0000000  0  7G 1G29G15G25G21G22G14
  20960621.058     -324653.16149   -237208.77747  20960620.884    20960627.843
       244.000         211.000
  23305522.362    10658489.92449   8305967.81045  23305521.973    23305530.933
       217.000         160.000
  20728586.257    -1314763.23649  -1006875.52847  20728585.809    20728593.675
       245.000         210.000
  20772709.059    -4064655.31149  -3149447.39248  20772709.023    20772715.315
       245.000         214.000
  23449046.160     9743404.41349   7594782.45445  23449045.783    23449057.488
       213.000         150.000
  23502232.989   -11804229.12249  -8847680.12045  23502231.484    23502244.027
       214.000         155.000
  22635634.768   -10924786.72649  -8480185.36346  22635635.785    22635642.308
       228.000         176.000
 99  6 16  3 24  0.0000000  0  7G 1G29G15G25G21G22G14
  20965123.658     -300992.09949   -218771.57747  20965123.317    20965130.376
       244.000         211.000
  23317999.351    10724056.38749   8357058.55545  23318000.834    23318007.921
       218.000         162.000
  20733702.626    -1287876.38749   -985924.74547  20733701.977    20733709.793
       244.000         209.000
  20778659.427    -4033385.91649  -3125081.61748  20778659.483    20778665.542
       245.000         214.000
  23465099.069     9827763.49849   7660516.66145  23465098.950    23465111.137
       210.000         151.000
  23484634.558   -11896708.14249  -8919741.45345  23484633.696    23484643.277
       213.000         153.000
  22619775.488   -11008127.26449  -8545125.95846  22619774.936    22619782.635
       226.000         177.000
 99  6 16  3 24 30.0000000  0  7G 1G29G15G25G21G22G14
  20969654.730     -277181.14949   -200217.58147  20969654.590    20969661.351
       244.000         211.000
  23330478.082    10789632.97549   8408157.14845  23330478.316    23330487.115
       214.000         161.000
  20738936.663    -1260371.24449   -964492.17847  20738936.353    20738944.005
       244.000         209.000
  20784697.578    -4001655.10349  -3100356.29148  20784697.603    20784703.889
       245.000         214.000
  23481206.215     9912405.92249   7726471.69045  23481206.139    23481216.934
       213.000         151.000
  23467050.046   -11989114.22549  -8991745.99545  23467049.789    23467061.268
       215.000         153.000
  22603932.036   -11091384.47049  -8610001.61046  22603932.943    22603939.439
       229.000         179.000
 99  6 16  3 25  0.0000000  0  7G 1G29G15G25G21G22G14
  20974212.164     -253231.74049   -181555.68847  20974211.705    20974218.737
       243.000         211.000
  23342956.592    10855207.96449   8459254.52945  23342957.867    23342964.345
       216.000         159.000
  20744287.035    -1232254.83849   -942583.29847  20744286.479    20744294.351
       244.000         209.000
  20790820.883    -3969476.82349  -3075282.29348  20790821.014    20790827.258
       245.000         214.000
  23497366.618     9997327.89049   7792644.56445  23497366.841    23497378.645
       209.000         150.000
  23449476.863   -12081461.49349  -9063704.67645  23449475.626    23449488.797
       212.000         155.000
  22588106.834   -11174546.30449  -8674802.94546  22588106.599    22588115.594
       228.000         179.000
 99  6 16  3 25 30.0000000  0  7G 1G29G15G25G21G22G14
  20978792.639     -229160.96049   -162799.22047  20978792.324    20978799.302
       243.000         211.000
  23355432.387    10920768.04749   8510340.31645  23355433.280    23355440.577
       217.000         160.000
  20749750.308    -1203545.29449   -920212.23047  20749749.747    20749757.572
       244.000         209.000
  20797025.659    -3936870.50049  -3049874.75148  20797025.729    20797032.051
       245.000         214.000
  23513576.022    10082508.89549   7859019.23645  23513576.050    23513587.489
       216.000         152.000
  23431909.923   -12173774.95349  -9135637.01345  23431908.417    23431919.735
       214.000         154.000
  22572299.498   -11257614.64449  -8739531.40746  22572298.753    22572307.796
       227.000         179.000
 99  6 16  3 26  0.0000000  0  7G 1G29G15G25G21G22G14
  20983396.208     -204968.65549   -143948.06147  20983395.997    20983402.877
       243.000         211.000
  23367903.224    10986302.75949   8561406.31245  23367902.818    23367911.855
       214.000         160.000
  20755323.867    -1174255.70849   -897389.19147  20755323.399    20755331.494
       245.000         209.000
  20803306.784    -3903863.00749  -3024154.61248  20803306.890    20803313.093
       246.000         214.000
  23529830.388    10167925.74449   7925577.73245  23529830.377    23529841.830
       211.000         151.000
  23414348.520   -12266060.44749  -9207547.59345  23414347.864    23414359.344
       213.000         154.000
  22556510.327   -11340586.80949  -8804184.95746  22556509.883    22556518.977
       224.000         179.000
 99  6 16  3 26 30.0000000  0  7G 1G29G15G25G21G22G14
  20988019.370     -180673.65649   -125016.88347  20988019.037    20988026.073
       246.000         211.000
  23380368.968    11051810.75749   8612451.46945  23380369.687    23380376.814
       216.000         160.000
  20761005.129    -1144400.99949   -874125.78847  20761004.556    20761012.347
       244.000         209.000
  20809661.221    -3870469.98849  -2998134.06648  20809661.261    20809667.469
       245.000         213.000
  23546125.639    10253558.31949   7992304.30345  23546124.967    23546137.179
       211.000         151.000
  23396790.107   -12358329.05049  -9279445.01545  23396788.930    23396801.217
       212.000         153.000
  22540737.786   -11423471.82849  -8868770.58846  22540737.682    22540745.678
       227.000         178.000
 99  6 16  3 27  0.0000000  0  7G 1G29G15G25G21G22G14
  20992665.976     -156255.51849   -105989.75447  20992665.610    20992672.838
       244.000         211.000
  23392835.301    11117321.69649   8663498.94745  23392835.477    23392843.987
       216.000         160.000
  20766795.756    -1113970.86249   -850414.01147  20766795.257    20766803.144
       244.000         209.000
  20816095.088    -3836659.67349  -2971788.35548  20816095.167    20816101.335
       244.000         213.000
  23562464.393    10339418.43449   8059208.19745  23562464.645    23562475.359
       212.000         151.000
  23379237.874   -12450565.29749  -9351317.17345  23379237.581    23379248.433
       214.000         156.000
  22524980.411   -11506276.84449  -8933293.84046  22524980.051    22524988.629
       229.000         178.000
 99  6 16  3 27 30.0000000  0  7G 1G29G15G25G21G22G14
  20997340.497     -131690.70949    -86848.33247  20997340.244    20997347.213
       244.000         211.000
  23405304.800    11182848.94749   8714559.15045  23405305.254    23405312.112
       216.000         159.000
  20772698.534    -1082951.37449   -826242.99247  20772698.110    20772705.964
       243.000         209.000
  20822611.857    -3802413.93049  -2945103.34048  20822612.056    20822618.194
       244.000         213.000
  23578848.699    10425518.17449   8126298.74745  23578849.922    23578859.233
       212.000         150.000
  23361697.615   -12542739.80449  -9423141.26345  23361696.574    23361707.744
       214.000         155.000
  22509236.666   -11589010.25449  -8997761.33946  22509236.420    22509244.700
       228.000         178.000
 99  6 16  3 28  0.0000000  0  7G 1G29G15G25G21G22G14
  21002048.703     -106948.62749    -67568.76847  21002048.245    21002055.371
       244.000         211.000
  23417780.954    11248411.95949   8765647.18645  23417781.477    23417789.189
       215.000         159.000
  20778717.164    -1051323.56749   -801597.96447  20778716.714    20778724.475
       243.000         209.000
  20829215.727    -3767710.20849  -2918061.45948  20829215.854    20829222.117
       244.000         213.000
  23595283.063    10511880.27249   8193593.80745  23595283.705    23595293.377
       213.000         150.000
  23344175.904   -12634816.01649  -9494888.74645  23344174.754    23344186.077
       214.000         155.000
  22493509.504   -11671657.07849  -9062161.37046  22493508.918    22493516.614
       229.000         179.000
 99  6 16  3 28 30.0000000  0  7G 1G29G15G25G21G22G14
  21006792.317      -82020.59349    -48144.31847  21006791.921    21006799.013
       244.000         211.000
  23430264.693    11314014.24649   8816765.84445  23430264.775    23430272.623
       216.000         160.000
  20784852.209    -1019083.49349   -776475.84847  20784851.697    20784859.611
       243.000         208.000
  20835911.294    -3732524.57949  -2890644.07248  20835911.209    20835917.614
       244.000         213.000
  23611771.786    10598529.09849   8261112.24445  23611770.971    23611784.225
       212.000         153.000
  23326673.742   -12726789.24449  -9566555.97645  23326672.031    23326684.325
       212.000         156.000
  22477798.659   -11754217.57449  -9126494.12946  22477798.114    22477806.409
       230.000         181.000
 99  6 16  3 29  0.0000000  0  7G 1G29G15G25G21G22G14
  21011571.124      -56907.50049    -28575.65647  21011571.002    21011578.014
       244.000         210.000
  23442757.262    11379662.36849   8867920.21945  23442757.577    23442765.948
       217.000         160.000
  20791104.445     -986227.75949   -750873.98947  20791104.018    20791111.823
       243.000         208.000
  20842698.204    -3696859.10849  -2862852.77648  20842698.090    20842704.417
       244.000         213.000
  23628317.719    10685477.84749   8328864.37145  23628318.466    23628327.585
       215.000         151.000
  23309190.823   -12818660.72349  -9638143.92945  23309189.964    23309200.805
       213.000         156.000
  22462104.761   -11836688.75549  -9190757.26446  22462105.418    22462112.775
       231.000         181.000
 99  6 16  3 29 30.0000000  0  7G 1G29G15G25G21G22G14
  21016386.552      -31602.36249     -8857.35547  21016386.299    21016393.396
       244.000         210.000
  23455259.350    11445361.32749   8919114.19445  23455259.252    23455267.422
       215.000         158.000
  20797475.886     -952745.48449   -724783.92747  20797475.357    20797483.400
       242.000         208.000
  20849576.547    -3660712.92849  -2834686.90948  20849576.439    20849582.863
       244.000         213.000
  23644926.183    10772754.34549   8396871.97145  23644926.938    23644937.124
       212.000         152.000
  23291728.757   -12910423.84449  -9709647.46445  23291727.862    23291739.338
       213.000         157.000
  22446433.667   -11919040.41249  -9254927.27446  22446433.288    22446441.887
       231.000         182.000
 99  6 16  3 30  0.0000000  0  7G 1G29G15G25G21G22G14
  21021234.240       -6127.67249     10993.06647  21021233.973    21021241.089
       244.000         210.000
  23467766.147    11511085.76249   8970328.01445  23467766.353    23467775.029
       216.000         158.000
  20803962.294     -918658.94649   -698223.01347  20803962.087    20803969.992
       243.000         208.000
  20856543.261    -3624102.43349  -2806159.23348  20856543.435    20856549.522
       244.000         213.000
  23661590.964    10860328.62249   8465111.50445  23661592.311    23661601.738
       215.000         150.000
  23274283.430   -13002099.05849  -9781082.47345  23274282.729    23274293.571
       214.000         157.000
  22430785.184   -12001273.54149  -9319004.95046  22430784.601    22430793.871
       231.000         181.000
 99  6 16  3 30 30.0000000  0  7G 1G29G15G25G21G22G14
  21026109.270       19490.81949     30955.54347  21026109.018    21026115.984
       244.000         210.000
  23480275.920    11576825.03049   9021553.42045  23480275.673    23480284.203
       215.000         158.000
  20810562.005     -883977.49149   -671198.52747  20810561.598    20810569.578
       243.000         208.000
  20863595.644    -3587041.98849  -2777280.94948  20863595.693    20863601.873
       244.000         213.000
  23678310.067    10948186.68249   8533572.24045  23678309.787    23678321.922
       213.000         152.000
  23256852.311   -13093699.68649  -9852459.37645  23256852.136    23256861.832
       215.000         158.000
  22415157.240   -12083398.72549  -9382998.51446  22415156.390    22415164.716
       229.000         181.000
 99  6 16  3 31  0.0000000  0  7G 1G29G15G25G21G22G14
  21031011.750       45253.39249     51030.29147  21031011.374    21031018.474
       244.000         210.000
  23492788.766    11642580.00649   9072791.04745  23492789.580    23492796.564
       215.000         158.000
  20817276.172     -848694.56849   -643705.36247  20817275.660    20817283.852
       242.000         208.000
  20870732.762    -3549536.10049  -2748055.56848  20870732.942    20870739.039
       244.000         213.000
  23695081.548    11036320.54949   8602247.87845  23695081.317    23695092.445
       213.000         149.000
  23239439.584   -13185203.81249  -9923761.08845  23239439.141    23239448.657
       214.000         157.000
  22399552.219   -12165403.22249  -9446898.04046  22399552.193    22399560.628
       232.000         182.000
 99  6 16  3 31 30.0000000  0  7G 1G29G15G25G21G22G14
  21035941.844       71161.44649     71218.39447  21035941.581    21035948.569
       244.000         210.000
  23505301.904    11708337.20549   9124030.39845  23505301.628    23505310.022
       215.000         158.000
  20824103.752     -812815.20749   -615747.44947  20824103.283    20824111.447
       243.000         208.000
  20877955.362    -3511580.91449  -2718480.08348  20877955.332    20877961.575
       244.000         213.000
  23711902.753    11124717.37349   8671128.39745  23711903.181    23711914.689
       214.000         148.000
  23222049.013   -13276590.93549  -9994971.61745  23222047.971    23222058.961
       214.000         158.000
  22383970.490   -12247285.71449  -9510702.50246  22383970.510    22383978.388
       233.000         181.000
 99  6 16  3 32  0.0000000  0  7G 1G29G15G25G21G22G14
  21040898.795       97210.21549     91516.15147  21040898.559    21040905.490
       244.000         210.000
  23517815.501    11774096.63349   9175271.48145  23517816.375    23517823.652
       217.000         158.000
  20831044.009     -776344.08549   -587328.42147  20831043.449    20831051.709
       243.000         208.000
  20885261.576    -3473186.70149  -2688562.50347  20885261.664    20885267.869
       244.000         212.000
  23728771.782    11213363.51649   8740203.20145  23728771.933    23728782.759
       209.000         151.000
  23204681.450   -13367856.93149 -10066087.79845  23204680.454    23204692.024
       214.000         158.000
  22368408.910   -12329061.95349  -9574424.16946  22368408.703    22368416.796
       230.000         182.000
 99  6 16  3 32 30.0000000  0  7G 1G29G15G25G21G22G14
  21045883.967      123407.39449    111929.54847  21045883.778    21045890.547
       244.000         210.000
  23530331.859    11839870.94149   9226524.16545  23530331.870    23530339.951
       216.000         157.000
  20838098.582     -739272.21249   -558441.27847  20838098.285    20838106.168
       243.000         208.000
  20892652.095    -3434349.19649  -2658299.49347  20892652.238    20892658.409
       243.000         212.000
  23745692.003    11302280.29949   8809488.89345  23745693.658    23745703.099
       211.000         146.000
  23187340.185   -13458985.07649 -10137096.50245  23187339.109    23187350.121
       215.000         160.000
  22352867.617   -12410731.54249  -9638062.72446  22352866.203    22352875.993
       228.000         182.000
 99  6 16  3 33  0.0000000  0  7G 1G29G15G25G21G22G14
  21050898.868      149760.91149    132464.76947  21050898.586    21050905.624
       244.000         210.000
  23542852.208    11905665.12149   9277792.36145  23542852.732    23542860.337
       217.000         157.000
  20845267.060     -701601.88949   -529087.80947  20845266.802    20845274.685
       243.000         208.000
  20900126.845    -3395069.25049  -2627691.72747  20900126.903    20900133.087
       244.000         212.000
  23762663.300    11391463.93649   8878982.52845  23762662.391    23762674.795
       211.000         149.000
  23170026.679   -13549966.92749 -10207991.26845  23170024.236    23170036.657
       215.000         159.000
  22337347.999   -12492286.86249  -9701612.25046  22337347.326    22337355.359
       229.000         182.000
 99  6 16  3 33 30.0000000  0  7G 1G29G15G25G21G22G14
  21055942.953      176267.74849    153119.45547  21055942.534    21055949.605
       244.000         210.000
  23555375.626    11971475.24949   9329072.94945  23555375.633    23555384.943
       216.000         159.000
  20852547.817     -663341.53049   -499274.56647  20852547.442    20852555.386
       244.000         207.000
  20907683.541    -3355358.61949  -2596748.36047  20907683.622    20907689.762
       244.000         212.000
  23779685.227    11480914.48549   8948684.20445  23779685.236    23779697.759
       210.000         147.000
  23152739.687   -13640809.39449 -10278777.39045  23152739.732    23152751.512
       218.000         160.000
  22321850.894   -12573724.42349  -9765070.03246  22321850.245    22321859.041
       228.000         182.000
 99  6 16  3 34  0.0000000  0  7G 1G29G15G25G21G22G14
  21061016.204      202928.01249    173893.68847  21061015.922    21061022.788
       243.000         210.000
  23567901.600    12037299.49449   9380364.52045  23567901.411    23567910.316
       215.000         158.000
  20859938.999     -624500.18049   -469008.60747  20859938.705    20859946.565
       242.000         207.000
  20915319.868    -3315229.47149  -2565478.88347  20915319.725    20915325.962
       244.000         212.000
  23796756.174    11570623.03249   9018586.77845  23796754.280    23796769.001
       208.000         145.000
  23135477.599   -13731521.94349 -10349462.30145  23135477.023    23135487.718
       218.000         161.000
  22306376.105   -12655044.56449  -9828436.29546  22306375.528    22306384.535
       230.000         183.000
 99  6 16  3 34 30.0000000  0  7G 1G29G15G25G21G22G14
  21066115.186      229723.52749    194773.31847  21066114.852    21066121.854
       244.000         209.000
  23580428.031    12103126.76649   9431658.49245  23580429.288    23580434.971
       218.000         157.000
  20867437.388     -585095.99449   -438304.06847  20867437.024    20867445.149
       243.000         207.000
  20923033.255    -3274695.32349  -2533893.81847  20923033.146    20923039.480
       243.000         212.000
  23813873.827    11660576.71049   9088680.50545  23813874.228    23813884.510
       212.000         145.000
  23118236.264   -13822125.54749 -10420062.30845  23118235.688    23118246.090
       216.000         161.000
  22290924.545   -12736243.05049  -9891707.78846  22290924.734    22290932.216
       232.000         183.000
 99  6 16  3 35  0.0000000  0  7G 1G29G15G25G21G22G14
  21071238.485      256647.02649    215752.67547  21071238.305    21071245.277
       244.000         209.000
  23592954.128    12168951.31149   9482950.36245  23592954.228    23592961.675
       213.000         156.000
  20875040.964     -545139.35749   -407169.04547  20875040.300    20875048.541
       242.000         207.000
  20930820.994    -3233770.05049  -2502003.98047  20930821.004    20930827.169
       243.000         212.000
  23831036.747    11750768.46449   9158959.70145  23831035.637    23831048.455
       200.000         142.000
  23101011.997   -13912638.98749 -10490592.08045  23101011.353    23101021.752
       217.000         161.000
  22275497.478   -12817312.48749  -9954878.71846  22275497.774    22275505.364
       228.000         183.000
 99  6 16  3 35 30.0000000  0  7G 1G29G15G25G21G22G14
  21076386.176      283698.50049    236831.74547  21076386.042    21076392.862
       244.000         209.000
  23605477.310    12234762.33849   9534231.63645  23605477.248    23605486.368
       213.000         156.000
  20882749.296     -504631.92049   -375604.82847  20882748.654    20882757.064
       241.000         207.000
  20938684.145    -3192448.75249  -2469805.55447  20938684.290    20938690.168
       243.000         212.000
  23848245.031    11841198.64049   9229424.62645  23848245.103    23848256.520
       210.000         144.000
  23083802.106   -14003077.33249 -10561063.32945  23083800.268    23083812.323
       217.000         162.000
  22260096.077   -12898247.08349 -10017944.56946  22260096.146    22260103.600
       230.000         182.000
 99  6 16  3 36  0.0000000  0  7G 1G29G15G25G21G22G14
  21081556.506      310868.55849    258003.21847  21081556.202    21081563.204
       244.000         209.000
  23618000.225    12300570.47549   9585510.66245  23618001.618    23618009.218
       217.000         159.000
  20890562.497     -463572.93949   -343610.84447  20890562.355    20890570.273
       242.000         207.000
  20946624.126    -3150723.82549  -2437292.60647  20946624.024    20946630.279
       244.000         211.000
  23865497.165    11931857.91949   9300068.18045  23865497.440    23865508.035
       207.000         141.000
  23066605.446   -14093445.41649 -10631479.79746  23066604.562    23066614.788
       219.000         163.000
  22244719.613   -12979050.76249 -10080908.41146  22244719.371    22244727.415
       228.000         183.000
 99  6 16  3 36 30.0000000  0  8G 1G16G29G15G25G21G22G14
  21086742.323      338120.42949    279238.44747  21086741.982    21086749.212
       243.000         209.000
  24577808.175    -1325479.85649  -1013319.05145  24577807.318    24577817.641
       207.000         135.000
  23630517.118    12366345.77749   9636764.12345  23630517.713    23630524.515
       214.000         157.000
  20898476.933     -421982.43749   -311202.67947  20898476.426    20898484.261
       243.000         207.000
  20954637.360    -3108613.95249  -2404479.71047  20954637.446    20954643.527
       244.000         211.000
  23882790.009    12022732.49549   9370879.43945  23882788.869    23882802.467
       203.000         141.000
  23049419.186   -14183760.11349 -10701854.73846  23049417.700    23049428.864
       219.000         163.000
  22229364.389   -13059742.68449 -10143785.17146  22229363.642    22229372.320
       230.000         184.000
 99  6 16  3 37  0.0000000  0  8G 1G16G29G15G25G21G22G14
  21091950.579      365490.23849    300565.57247  21091950.427    21091957.530
       244.000         209.000
  24559800.247    -1420112.37149  -1087058.75845  24559799.505    24559810.534
       210.000         138.000
  23643033.138    12432118.12149   9688015.29945  23643033.269    23643040.738
       212.000         153.000
  20906499.431     -379824.33249   -278352.22247  20906499.172    20906507.104
       242.000         206.000
  20962730.722    -3066082.92049  -2371338.63747  20962730.733    20962736.858
       243.000         211.000
  23900129.812    12113853.89549   9441882.96845  23900132.103    23900140.979
       212.000         142.000
  23032254.654   -14273959.34149 -10772139.65646  23032253.892    23032264.915
       219.000         164.000
  22214035.982   -13140294.01049 -10206552.38246  22214035.253    22214043.706
       230.000         186.000
 99  6 16  3 37 30.0000000  0  8G 1G16G29G15G25G21G22G14
  21097187.540      393010.50649    322009.93847  21097187.231    21097194.061
       243.000         209.000
  24541793.663    -1514737.90949  -1160792.97345  24541793.220    24541803.827
       204.000         140.000
  23655555.323    12497922.32349   9739291.30045  23655555.959    23655563.974
       215.000         155.000
  20914636.190     -337065.72149   -245033.83647  20914635.629    20914643.402
       243.000         206.000
  20970910.204    -3023099.21249  -2337844.82447  20970910.361    20970916.267
       244.000         211.000
  23917521.247    12205245.14549   9513096.89545  23917520.905    23917534.071
       204.000         139.000
  23015123.004   -14363986.26249 -10842290.32346  23015122.103    23015131.887
       220.000         164.000
  22198740.358   -13220672.93749 -10269185.25746  22198740.292    22198748.346
       232.000         186.000
 99  6 16  3 38  0.0000000  0  8G 1G16G29G15G25G21G22G14
  21102447.163      420650.17549    343547.34747  21102446.730    21102453.816
       243.000         209.000
  24523784.623    -1609375.45849  -1234536.48345  24523784.867    24523795.318
       206.000         138.000
  23668082.129    12563750.43749   9790585.93045  23668082.577    23668090.549
       215.000         157.000
  20922881.979     -293733.95549   -211268.84047  20922881.660    20922889.522
       240.000         206.000
  20979167.126    -2979708.86449  -2304034.15347  20979167.245    20979173.168
       242.000         211.000
  23934959.420    12296883.84049   9584503.53445  23934959.802    23934971.665
       207.000         138.000
  22998023.251   -14453844.77449 -10912309.77246  22998022.420    22998032.367
       219.000         164.000
  22183472.477   -13300905.74349 -10331704.27946  22183472.911    22183480.326
       232.000         186.000
 99  6 16  3 38 30.0000000  0  8G 1G16G29G15G25G21G22G14
  21107726.614      448393.98049    365165.90047  21107726.315    21107733.441
       243.000         209.000
  24505770.033    -1704042.93849  -1308303.41745  24505770.158    24505779.904
       210.000         140.000
  23680608.764    12629578.18649   9841880.27145  23680608.566    23680617.948
       213.000         156.000
  20931231.203     -249858.40049   -177080.10647  20931230.880    20931238.904
       241.000         206.000
  20987494.221    -2935949.71749  -2269936.10247  20987494.190    20987500.364
       243.000         211.000
  23952442.081    12388754.82849   9656091.23145  23952442.349    23952454.324
       207.000         141.000
  22980951.487   -14543556.51649 -10982214.84146  22980950.529    22980960.907
       220.000         165.000
  22168227.553   -13381018.06049 -10394129.39746  22168227.895    22168235.601
       231.000         185.000
 99  6 16  3 39  0.0000000  0  8G 1G16G29G15G25G21G22G14
  21113027.654      476250.99549    386872.67147  21113027.575    21113034.472
       244.000         209.000
  24487746.278    -1798758.30849  -1382107.65745  24487744.417    24487755.222
       202.000         141.000
  23693138.918    12695425.86049   9893190.11245  23693137.762    23693147.327
       212.000         152.000
  20939682.593     -205446.12749   -142473.15047  20939682.150    20939689.960
       241.000         206.000
  20995888.709    -2891836.25049  -2235561.96347  20995888.859    20995894.759
       244.000         211.000
  23969964.573    12480836.01349   9727842.70445  23969963.839    23969976.401
       208.000         139.000
  22963905.876   -14633131.00049 -11052012.97246  22963904.300    22963914.232
       218.000         164.000
  22153004.426   -13461015.57249 -10456465.05446  22153004.374    22153012.225
       232.000         185.000
 99  6 16  3 39 30.0000000  0  8G 1G16G29G15G25G21G22G14
  21118350.679      504223.67349    408669.56547  21118350.540    21118357.209
       243.000         208.000
  24469710.822    -1893534.63249  -1455959.28845  24469709.742    24469721.638
       208.000         141.000
  23705672.734    12761290.75049   9944513.42745  23705673.494    23705680.348
       214.000         152.000
  20948234.861     -160503.61949   -107453.02347  20948234.149    20948242.449
       240.000         206.000
  21004351.307    -2847364.79749  -2200908.87547  21004351.280    21004357.525
       243.000         211.000
  23987525.710    12573119.97949   9799752.17845  23987525.951    23987536.801
       208.000         141.000
  22946882.632   -14722587.43549 -11121719.11746  22946881.964    22946892.533
       220.000         165.000
  22137802.372   -13540902.62349 -10518714.65446  22137802.168    22137809.829
       233.000         185.000
 99  6 16  3 40  0.0000000  0  8G 1G16G29G15G25G21G22G14
  21123699.521      532331.75749    430571.97447  21123699.077    21123706.302
       243.000         208.000
  24451666.214    -1988359.72249  -1529849.07845  24451665.744    24451676.648
       207.000         140.000
  23718212.385    12827186.90949   9995861.09445  23718212.523    23718221.790
       213.000         155.000
  20956891.770     -115010.88149    -72004.15247  20956891.196    20956899.094
       241.000         206.000
  21012888.823    -2802499.72249  -2165949.07347  21012888.920    21012895.074
       244.000         211.000
  24005132.098    12665641.91049   9871847.08045  24005131.593    24005144.785
       208.000         140.000
  22929883.834   -14811916.17149 -11191325.75646  22929883.132    22929892.521
       217.000         165.000
  22122622.874   -13620671.11249 -10580871.87346  22122622.507    22122630.941
       233.000         186.000
 99  6 16  3 40 30.0000000  0  8G 1G16G29G15G25G21G22G14
  21129081.615      560614.85549    452610.75847  21129081.341    21129088.318
       243.000         208.000
  24433617.131    -2083208.09649  -1603756.89645  24433616.679    24433627.504
       209.000         145.000
  23730758.589    12893118.71649  10047236.50745  23730757.518    23730767.288
       210.000         153.000
  20965658.099      -68943.82549    -36107.75747  20965657.667    20965665.653
       241.000         206.000
  21021509.900    -2757195.73949  -2130647.26247  21021509.782    21021515.848
       243.000         211.000
  24022789.943    12758433.58449   9944152.19345  24022789.519    24022801.164
       207.000         142.000
  22912914.080   -14901091.27249 -11260812.67846  22912913.710    22912923.309
       219.000         165.000
  22107470.389   -13700298.22749 -10642918.92346  22107470.487    22107478.140
       233.000         187.000
 99  6 16  3 41  0.0000000  0  8G 1G16G29G15G25G21G22G14
  21134495.445      589064.83949    474779.58747  21134495.173    21134502.197
       243.000         209.000
  24415564.726    -2178074.09249  -1677678.43645  24415563.387    24415574.179
       206.000         140.000
  23743309.429    12959075.14049  10098631.09045  23743309.199    23743318.050
       213.000         151.000
  20974534.732      -22297.20749       240.23647  20974534.252    20974542.285
       241.000         206.000
  21030218.098    -2711433.47949  -2094988.35247  21030218.183    21030224.427
       244.000         211.000
  24040498.198    12851491.10649  10016664.43945  24040498.319    24040509.886
       212.000         140.000
  22895977.169   -14990094.94849 -11330166.02846  22895975.976    22895986.947
       217.000         165.000
  22092347.047   -13779771.71049 -10704846.25346  22092347.006    22092354.375
       231.000         187.000
 99  6 16  3 41 30.0000000  0  8G 1G16G29G15G25G21G22G14
  21139942.009      617686.41049    497082.11647  21139941.803    21139948.829
       244.000         208.000
  24397516.403    -2272919.01049  -1751583.62745  24397517.140    24397526.874
       214.000         145.000
  23755864.722    13025052.68249  10150042.20945  23755865.586    23755871.611
       214.000         151.000
  20983524.245       24942.86749     37050.67147  20983523.679    20983532.080
       240.000         205.000
  21039017.337    -2665193.25549  -2058957.00847  21039017.571    21039023.654
       243.000         211.000
  24058263.137    12944845.67149  10089408.12445  24058262.491    24058274.342
       208.000         140.000
  22879078.713   -15078896.07449 -11399361.53446  22879078.653    22879087.714
       221.000         166.000
  22077255.579   -13859077.12149 -10766642.62046  22077255.904    22077263.311
       231.000         187.000
 99  6 16  3 42  0.0000000  0  8G 1G16G29G15G25G21G22G14
  21145417.056      646457.99349    519501.53947  21145416.763    21145423.739
       243.000         209.000
  24379471.015    -2367748.69449  -1825476.84245  24379470.384    24379480.699
       207.000         143.000
  23768420.699    13091034.45749  10201456.58845  23768420.325    23768428.235
       211.000         151.000
  20992622.134       72752.75549     74305.11047  20992621.570    20992629.977
       240.000         205.000
  21047899.384    -2618517.76749  -2022586.49447  21047899.402    21047905.625
       243.000         211.000
  24076081.124    13038479.42849  10162369.49345  24076081.196    24076092.148
       208.000         137.000
  22862218.097   -15167499.90849 -11468403.34246  22862217.246    22862226.866
       219.000         166.000
  22062194.739   -13938222.11149 -10828313.99246  22062194.541    22062202.870
       233.000         186.000
 99  6 16  3 42 30.0000000  0  8G 1G16G29G15G25G21G22G14
  21150916.727      675359.03249    542021.84247  21150916.485    21150923.575
       243.000         208.000
  24361428.823    -2462560.15249  -1899355.90145  24361427.854    24361438.280
       207.000         144.000
  23780977.253    13157020.23749  10252874.04245  23780977.522    23780985.957
       210.000         152.000
  21001824.802      121113.58349    111988.85047  21001824.240    21001832.535
       240.000         205.000
  21056857.163    -2571444.43649  -1985905.96847  21056857.201    21056863.377
       243.000         211.000
  24093946.447    13132362.81349  10235525.22145  24093945.738    24093959.899
       208.000         143.000
  22845394.151   -15255909.35549 -11537293.63046  22845393.343    22845403.669
       220.000         166.000
  22047166.738   -14017194.34649 -10889850.72746  22047166.304    22047174.654
       232.000         187.000
 99  6 16  3 43  0.0000000  0  8G 1G16G29G15G25G21G22G14
  21156434.058      704352.82949    564614.42847  21156433.776    21156440.708
       243.000         208.000
  24343386.120    -2557374.49449  -1973237.07745  24343385.535    24343397.106
       211.000         147.000
  23793533.317    13223003.44249  10304289.48545  23793533.040    23793542.069
       212.000         152.000
  21011127.272      169997.99549    150080.57947  21011126.920    21011134.793
       240.000         205.000
  21065885.002    -2524002.83949  -1948938.48747  21065885.271    21065890.940
       244.000         211.000
  24111852.121    13226457.81749  10308845.84245  24111852.342    24111862.544
       211.000         140.000
  22828604.089   -15344142.03449 -11606046.22546  22828603.497    22828613.369
       219.000         168.000
  22032166.882   -14096019.04749 -10951272.52647  22032167.118    22032174.696
       232.000         188.000
 99  6 16  3 43 30.0000000  0  8G 1G16G29G15G25G21G22G14
  21161970.719      733448.33249    587286.26247  21161970.523    21161977.536
       243.000         208.000
  24325340.929    -2652202.67849  -2047129.14545  24325340.877    24325350.564
       212.000         145.000
  23806088.083    13288978.17249  10355698.36345  23806088.468    23806096.320
       213.000         151.000
  21020526.722      219392.44349    188569.74647  21020526.223    21020534.567
       240.000         204.000
  21074978.278    -2476217.45249  -1911703.11747  21074978.066    21074984.499
       244.000         210.000
  24129798.833    13320767.26949  10382333.75845  24129799.597    24129810.802
       207.000         135.000
  22811845.520   -15432207.89049 -11674668.81346  22811844.469    22811853.658
       221.000         166.000
  22017192.492   -14174710.08949 -11012590.15347  22017192.515    22017200.447
       232.000         189.000
 99  6 16  3 44  0.0000000  0  8G 1G16G29G15G25G21G22G14
  21167527.259      762648.35049    610039.54247  21167527.056    21167533.767
       243.000         208.000
  24307290.884    -2747056.09949  -2121040.79245  24307290.313    24307299.859
       211.000         143.000
  23818640.640    13354941.64949  10407098.48445  23818640.149    23818647.600
       210.000         148.000
  21030022.273      269292.00649    227452.50447  21030021.759    21030029.780
       241.000         204.000
  21084136.154    -2428092.38149  -1874203.05847  21084136.396    21084142.496
       243.000         210.000
  24147784.605    13415282.39449  10455981.74845  24147785.046    24147798.235
       211.000         143.000
  22795116.504   -15520119.31049 -11743171.05246  22795114.940    22795126.042
       220.000         168.000
  22002244.341   -14253263.10849 -11073800.22847  22002243.874    22002252.164
       232.000         190.000
 99  6 16  3 44 30.0000000  0  8G 1G16G29G15G25G21G22G14
  21173104.364      791956.44149    632877.02347  21173104.245    21173111.023
       243.000         208.000
  24289237.883    -2841925.08049  -2194964.57245  24289237.501    24289247.955
       209.000         149.000
  23831192.873    13420904.57949  10458498.15045  23831192.908    23831201.629
       211.000         148.000
  21039616.267      319708.44349    266738.01547  21039615.807    21039624.128
       240.000         204.000
  21093364.999    -2379594.55349  -1836412.54147  21093365.147    21093371.174
       243.000         210.000
  24165809.709    13510003.54549  10529790.33945  24165811.117    24165821.715
       210.000         146.000
  22778418.435   -15607867.34249 -11811545.96646  22778416.980    22778426.975
       220.000         168.000
  21987322.178   -14331679.34349 -11134903.70947  21987321.794    21987330.229
       232.000         190.000
 99  6 16  3 45  0.0000000  0  8G 1G16G29G15G25G21G22G14
  21178707.877      821403.08349    655822.46747  21178707.696    21178714.495
       243.000         208.000
  24271183.326    -2936802.14149  -2268894.63145  24271182.650    24271193.359
       207.000         146.000
  23843744.818    13486865.59749  10509896.29445  23843745.009    23843754.452
       214.000         152.000
  21049312.891      370664.73349    306444.18947  21049312.564    21049320.685
       239.000         204.000
  21102670.749    -2330692.29849  -1798306.88747  21102670.855    21102677.034
       243.000         210.000
  24183877.622    13604951.50749  10603775.66945  24183877.900    24183887.708
       206.000         137.000
  22761755.206   -15695432.95149 -11879778.76846  22761753.676    22761763.760
       220.000         167.000
  21972426.237   -14409957.40449 -11195899.53947  21972425.916    21972434.061
       231.000         190.000
 99  6 16  3 45 30.0000000  0  8G 1G16G29G15G25G21G22G14
  21184343.434      851018.07249    678899.09247  21184343.194    21184350.359
       243.000         208.000
  24253130.381    -3031670.63149  -2342817.98545  24253130.227    24253140.171
       211.000         145.000
  23856301.409    13552850.99949  10561313.44445  23856301.216    23856309.932
       211.000         152.000
  21059117.702      422189.25549    346593.14047  21059117.396    21059125.377
       239.000         204.000
  21112055.656    -2281374.38449  -1759877.34147  21112055.768    21112061.945
       243.000         210.000
  24201992.984    13700147.86949  10677954.60445  24201993.369    24202005.171
       211.000         139.000
  22745130.727   -15782793.65449 -11947851.88046  22745130.124    22745139.890
       222.000         169.000
  21957565.159   -14488052.87749 -11256753.06447  21957564.904    21957573.031
       234.000         190.000
 99  6 16  3 46  0.0000000  0  8G 1G16G29G15G25G21G22G14
  21190005.530      880772.52049    702084.38447  21190005.405    21190012.134
       243.000         208.000
  24235076.358    -3126545.21049  -2416746.12245  24235075.976    24235086.065
       209.000         147.000
  23868862.456    13618859.85749  10612748.90945  23868863.240    23868869.399
       211.000         148.000
  21069027.864      474267.60449    387173.64847  21069027.786    21069035.343
       241.000         204.000
  21121517.493    -2231652.22149  -1721132.79347  21121517.458    21121523.539
       243.000         210.000
  24220148.682    13795556.40249  10752298.83145  24220148.950    24220161.011
       207.000         142.000
  22728542.388   -15869964.81149 -12015777.29546  22728541.708    22728551.333
       221.000         168.000
  21942738.504   -14565967.41849 -11317465.61147  21942738.039    21942746.108
       232.000         191.000
 99  6 16  3 46 30.0000000  0  8G 1G16G29G15G25G21G22G14
  21195695.405      910672.97749    725383.45447  21195694.986    21195702.075
       243.000         208.000
  24217021.268    -3221424.68849  -2490677.98145  24217020.466    24217030.430
       207.000         145.000
  23881431.126    13684908.70049  10664215.51645  23881431.979    23881439.518
       211.000         148.000
  21079045.316      526909.18949    428193.04047  21079044.961    21079052.849
       240.000         204.000
  21131056.617    -2181523.79349  -1682071.67847  21131056.704    21131062.767
       243.000         209.000
  24238346.791    13891189.86049  10826818.24645  24238346.052    24238359.119
       205.000         140.000
  22711995.294   -15956920.15649 -12083534.55346  22711993.974    22712003.514
       221.000         169.000
  21927949.727   -14643682.54749 -11378022.76547  21927948.977    21927957.350
       231.000         191.000
 99  6 16  3 47  0.0000000  0  8G 1G16G29G15G25G21G22G14
  21201412.763      940718.16049    748795.29647  21201412.418    21201419.705
       243.000         208.000
  24198964.091    -3316315.24749  -2564618.55945  24198963.576    24198974.039
       211.000         146.000
  23894007.441    13750996.98049  10715712.83745  23894008.092    23894015.289
       211.000         149.000
  21089168.714      580107.53349    469646.26747  21089168.143    21089176.514
       240.000         203.000
  21140668.718    -2131011.67949  -1642711.58647  21140668.770    21140675.030
       242.000         209.000
  24256589.489    13987055.28649  10901518.48845  24256590.492    24256599.992
       210.000         138.000
  22695490.648   -16043652.50249 -12151118.04146  22695490.249    22695499.963
       223.000         170.000
  21913202.097   -14721181.10449 -11438411.16847  21913201.826    21913209.848
       233.000         191.000
 99  6 16  3 47 30.0000000  0  8G 1G16G29G15G25G21G22G14
  21207149.443      970864.49749    772285.96047  21207149.276    21207156.055
       242.000         208.000
  24180900.535    -3411239.47849  -2638585.37045  24180899.971    24180909.715
       210.000         147.000
  23906588.344    13817109.41849  10767228.97545  23906589.153    23906596.566
       212.000         152.000
  21099390.027      633821.10749    511500.97647  21099389.806    21099397.905
       240.000         203.000
  21150346.105    -2080156.84049  -1603084.43347  21150345.920    21150352.251
       242.000         209.000
  24274870.955    14083123.39449  10976376.75245  24274870.847    24274883.818
       209.000         141.000
  22679023.136   -16130189.88249 -12218549.61546  22679021.600    22679031.896
       221.000         169.000
  21898493.000   -14798477.40449 -11498641.93947  21898492.839    21898500.751
       234.000         191.000
 99  6 16  3 48  0.0000000  0  7G 1G16G29G15G25G22G14
  21212908.060     1001126.51149    795866.75747  21212907.720    21212914.867
       243.000         208.000
  24162836.275    -3506167.44749  -2712555.04645  24162836.366    24162846.428
       211.000         149.000
  23919172.649    13883239.79949  10818759.08045  23919173.361    23919180.813
       211.000         150.000
  21109710.166      688053.80749    553760.19247  21109709.832    21109717.845
       239.000         203.000
  21160093.327    -2028934.38149  -1563170.82947  21160093.312    21160099.745
       243.000         209.000
  22662595.999   -16216514.40049 -12285815.32146  22662594.562    22662604.678
       220.000         170.000
  21883823.827   -14875564.31049 -11558709.56847  21883824.114    21883831.392
       233.000         192.000
 99  6 16  3 48 30.0000000  0  7G 1G16G29G15G25G22G14
  21218686.944     1031494.91749    819530.46147  21218686.579    21218693.712
       243.000         207.000
  24144769.745    -3601107.30249  -2786534.04745  24144769.194    24144779.700
       213.000         151.000
  23931755.111    13949361.60549  10870282.55645  23931755.590    23931762.329
       209.000         147.000
  21120125.276      742785.47549    596408.21547  21120124.952    21120132.955
       240.000         203.000
  21169907.812    -1977359.03949  -1522982.24747  21169907.948    21169913.949
       242.000         209.000
  22646207.037   -16302637.46349 -12352924.05946  22646206.557    22646216.394
       223.000         170.000
  21869190.935   -14952460.57649 -11618628.64547  21869190.704    21869198.888
       234.000         192.000
 99  6 16  3 49  0.0000000  0  7G 1G16G29G15G25G22G14
  21224483.028     1061953.50949    843264.44047  21224482.826    21224489.736
       243.000         207.000
  24126701.280    -3696056.41849  -2860520.29945  24126700.553    24126710.374
       205.000         148.000
  23944331.722    14015452.56349  10921781.96145  23944331.045    23944340.753
       209.000         148.000
  21130631.993      797998.26249    639431.13547  21130631.658    21130639.579
       239.000         203.000
  21179787.205    -1925442.38849  -1482527.70847  21179787.368    21179793.453
       243.000         209.000
  22629853.673   -16388574.29649 -12419887.68146  22629853.508    22629862.115
       222.000         170.000
  21854590.988   -15029183.36449 -11678412.56247  21854590.722    21854597.984
       233.000         192.000
 99  6 16  3 49 30.0000000  0  7G 1G16G29G15G25G22G14
  21230301.388     1092529.47149    867089.87347  21230301.078    21230308.202
       243.000         207.000
  24108634.741    -3790996.15349  -2934499.20045  24108634.430    24108644.231
       211.000         151.000
  23956904.296    14081521.77049  10973264.41845  23956904.700    23956912.491
       213.000         149.000
  21141233.462      853709.79949    682842.69147  21141233.189    21141241.341
       239.000         203.000
  21189733.776    -1873172.86149  -1441798.20447  21189733.912    21189739.970
       242.000         209.000
  22613538.645   -16474309.78549 -12486694.40046  22613537.933    22613547.130
       223.000         170.000
  21840025.155   -15105726.60549 -11738056.56647  21840024.885    21840032.195
       233.000         192.000
 99  6 16  3 50  0.0000000  0  7G 1G16G29G15G25G22G14
  21236146.905     1123247.98349    891026.39247  21236146.552    21236153.743
       242.000         207.000
  24090572.519    -3885913.86449  -3008460.97345  24090571.964    24090582.479
       211.000         151.000
  23969476.037    14147586.29849  11024743.25345  23969475.957    23969483.736
       210.000         149.000
  21151934.153      909941.93549    726659.91047  21151933.891    21151941.891
       240.000         203.000
  21199750.976    -1820532.09049  -1400779.41647  21199750.968    21199757.107
       242.000         208.000
  22597267.168   -16559816.68449 -12553323.02046  22597265.768    22597275.848
       219.000         171.000
  21825495.787   -15182078.35849 -11797551.34447  21825495.564    21825503.563
       233.000         192.000
 99  6 16  3 50 30.0000000  0  7G 1G16G29G15G25G22G14
  21242017.386     1154097.71649    915065.15447  21242017.207    21242024.288
       243.000         207.000
  24072513.728    -3980812.79449  -3082408.15145  24072513.486    24072523.150
       214.000         150.000
  23982050.388    14213665.53449  11076233.53345  23982050.812    23982059.526
       211.000         148.000
  21162733.790      966694.14849    770882.37947  21162733.315    21162741.463
       239.000         203.000
  21209836.729    -1767531.21349  -1359480.02347  21209836.915    21209842.970
       242.000         208.000
  22581039.740   -16645091.23649 -12619770.57246  22581039.232    22581048.086
       222.000         171.000
  21811003.174   -15258237.27249 -11856895.89547  21811003.177    21811010.739
       235.000         193.000
 99  6 16  3 51  0.0000000  0  7G 1G16G29G15G25G22G14
  21247909.689     1185061.97349    939193.15447  21247909.598    21247916.376
       243.000         207.000
  24054455.059    -4075712.68249  -3156356.11645  24054454.738    24054464.680
       210.000         152.000
  23994626.660    14279754.30049  11127731.23845  23994626.236    23994635.053
       209.000         149.000
  21173630.344     1023955.82849    815501.82947  21173630.111    21173638.371
       239.000         202.000
  21219988.220    -1714184.56649  -1317911.20247  21219988.458    21219994.578
       243.000         208.000
  22564855.287   -16730140.23249 -12686042.36846  22564853.767    22564864.241
       222.000         170.000
  21796545.102   -15334214.91149 -11916099.18147  21796544.696    21796552.293
       235.000         193.000
 99  6 16  3 51 30.0000000  0  7G 1G16G29G15G25G22G14
  21253827.920     1216162.43949    963427.29847  21253827.771    21253834.567
       242.000         207.000
  24036398.163    -4170601.90149  -3230295.74345  24036398.028    24036407.591
       212.000         150.000
  24007208.453    14345871.66949  11179251.25345  24007208.106    24007216.171
       212.000         148.000
  21184625.067     1081733.24449    860523.15847  21184624.490    21184632.963
       238.000         202.000
  21230208.414    -1660476.98049  -1276061.12547  21230208.532    21230214.625
       242.000         208.000
  22548716.227   -16814950.86949 -12752128.43346  22548714.860    22548725.471
       221.000         171.000
  21782122.805   -15410004.42649 -11975155.88447  21782122.910    21782130.449
       235.000         194.000
 99  6 16  3 52  0.0000000  0  7G 1G16G29G15G25G22G14
  21259768.948     1247382.78549    987754.85347  21259768.698    21259775.668
       242.000         207.000
  24018345.318    -4265470.79649  -3304219.56945  24018345.425    24018354.741
       213.000         151.000
  24019795.186    14412014.64249  11230791.24545  24019795.911    24019803.635
       213.000         148.000
  21195715.277     1140012.88849    905935.84147  21195714.802    21195723.173
       239.000         202.000
  21240499.433    -1606397.30149  -1233921.10247  21240499.448    21240505.717
       243.000         208.000
  22532621.005   -16899531.00849 -12818034.89246  22532620.232    22532629.461
       222.000         171.000
  21767735.057   -15485612.69049 -12034071.35547  21767734.881    21767742.702
       235.000         193.000
 99  6 16  3 52 30.0000000  0  7G 1G16G29G15G25G22G14
  21265731.984     1278718.99549   1012172.68847  21265731.810    21265738.627
       243.000         207.000
  24000297.959    -4360310.07649  -3378120.31545  24000297.650    24000307.300
       213.000         151.000
  24032384.422    14478171.71049  11282342.21145  24032384.137    24032393.236
       207.000         147.000
  21206899.927     1198788.77649    951735.20447  21206899.309    21206907.783
       238.000         201.000
  21250860.014    -1551952.27049  -1191496.39547  21250859.976    21250866.200
       242.000         208.000
  22516569.195   -16983883.32949 -12883763.82746  22516569.313    22516578.205
       223.000         172.000
  21753381.573   -15561040.22249 -12092846.00447  21753381.058    21753389.224
       236.000         193.000
 99  6 16  3 53  0.0000000  0  7G 1G16G29G15G25G22G14
  21271719.646     1310184.26049   1036691.08247  21271719.565    21271726.246
       242.000         207.000
  23982258.447    -4455108.26349  -3451989.05845  23982256.919    23982267.886
       213.000         150.000
  24044975.511    14544338.66749  11333900.84645  24044976.979    24044984.715
       212.000         148.000
  21218180.194     1258067.30349    997926.23647  21218180.080    21218188.089
       238.000         201.000
  21261291.831    -1497132.47849  -1148779.66647  21261292.034    21261298.079
       242.000         208.000
  22500564.555   -17067987.79549 -12949299.61246  22500563.904    22500572.919
       223.000         172.000
  21739064.296   -15636278.03049 -12151472.83047  21739064.019    21739071.496
       235.000         193.000
 99  6 16  3 53 30.0000000  0  7G 1G16G29G15G25G22G14
  21277731.020     1341774.18949   1061306.61747  21277730.734    21277737.771
       242.000         206.000
  23964228.889    -4549853.86649  -3525816.78445  23964228.780    23964237.554
       214.000         151.000
  24057567.022    14610506.11549  11385459.92445  24057567.273    24057574.833
       212.000         150.000
  21229554.141     1317837.46449   1044500.36747  21229553.606    21229562.062
       238.000         201.000
  21271793.273    -1441947.03049  -1105778.01247  21271793.524    21271799.553
       242.000         208.000
  22484607.212   -17151843.47649 -13014641.57746  22484606.791    22484615.226
       222.000         171.000
  21724782.240   -15711330.39149 -12209955.13347  21724781.846    21724789.357
       237.000         194.000
 99  6 16  3 54  0.0000000  0  7G 1G16G29G15G25G22G14
  21283760.676     1373460.38049   1085997.16247  21283760.519    21283767.407
       242.000         206.000
  23946205.124    -4644569.31649  -3599621.06345  23946205.437    23946215.159
       213.000         151.000
  24070154.913    14676655.97649  11437005.29945  24070154.359    24070163.003
       207.000         148.000
  21241018.679     1378083.79049   1091445.52447  21241018.659    21241026.846
       238.000         201.000
  21282359.362    -1386421.90449  -1062511.67547  21282359.559    21282365.683
       242.000         208.000
  22468695.669   -17235458.13849 -13079795.70446  22468695.426    22468703.855
       223.000         172.000
  21710534.613   -15786201.89349 -12268296.54147  21710534.540    21710542.118
       235.000         194.000
 99  6 16  3 54 30.0000000  0  7G 1G16G29G15G25G22G14
  21289807.992     1405239.31849   1110759.98447  21289807.843    21289814.784
       242.000         206.000
  23928183.608    -4739273.63249  -3673416.65845  23928182.694    23928193.556
       215.000         150.000
  24082741.458    14742800.13449  11488546.17045  24082742.195    24082749.438
       210.000         147.000
  21252573.929     1438807.28849   1138762.50947  21252573.619    21252581.803
       238.000         201.000
  21292987.428    -1330571.06749  -1018991.53547  21292987.591    21292993.560
       242.000         207.000
  22452833.206   -17318816.08749 -13144749.81446  22452832.148    22452841.538
       221.000         172.000
  21696324.646   -15860875.56849 -12326483.78447  21696324.737    21696331.783
       236.000         194.000
 99  6 16  3 55  0.0000000  0  7G 1G16G29G15G25G22G14
  21295873.990     1437116.35549   1135599.24347  21295873.693    21295880.822
       242.000         206.000
  23910162.579    -4833974.63249  -3747209.63245  23910161.809    23910170.887
       216.000         152.000
  24095330.598    14808956.21749  11540096.43145  24095330.750    24095338.994
       210.000         147.000
  21264219.649     1500005.87649   1186449.69947  21264219.387    21264227.687
       239.000         201.000
  21303676.696    -1274398.62749   -975220.79347  21303676.751    21303682.772
       242.000         207.000
  22437020.766   -17401909.52249 -13209497.79646  22437019.625    22437029.858
       222.000         172.000
  21682153.566   -15935344.95849 -12384511.82947  21682153.338    21682161.025
       236.000         195.000
 99  6 16  3 55 30.0000000  0  7G 1G16G29G15G25G22G14
  21301957.372     1469084.64949   1160509.60847  21301957.022    21301964.064
       243.000         206.000
  23892138.917    -4928689.31349  -3821013.23345  23892138.976    23892148.619
       216.000         152.000
  24107922.770    14875128.97349  11591659.63245  24107922.932    24107931.364
       210.000         147.000
  21275953.764     1561668.66849   1234498.60547  21275953.744    21275961.735
       239.000         200.000
  21314424.054    -1217920.77849   -931212.06947  21314424.161    21314430.433
       242.000         207.000
  22421255.421   -17484757.04249 -13274054.17546  22421254.738    22421263.964
       223.000         172.000
  21668020.576   -16009614.26449 -12442383.97347  21668020.252    21668027.991
       236.000         195.000
 99  6 16  3 56  0.0000000  0  7G 1G16G29G15G25G22G14
  21308060.039     1501154.39149   1185499.03047  21308059.867    21308066.696
       242.000         206.000
  23874112.191    -5023420.71449  -3894829.87345  23874112.066    23874122.383
       218.000         153.000
  24120520.115    14941328.04949  11643243.33445  24120520.331    24120529.027
       208.000         149.000
  21287776.659     1623797.82249   1282910.90147  21287776.539    21287784.421
       239.000         200.000
  21325229.190    -1161139.43649   -886966.86347  21325229.251    21325235.231
       242.000         207.000
  22405536.385   -17567360.45349 -13338420.31046  22405535.181    22405544.598
       224.000         173.000
  21653928.745   -16083667.13949 -12500087.46347  21653928.957    21653936.440
       236.000         195.000
 99  6 16  3 56 30.0000000  0  7G 1G16G29G15G25G22G14
  21314185.874     1533346.02649   1210583.43147  21314185.646    21314192.771
       242.000         206.000
  23856085.329    -5118151.35149  -3968645.87245  23856084.376    23856094.492
       213.000         153.000
  24133125.439    15007570.02049  11694860.44445  24133125.735    24133133.881
       208.000         148.000
  21299689.519     1686400.74049   1331692.38347  21299689.092    21299697.182
       238.000         200.000
  21336093.566    -1104046.66049   -842478.97947  21336093.730    21336099.682
       242.000         207.000
  22389863.504   -17649721.75749 -13402597.80146  22389862.840    22389871.590
       224.000         174.000
  21639880.815   -16157489.35649 -12557611.21047  21639880.832    21639887.978
       236.000         195.000
 99  6 16  3 57  0.0000000  0  7G 1G16G29G15G25G22G14
  21320335.180     1565661.02349   1235763.95247  21320335.109    21320342.033
       242.000         206.000
  23838060.557    -5212871.05449  -4042453.35545  23838060.524    23838070.232
       218.000         152.000
  24145735.740    15073837.68349  11746497.58645  24145736.205    24145743.859
       209.000         146.000
  21311691.200     1749469.83949   1380837.10847  21311690.714    21311699.150
       238.000         200.000
  21347018.384    -1046636.47749   -797743.76547  21347018.227    21347024.501
       242.000         207.000
  22374235.129   -17731848.71349 -13466592.68946  22374234.450    22374244.376
       224.000         173.000
  21625874.513   -16231092.62249 -12614964.33347  21625874.439    21625881.687
       237.000         195.000
 99  6 16  3 57 30.0000000  0  7G 1G16G29G15G25G22G14
  21326510.245     1598110.91549   1261049.59047  21326509.964    21326516.960
       241.000         206.000
  23820043.774    -5307549.29449  -4116228.47345  23820043.147    23820053.905
       215.000         153.000
  24158352.763    15140140.12149  11798161.87945  24158352.850    24158361.334
       212.000         145.000
  21323784.676     1813021.49649   1430357.85547  21323784.161    21323792.559
       237.000         199.000
  21358008.500     -988882.73549   -752740.84447  21358008.618    21358014.648
       242.000         206.000
  22358654.470   -17813725.02649 -13530392.26946  22358653.606    22358662.161
       224.000         174.000
  21611913.927   -16304455.68649 -12672130.27847  21611913.913    21611921.515
       239.000         196.000
 99  6 16  3 58  0.0000000  0  7G 1G16G29G15G25G22G14
  21332710.074     1630691.29649   1286436.91347  21332709.702    21332716.988
       241.000         205.000
  23802036.519    -5402177.57349  -4189964.67245  23802036.233    23802046.142
       216.000         152.000
  24170974.286    15206465.57549  11849844.08245  24170973.783    24170983.801
       209.000         148.000
  21335969.155     1877051.29749   1480251.18447  21335968.806    21335977.065
       237.000         199.000
  21369065.317     -930778.86149   -707465.08847  21369065.354    21369071.428
       242.000         206.000
  22343122.523   -17895345.54049 -13593992.51746  22343121.629    22343130.213
       223.000         174.000
  21597998.899   -16377579.37649 -12729109.69147  21597998.837    21598006.460
       238.000         196.000
 99  6 16  3 58 30.0000000  0  7G 1G16G29G15G25G22G14
  21338933.347     1663394.63949   1311920.04947  21338933.064    21338940.016
       241.000         205.000
  23784039.925    -5496750.47949  -4263657.74945  23784039.302    23784049.560
       214.000         152.000
  24183600.449    15272817.58349  11901546.89845  24183599.782    24183609.445
       207.000         147.000
  21348245.061     1941561.46149   1530518.82247  21348244.618    21348252.988
       238.000         199.000
  21380190.876     -872313.75049   -661907.85647  21380190.682    21380197.293
       241.000         206.000
  22327643.031   -17976690.31349 -13657377.90646  22327642.415    22327651.601
       224.000         174.000
  21584128.184   -16450470.07949 -12785907.56847  21584128.429    21584135.537
       239.000         197.000
 99  6 16  3 59  0.0000000  0  7G 1G16G29G15G25G22G14
  21345178.567     1696213.49549   1337493.19347  21345178.580    21345185.229
       242.000         205.000
  23766052.864    -5591272.64649  -4337311.20445  23766053.404    23766061.819
       214.000         152.000
  24196230.608    15339189.96749  11953265.60645  24196231.148    24196237.954
       210.000         147.000
  21360611.954     2006549.87649   1581159.12447  21360611.806    21360619.917
       238.000         199.000
  21391385.050     -813488.00049   -616069.59747  21391385.112    21391390.934
       241.000         206.000
  22312219.279   -18057742.30849 -13720535.16046  22312218.213    22312227.380
       224.000         175.000
  21570299.542   -16523139.94649 -12842533.33847  21570299.153    21570306.706
       239.000         197.000
 99  6 16  3 59 30.0000000  0  7G 1G16G29G15G25G22G14
  21351444.745     1729142.21349   1363151.95047  21351444.423    21351451.111
       241.000         205.000
  23748073.814    -5685752.98649  -4410932.10845  23748073.051    23748082.390
       213.000         152.000
  24208864.341    15405580.90749  12004998.86545  24208864.792    24208872.212
       209.000         144.000
  21373068.864     2072011.10849   1632167.85147  21373068.423    21373076.650
       238.000         198.000
  21402645.011     -754316.39049   -569961.84147  21402645.107    21402651.280
       241.000         206.000
  22296851.554   -18138499.36449 -13783462.58446  22296850.701    22296858.903
       226.000         175.000
  21556513.543   -16595585.80849 -12898984.56847  21556513.496    21556520.540
       239.000         198.000
 99  6 16  4  0  0.0000000  0  7G 1G16G29G15G25G22G14
  21357732.551     1762184.85449   1388899.48247  21357732.120    21357739.127
       241.000         205.000
  23730102.255    -5780193.13349  -4484521.67045  23730101.782    23730111.903
       214.000         153.000
  24221500.899    15471987.05049  12056743.95645  24221500.024    24221509.792
       206.000         141.000
  21385615.635     2137945.06449   1683544.94847  21385615.097    21385623.699
       238.000         198.000
  21413970.542     -694800.19649   -523585.57947  21413970.607    21413976.695
       241.000         206.000
  22281541.438   -18218954.13449 -13846154.46546  22281539.791    22281549.078
       224.000         176.000
  21542771.047   -16667802.89749 -12955257.52847  21542770.680    21542778.109
       240.000         198.000
 99  6 16  4  0 30.0000000  0  7G 1G16G29G15G25G22G14
  21364042.160     1795342.41049   1414736.56247  21364041.762    21364048.773
       241.000         205.000
  23712137.587    -5874598.19449  -4558083.94245  23712136.030    23712146.828
       213.000         153.000
  24234141.434    15538413.99449  12108505.15545  24234141.493    24234151.420
       208.000         146.000
  21398251.597     2204347.26749   1735286.90247  21398251.019    21398259.430
       238.000         198.000
  21425358.839     -634954.43049   -476952.50547  21425359.033    21425364.932
       242.000         205.000
  22266290.163   -18299099.10149 -13908604.94146  22266289.738    22266298.336
       225.000         176.000
  21529071.608   -16739793.30849 -13011353.85947  21529071.244    21529078.764
       239.000         199.000
 99  6 16  4  1  0.0000000  0  7G 1G16G29G15G25G22G14
  21370374.929     1828621.55649   1440668.38347  21370374.697    21370381.572
       241.000         205.000
  23694181.740    -5968956.64149  -4631609.86145  23694181.130    23694191.178
       215.000         153.000
  24246783.938    15604850.11949  12160273.55245  24246785.030    24246792.996
       210.000         150.000
  21410976.045     2271214.67249   1787391.35247  21410975.860    21410984.091
       238.000         198.000
  21436808.219     -574787.63349   -430069.27247  21436808.286    21436814.352
       241.000         205.000
  22251097.295   -18378938.06749 -13970816.98846  22251096.167    22251105.339
       225.000         177.000
  21515417.894   -16811543.71449 -13067263.17547  21515417.406    21515425.020
       238.000         199.000
 99  6 16  4  1 30.0000000  0  7G 1G16G29G15G25G22G14
  21376730.532     1862020.53449   1466693.58747  21376730.178    21376737.001
       240.000         204.000
  23676236.020    -6063261.54149  -4705094.10545  23676235.283    23676244.870
       213.000         154.000
  24259425.540    15671281.28249  12212038.11745  24259425.449    24259433.622
       206.000         145.000
  21423787.239     2338537.60449   1839850.75847  21423786.711    21423794.886
       238.000         197.000
  21448315.876     -514314.41549   -382947.27347  21448316.060    21448322.133
       241.000         205.000
  22235960.647   -18458480.62849 -14032798.04846  22235960.335    22235968.091
       225.000         177.000
  21501811.942   -16883043.06549 -13122976.86747  21501811.775    21501819.165
       239.000         199.000
 99  6 16  4  2  0.0000000  0  7G 1G16G29G15G25G22G14
  21383109.423     1895542.09349   1492814.31447  21383109.042    21383115.765
       240.000         204.000
  23658303.391    -6157498.06349  -4778525.03145  23658303.437    23658312.288
       215.000         154.000
  24272068.622    15737722.14849  12263810.25445  24272066.858    24272076.854
       204.000         140.000
  21436684.447     2406313.07349   1892662.79047  21436684.532    21436692.113
       237.000         197.000
  21459881.005     -453539.41649   -335590.12047  21459880.944    21459886.944
       241.000         205.000
  22220880.974   -18537724.92649 -14094546.71746  22220879.605    22220889.372
       224.000         177.000
  21488253.248   -16954293.93549 -13178496.93047  21488253.392    21488260.270
       239.000         200.000
 99  6 16  4  2 30.0000000  0  7G 1G16G29G15G25G22G14
  21389509.797     1929176.50549   1519022.97447  21389509.701    21389516.491
       241.000         204.000
  23640381.478    -6251678.61749  -4851912.35245  23640380.105    23640390.975
       213.000         155.000
  24284713.302    15804170.54249  12315588.21345  24284714.232    24284721.692
       207.000         143.000
  21449664.413     2474523.14049   1945813.47347  21449663.957    21449672.119
       237.000         197.000
  21471498.752     -392487.25249   -288016.99247  21471498.861    21471504.855
       241.000         204.000
  22205856.285   -18616679.29249 -14156069.45846  22205854.966    22205864.549
       225.000         178.000
  21474739.397   -17025309.47149 -13233833.62447  21474738.898    21474746.663
       239.000         199.000
 99  6 16  4  3  0.0000000  0  7G 1G16G29G15G25G22G14
  21395931.123     1962920.72449   1545317.19847  21395930.835    21395937.464
       241.000         204.000
  23622471.921    -6345793.12049  -4925248.22345  23622472.063    23622479.889
       216.000         155.000
  24297358.539    15870621.13349  12367367.91045  24297359.628    24297368.152
       209.000         144.000
  21462725.627     2543160.19249   1999296.86147  21462725.225    21462733.643
       237.000         196.000
  21483169.677     -331156.03149   -240226.41847  21483169.631    21483175.510
       241.000         204.000
  22190886.149   -18695346.95349 -14217368.80646  22190885.460    22190892.811
       226.000         177.000
  21461270.147   -17096090.33049 -13288987.47647  21461270.092    21461277.290
       239.000         199.000
 99  6 16  4  3 30.0000000  0  7G 1G16G29G15G25G22G14
  21402370.693     1996761.00549   1571686.28447  21402370.437    21402377.216
       240.000         204.000
  23604571.487    -6439859.37049  -4998546.51845  23604570.046    23604578.714
       212.000         155.000
  24310005.744    15937082.29349  12419155.82345  24310004.364    24310013.467
       205.000         143.000
  21475865.086     2612208.35449   2053100.59847  21475864.828    21475872.927
       237.000         196.000
  21494892.914     -269549.76649   -192221.51847  21494892.805    21494899.010
       241.000         204.000
  22175969.311   -18773734.90749 -14278450.18046  22175968.626    22175976.746
       226.000         178.000
  21447841.721   -17166656.70449 -13343974.17747  21447841.578    21447848.509
       238.000         199.000
 99  6 16  4  4  0.0000000  0  7G 1G16G29G15G25G22G14
  21408829.277     2030701.43249   1598133.40147  21408828.896    21408835.822
       240.000         204.000
  23586679.401    -6533882.11449  -5071810.88145  23586679.002    23586688.253
       214.000         157.000
  24322657.326    16003567.55149  12470962.51845  24322657.674    24322665.375
       209.000         143.000
  21489083.215     2681669.98749   2107226.50747  21489082.738    21489090.816
       236.000         196.000
  21506671.833     -207651.16649   -143988.82947  21506671.891    21506677.799
       241.000         204.000
  22161106.962   -18851836.28549 -14339308.24946  22161106.715    22161115.888
       228.000         179.000
  21434453.408   -17237012.35849 -13398796.69147  21434453.297    21434460.379
       239.000         200.000
 99  6 16  4  4 30.0000000  0  7G 1G16G29G15G25G22G14
  21415309.919     2064757.56649   1624670.67847  21415309.810    21415316.524
       241.000         204.000
  23568796.752    -6627856.19249  -5145037.34145  23568796.921    23568806.394
       213.000         157.000
  24335311.452    16070063.97149  12522777.95245  24335312.604    24335320.167
       209.000         146.000
  21502381.138     2751551.10949   2161679.30347  21502380.901    21502389.337
       236.000         196.000
  21518508.552     -145448.63949    -95519.31247  21518508.776    21518514.662
       240.000         204.000
  22146301.068   -18929642.00649 -14399935.95946  22146300.475    22146308.850
       227.000         179.000
  21421107.877   -17307143.35249 -13453444.16947  21421108.155    21421115.081
       239.000         200.000
 99  6 16  4  5  0.0000000  0  7G 1G16G29G15G25G22G14
  21421816.152     2098948.13149   1651312.70547  21421815.756    21421822.702
       240.000         204.000
  23550925.375    -6721770.42449  -5218217.15145  23550924.794    23550935.293
       217.000         160.000
  24347970.206    16136587.23949  12574614.24045  24347969.332    24347979.343
       204.000         142.000
  21515762.607     2821870.96949   2216473.96747  21515762.438    21515770.620
       236.000         196.000
  21530408.506      -82913.94249    -46790.96247  21530408.708    21530414.520
       241.000         203.000
  22131556.508   -19007124.86549 -14460312.07246  22131555.693    22131564.897
       226.000         179.000
  21407809.138   -17377028.66049 -13507900.18647  21407808.942    21407816.495
       238.000         200.000
 99  6 16  4  5 30.0000000  0  7G 1G16G29G15G25G22G14
  21428349.141     2133279.28049   1678064.28347  21428348.743    21428355.489
       240.000         203.000
  23533064.200    -6815630.64449  -5291354.87745  23533063.969    23533073.242
       215.000         160.000
  24360635.342    16203142.96949  12626475.87245  24360636.073    24360642.552
       210.000         138.000
  21529229.032     2892637.45549   2271616.65647  21529228.905    21529236.730
       237.000         195.000
  21542372.276      -20043.91949      2198.67947  21542372.346    21542378.265
       241.000         203.000
  22116875.967   -19084270.80649 -14520425.65346  22116875.186    22116884.240
       227.000         180.000
  21394561.159   -17446646.82849 -13562148.06047  21394561.144    21394568.270
       239.000         200.000
 99  6 16  4  6  0.0000000  0  7G 1G16G29G15G25G22G14
  21434911.368     2167764.10049   1704935.59947  21434911.050    21434918.015
       240.000         203.000
  23515216.689    -6909420.03549  -5364437.42445  23515215.975    23515226.994
       217.000         162.000
  24373306.293    16269727.86749  12678360.31445  24373307.280    24373314.448
       210.000         141.000
  21542781.518     2963855.92249   2327111.53647  21542780.873    21542789.325
       235.000         195.000
  21554397.902       43150.83449     51441.35947  21554397.921    21554403.669
       240.000         203.000
  22102261.501   -19161069.97949 -14580269.04146  22102260.693    22102269.294
       227.000         180.000
  21381367.957   -17515977.34649 -13616171.79747  21381368.447    21381374.727
       238.000         200.000
 99  6 16  4  6 30.0000000  0  7G 1G16G29G15G25G22G14
  21441502.490     2202401.00049   1731925.42147  21441502.257    21441508.990
       240.000         203.000
  23497384.388    -7003128.96149  -5437457.23546  23497384.259    23497394.997
       220.000         164.000
  24385984.395    16336352.42449  12730275.52545  24385983.045    24385994.733
       199.000         141.000
  21556420.206     3035527.74449   2382959.66547  21556420.081    21556428.407
       237.000         195.000
  21566483.358      106660.46549    100929.39747  21566483.154    21566489.421
       240.000         203.000
  22087716.357   -19237504.01449 -14639827.88646  22087715.573    22087723.617
       227.000         180.000
  21368233.052   -17585001.01649 -13669956.42547  21368233.400    21368240.229
       238.000         201.000
 99  6 16  4  7  0.0000000  0  7G 1G16G29G15G25G22G14
  21448114.470     2237147.40449   1759000.56347  21448114.269    21448121.022
       240.000         203.000
  23479565.115    -7096769.96449  -5510424.18646  23479565.555    23479574.328
       217.000         164.000
  24398667.522    16403004.43249  12782212.06845  24398668.733    24398676.263
       205.000         142.000
  21570140.890     3107630.43549   2439143.53047  21570140.622    21570149.124
       236.000         195.000
  21578623.213      170456.10949    150640.30147  21578623.490    21578629.235
       240.000         203.000
  22073237.794   -19313589.06049 -14699114.80146  22073237.186    22073245.461
       229.000         181.000
  21355156.468   -17653718.71749 -13723502.64847  21355156.483    21355163.792
       239.000         201.000
 99  6 16  4  7 30.0000000  0  7G 1G16G29G15G25G22G14
  21454744.664     2271989.53849   1786150.30247  21454744.330    21454751.105
       240.000         203.000
  23461761.906    -7190325.91349  -5583324.80346  23461761.900    23461770.951
       221.000         165.000
  24411353.976    16469671.03249  12834160.11345  24411354.301    24411361.197
       211.000         142.000
  21583940.860     3180149.80949   2495652.10247  21583940.159    21583949.062
       236.000         194.000
  21590815.595      234527.37649    200565.97247  21590815.300    21590821.599
       240.000         202.000
  22058822.056   -19389343.59949 -14758144.18046  22058821.306    22058829.483
       227.000         181.000
  21342138.248   -17722129.72049 -13776809.88647  21342138.535    21342145.588
       240.000         201.000
 99  6 16  4  8  0.0000000  0  7G 1G16G29G15G25G22G14
  21461389.875     2306910.44949   1813361.42447  21461389.799    21461396.325
       240.000         203.000
  23443974.211    -7283800.71449  -5656162.22846  23443972.156    23443982.672
       216.000         165.000
  24424041.047    16536341.97649  12886111.55245  24424041.968    24424048.152
       206.000         138.000
  21597816.251     3253065.74549   2552469.67647  21597816.263    21597824.619
       236.000         194.000
  21603057.757      298860.64649    250695.80147  21603057.804    21603063.890
       240.000         202.000
  22044466.670   -19464781.18249 -14816926.56946  22044465.624    22044474.207
       227.000         181.000
  21329174.324   -17790255.60249 -13829894.95747  21329174.370    21329181.368
       240.000         201.000
 99  6 16  4  8 30.0000000  0  7G 1G16G29G15G25G22G14
  21468048.767     2341903.35149   1840628.64147  21468048.819    21468055.377
       240.000         203.000
  23426198.952    -7377209.70849  -5728948.36546  23426198.540    23426208.642
       220.000         166.000
  24436728.849    16603017.33349  12938066.37445  24436727.955    24436737.886
       202.000         136.000
  21611765.731     3326370.38849   2609590.15547  21611765.066    21611773.844
       234.000         194.000
  21615350.130      363457.59049    301031.09247  21615350.045    21615355.841
       240.000         202.000
  22030172.995   -19539894.34149 -14875456.16846  22030172.119    22030180.529
       227.000         181.000
  21316262.035   -17858110.05949 -13882768.52147  21316261.949    21316269.283
       240.000         202.000
 99  6 16  4  9  0.0000000  0  7G 1G16G29G15G25G22G14
  21474723.013     2376976.67949   1867958.52547  21474723.009    21474729.522
       239.000         203.000
  23408437.199    -7470548.37649  -5801679.71746  23408436.617    23408444.516
       222.000         165.000
  24449417.264    16669695.81549  12990023.59445  24449417.301    24449425.663
       207.000         139.000
  21625788.070     3400058.38949   2667009.33447  21625787.919    21625796.447
       235.000         194.000
  21627693.606      428323.24649    351575.76347  21627693.819    21627699.640
       239.000         202.000
  22015939.917   -19614689.19649 -14933737.74646  22015939.382    22015947.160
       228.000         181.000
  21303397.051   -17925716.03649 -13935448.47447  21303397.285    21303404.038
       240.000         202.000
 99  6 16  4  9 30.0000000  0  7G 1G16G29G15G25G22G14
  21481418.735     2412162.92149   1895376.39547  21481418.423    21481425.361
       240.000         202.000
  23390688.478    -7563818.91549  -5874358.03746  23390687.404    23390697.387
       218.000         165.000
  24462109.320    16736392.50049  13041995.02945  24462110.034    24462117.653
       206.000         142.000
  21639884.889     3474137.17349   2724733.03547  21639884.460    21639892.938
       235.000         193.000
  21640092.969      493482.39449    402349.13147  21640093.145    21640099.076
       240.000         202.000
  22001773.788   -19689132.22349 -14991745.16346  22001772.330    22001781.298
       228.000         181.000
  21290575.245   -17993095.11449 -13987951.61347  21290575.132    21290582.212
       240.000         202.000
 99  6 16  4 10  0.0000000  0  7G 1G16G29G15G25G22G14
  21488137.747     2447471.54449   1922889.61747  21488137.552    21488144.370
       240.000         202.000
  23372949.094    -7657038.76549  -5946996.77546  23372950.483    23372958.698
       225.000         165.000
  24474805.482    16803111.08749  13093983.51645  24474804.385    24474813.310
       205.000         139.000
  21654056.594     3548609.88749   2782763.67947  21654056.459    21654064.789
       235.000         193.000
  21652546.841      558927.94349    453345.67147  21652546.944    21652552.666
       240.000         201.000
  21987679.046   -19763199.78349 -15049460.01546  21987678.277    21987686.636
       228.000         181.000
  21277796.273   -18060248.73749 -14040279.08047  21277796.388    21277803.162
       239.000         203.000
 99  6 16  4 10 30.0000000  0  7G 1G16G29G15G25G22G14
  21494879.654     2482900.35449   1950496.49447  21494879.585    21494885.779
       240.000         202.000
  23355221.778    -7750196.62149  -6019587.24446  23355221.297    23355230.791
       221.000         165.000
  24487504.778    16869846.43149  13145985.10145  24487505.123    24487512.968
       209.000         138.000
  21668304.020     3623480.34349   2841104.25447  21668303.885    21668312.200
       234.000         193.000
  21665054.505      624656.37249    504562.62847  21665054.675    21665060.634
       239.000         201.000
  21973658.068   -19836880.38349 -15106873.34946  21973657.673    21973665.978
       228.000         182.000
  21265061.684   -18127169.15249 -14092424.82247  21265061.654    21265068.550
       241.000         203.000
 99  6 16  4 11  0.0000000  0  7G 1G16G29G15G25G22G14
  21501640.839     2518430.71449   1978182.50047  21501640.564    21501647.050
       239.000         202.000
  23337508.694    -7843278.49249  -6092118.50146  23337507.190    23337516.329
       220.000         164.000
  24500202.947    16936575.20949  13197981.55845  24500204.002    24500210.170
       206.000         139.000
  21682626.402     3698744.41749   2899751.54947  21682626.020    21682634.617
       234.000         193.000
  21677616.896      690671.90449    556003.30847  21677617.088    21677622.831
       239.000         201.000
  21959709.418   -19910180.42649 -15163990.13246  21959708.600    21959716.520
       229.000         182.000
  21252375.167   -18193837.20249 -14144373.90747  21252375.187    21252382.360
       241.000         203.000
 99  6 16  4 11 30.0000000  0  7G 1G16G29G15G25G22G14
  21508420.669     2554059.11649   2005944.89747  21508420.370    21508427.244
       241.000         202.000
  23319811.074    -7936280.31649  -6164587.40246  23319810.921    23319821.346
       219.000         164.000
  24512898.923    17003293.53249  13249969.83045  24512898.444    24512908.547
       203.000         137.000
  21697024.003     3774404.34649   2958707.28347  21697024.093    21697032.473
       235.000         193.000
  21690232.174      756966.01249    607661.05147  21690232.205    21690237.998
       239.000         200.000
  21945833.429   -19983098.50849 -15220809.28446  21945832.886    21945841.148
       229.000         182.000
  21239744.190   -18260213.33749 -14196095.52347  21239743.821    21239751.209
       241.000         204.000
 99  6 16  4 12  0.0000000  0  7G 1G16G29G15G25G22G14
  21515219.350     2589786.17849   2033784.17647  21515219.244    21515225.909
       239.000         202.000
  23302132.174    -8029182.65449  -6236978.72246  23302133.149    23302140.672
       223.000         163.000
  24525595.061    17070012.17149  13301958.36645  24525596.423    24525602.735
       205.000         137.000
  21711498.549     3850468.00649   3017977.62347  21711497.923    21711507.136
       234.000         193.000
  21702898.272      823526.78849    659526.59047  21702898.376    21702904.431
       238.000         200.000
  21932026.805   -20055652.02149 -15277344.35946  21932026.664    21932034.352
       228.000         182.000
  21227176.879   -18326254.66949 -14247556.25647  21227177.061    21227184.024
       241.000         204.000
 99  6 16  4 12 30.0000000  0  7G 1G16G29G15G25G22G14
  21522035.456     2625605.13449   2061695.06347  21522035.115    21522042.106
       239.000         202.000
  23284475.081    -8121970.89649  -6309281.17245  23284473.664    23284483.246
       220.000         162.000
  24538291.050    17136729.79249  13353946.09145  24538291.854    24538299.620
       207.000         140.000
  21726048.783     3926929.88749   3077558.27747  21726048.440    21726057.207
       236.000         192.000
  21715616.181      890359.75649    711604.22947  21715616.112    21715622.223
       239.000         200.000
  21918286.868   -20127855.47349 -15333606.65746  21918286.666    21918294.240
       231.000         183.000
  21214673.038   -18391962.83449 -14298757.37147  21214672.987    21214679.933
       241.000         204.000
 99  6 16  4 13  0.0000000  0  7G 1G16G29G15G25G22G14
  21528873.203     2661538.02049   2089694.72147  21528872.901    21528879.864
       239.000         202.000
  23266840.087    -8214643.50049  -6381493.48946  23266839.272    23266848.464
       221.000         163.000
  24550991.935    17203472.12849  13405953.12645  24550992.082    24550999.611
       209.000         142.000
  21740675.584     4003794.19749   3137452.50547  21740675.554    21740684.157
       234.000         192.000
  21728387.103      957471.01049    763898.70647  21728386.821    21728393.294
       239.000         200.000
  21904613.974   -20199706.72849 -15389594.51246  21904613.072    21904621.485
       231.000         183.000
  21202232.823   -18457336.40349 -14349697.75347  21202232.440    21202239.617
       241.000         204.000
 99  6 16  4 13 30.0000000  0  7G 1G16G29G15G25G22G14
  21535735.469     2697599.74849   2117794.77447  21535735.151    21535742.251
       239.000         201.000
  23249224.661    -8307213.93249  -6453626.21645  23249222.958    23249232.561
       216.000         162.000
  24563702.885    17270268.40549  13458002.21345  24563703.012    24563710.208
       196.000         137.000
  21755378.138     4081056.31549   3197656.72347  21755377.705    21755386.551
       234.000         191.000
  21741210.013     1024855.96849    816406.45847  21741210.023    21741216.050
       238.000         199.000
  21891009.306   -20271199.31949 -15445302.89446  21891008.011    21891015.952
       230.000         183.000
  21189852.186   -18522396.83849 -14400394.13647  21189851.701    21189858.915
       241.000         204.000
 99  6 16  4 14  0.0000000  0  6G 1G16G15G25G22G14
  21542611.992     2733735.96349   2145952.87447  21542611.700    21542618.309
       239.000         201.000
  23231618.918    -8399731.48749  -6525717.67745  23231619.145    23231627.352
       224.000         162.000
  21770145.373     4158659.18549   3258126.44847  21770145.062    21770153.517
       234.000         191.000
  21754076.301     1092468.71149    869091.70847  21754076.276    21754082.177
       238.000         199.000
  21877465.251   -20342373.38649 -15500763.07946  21877464.137    21877472.560
       231.000         184.000
  21177517.194   -18587217.14349 -14450903.39947  21177516.860    21177524.114
       241.000         205.000
 99  6 16  4 14 30.0000000  0  6G 1G16G15G25G22G14
  21549505.372     2769961.05449   2174180.23347  21549505.038    21549512.075
       238.000         201.000
  23214027.569    -8492174.67049  -6597751.18645  23214025.495    23214035.057
       217.000         160.000
  21784979.246     4236612.14549   3318868.98747  21784979.183    21784987.625
       233.000         190.000
  21766990.114     1160331.24449    921971.60647  21766990.196    21766996.458
       238.000         199.000
  21863988.283   -20413194.91649 -15555948.56546  21863987.087    21863994.965
       229.000         184.000
  21165228.374   -18651795.39249 -14501224.04147  21165228.307    21165235.380
       241.000         205.000
 99  6 16  4 15  0.0000000  0  6G 1G16G15G25G22G14
  21556420.514     2806300.50749   2202496.69947  21556420.201    21556426.915
       239.000         201.000
  23196453.329    -8584527.27349  -6669714.16645  23196452.860    23196462.140
       218.000         162.000
  21799882.862     4314931.08149   3379896.69947  21799882.256    21799891.193
       234.000         190.000
  21779953.946     1228456.94849    975056.56247  21779954.002    21779959.809
       238.000         199.000
  21850585.269   -20483627.88349 -15610831.27446  21850584.535    21850591.869
       231.000         185.000
  21152993.223   -18716091.18249 -14551324.58447  21152993.178    21152999.954
       241.000         205.000
 99  6 16  4 15 30.0000000  0  6G 1G16G15G25G22G14
  21563354.480     2842738.78949   2230890.18047  21563354.370    21563360.979
       240.000         201.000
  23178894.794    -8676796.22149  -6741611.87645  23178895.574    23178904.103
       219.000         160.000
  21814853.454     4393602.26749   3441198.88347  21814853.351    21814861.804
       234.000         190.000
  21792966.183     1296836.75849   1028339.53447  21792966.373    21792972.408
       238.000         198.000
  21837255.893   -20553673.39849 -15665412.07746  21837255.283    21837263.561
       231.000         185.000
  21140814.699   -18780089.54049 -14601193.34747  21140814.319    21140821.551
       242.000         205.000
 99  6 16  4 16  0.0000000  0  6G 1G16G15G25G22G14
  21570308.423     2879281.81749   2259365.28247  21570307.877    21570314.849
       239.000         201.000
  23161357.447    -8768955.56449  -6813424.22945  23161357.986    23161367.082
       220.000         162.000
  21829893.662     4472638.37049   3502785.43547  21829893.729    21829902.029
       234.000         190.000
  21806026.254     1365467.67349   1081818.16647  21806026.442    21806032.423
       238.000         198.000
  21824001.774   -20623323.80049 -15719684.99546  21824000.319    21824009.255
       230.000         185.000
  21128698.074   -18843762.43949 -14650808.50847  21128698.057    21128704.689
       241.000         205.000
 99  6 16  4 16 30.0000000  0  6G 1G16G15G25G22G14
  21577284.398     2915941.15049   2287931.01447  21577283.987    21577291.180
       239.000         201.000
  23143842.421    -8860996.24849  -6885144.09945  23143841.142    23143850.778
       221.000         162.000
  21845005.784     4552052.42149   3564666.48847  21845005.308    21845013.738
       234.000         190.000
  21819135.869     1434359.35349   1135499.99147  21819135.976    21819142.157
       237.000         198.000
  21810825.414   -20692565.35549 -15773639.34146  21810824.920    21810832.228
       231.000         185.000
  21116648.280   -18907084.71449 -14700150.45647  21116647.959    21116654.836
       242.000         206.000
 99  6 16  4 17  0.0000000  0  6G 1G16G15G25G22G14
  21584286.673     2952738.46249   2316604.26247  21584286.629    21584293.256
       239.000         201.000
  23126354.024    -8952899.55349  -6956756.95545  23126352.180    23126361.661
       216.000         162.000
  21860194.023     4631866.37549   3626859.14347  21860193.813    21860202.698
       234.000         190.000
  21832299.254     1503533.29849   1189401.77047  21832299.144    21832305.298
       238.000         198.000
  21797731.574   -20761373.80549 -15827256.19546  21797730.615    21797738.857
       230.000         185.000
  21104669.553   -18970033.01449 -14749200.99647  21104669.331    21104676.195
       242.000         206.000
 99  6 16  4 17 30.0000000  0  6G 1G16G15G25G22G14
  21591315.708     2989676.16149   2345386.90747  21591315.563    21591321.940
       239.000         201.000
  23108892.344    -9044660.14649  -7028258.62446  23108892.686    23108899.919
       221.000         165.000
  21875459.214     4712085.05249   3689367.17147  21875458.825    21875467.412
       234.000         190.000
  21845516.763     1572991.57849   1243525.10447  21845516.783    21845522.915
       238.000         197.000
  21784718.818   -20829755.16349 -15880540.25846  21784717.284    21784726.235
       232.000         185.000
  21092760.956   -19032612.97949 -14797964.52647  21092761.125    21092767.568
       242.000         206.000
 99  6 16  4 18  0.0000000  0  6G 1G16G15G25G22G14
  21598372.079     3026757.75449   2374281.67947  21598371.509    21598378.358
       238.000         200.000
  23091458.139    -9136276.64049  -7099647.97346  23091458.736    23091466.510
       219.000         166.000
  21890799.898     4792700.90049   3752184.68947  21890799.775    21890808.451
       234.000         190.000
  21858786.349     1642723.92649   1297861.99647  21858786.497    21858792.496
       237.000         197.000
  21771787.555   -20897709.18349 -15933491.33246  21771786.666    21771794.218
       231.000         186.000
  21080919.665   -19094838.91549 -14846452.17947  21080919.413    21080926.122
       242.000         206.000
 99  6 16  4 18 30.0000000  0  6G 1G16G15G25G22G14
  21605455.764     3063982.96949   2403288.36247  21605455.634    21605462.226
       238.000         200.000
  23074049.830    -9227757.61849  -7170931.74246  23074049.398    23074058.413
       221.000         167.000
  21906211.487     4873688.96149   3815292.23547  21906211.295    21906219.424
       234.000         190.000
  21872106.325     1712720.99149   1352405.16847  21872106.486    21872112.291
       237.000         197.000
  21758938.723   -20965229.53549 -15986104.48346  21758938.280    21758945.917
       231.000         186.000
  21069142.404   -19156728.43049 -14894677.69547  21069142.186    21069148.778
       242.000         206.000
 99  6 16  4 19  0.0000000  0  6G 1G16G15G25G22G14
  21612562.118     3101327.17749   2432387.76547  21612561.705    21612568.715
       238.000         200.000
  23056662.580    -9319127.86749  -7242129.20546  23056661.585    23056671.312
       222.000         169.000
  21921685.164     4955003.72449   3878654.35847  21921684.544    21921693.192
       234.000         189.000
  21885469.462     1782944.83049   1407125.03647  21885469.615    21885475.802
       237.000         197.000
  21746165.252   -21032354.32149 -16038409.40846  21746164.753    21746172.741
       232.000         187.000
  21057420.697   -19218326.09149 -14942675.79047  21057420.391    21057427.275
       242.000         206.000
 99  6 16  4 19 30.0000000  0  6G 1G16G15G25G22G14
  21619687.483     3138771.52649   2461565.21047  21619687.232    21619694.080
       238.000         200.000
  23039294.297    -9410398.15249  -7313248.81546  23039294.368    23039301.847
       224.000         170.000
  21937215.405     5036615.09649   3942247.60347  21937214.722    21937223.345
       234.000         189.000
  21898870.914     1853369.96349   1462001.77047  21898870.877    21898876.915
       237.000         196.000
  21733461.667   -21099111.94749 -16090428.23546  21733460.838    21733468.392
       231.000         187.000
  21045750.045   -19279655.42949 -14990464.81647  21045750.100    21045756.609
       242.000         206.000
 99  6 16  4 20  0.0000000  0  6G 1G16G15G25G22G14
  21626825.862     3176284.08649   2490795.79747  21626825.620    21626832.514
       238.000         200.000
  23021942.108    -9501584.00749  -7384302.62046  23021941.811    23021951.018
       225.000         171.000
  21952795.349     5118488.36449   4006044.92347  21952794.966    21952803.258
       232.000         188.000
  21912305.179     1923967.53049   1517012.86647  21912305.716    21912311.424
       237.000         196.000
  21720826.613   -21165509.33349 -16142166.34846  21720825.815    21720833.549
       232.000         187.000
  21034124.356   -19340748.42349 -15038069.67347  21034124.239    21034131.085
       242.000         207.000
 99  6 16  4 20 30.0000000  0  6G 1G16G15G25G22G14
  21633972.968     3213842.54749   2520062.15347  21633972.702    21633979.989
       238.000         200.000
  23004602.339    -9592705.03949  -7455305.94046  23004599.927    23004611.427
       223.000         171.000
  21968421.534     5200605.04149   4070031.91547  21968421.228    21968429.816
       233.000         188.000
  21925769.517     1994723.29649   1572147.22547  21925769.606    21925775.362
       237.000         196.000
  21708256.518   -21231565.28249 -16193638.41746  21708255.607    21708263.183
       231.000         187.000
  21022540.923   -19401619.45149 -15085501.57047  21022540.708    21022547.327
       242.000         207.000
 99  6 16  4 21  0.0000000  0  6G 1G16G15G25G22G14
  21641130.476     3251455.47549   2549370.95447  21641130.307    21641137.058
       238.000         200.000
  22987275.504    -9683757.80149  -7526256.05746  22987275.520    22987283.113
       226.000         172.000
  21984098.896     5282990.02249   4134227.99147  21984098.036    21984106.637
       233.000         188.000
  21939267.799     2065657.29949   1627420.47847  21939268.331    21939274.185
       236.000         196.000
  21695753.136   -21297270.30549 -16244837.02546  21695752.223    21695759.942
       231.000         187.000
  21011006.549   -19462232.75949 -15132732.64847  21011006.193    21011013.170
       242.000         207.000
 99  6 16  4 21 30.0000000  0  6G 1G16G15G25G22G14
  21648305.738     3289161.74249   2578752.48647  21648305.360    21648312.160
       238.000         199.000
  22969968.818    -9774704.89149  -7597123.84846  22969968.112    22969977.460
       226.000         172.000
  21999836.729     5365692.91849   4198671.76347  21999836.450    21999844.988
       231.000         188.000
  21952807.940     2136811.30349   1682865.16247  21952808.097    21952813.977
       237.000         195.000
  21683327.549   -21362566.84249 -16295717.34347  21683327.055    21683334.284
       232.000         188.000
  20999535.152   -19522515.31649 -15179706.01747  20999534.875    20999541.519
       243.000         207.000
 99  6 16  4 22  0.0000000  0  6G 1G16G15G25G22G14
  21655508.411     3327011.90549   2608246.14447  21655508.144    21655514.786
       238.000         199.000
  22952689.599    -9865507.90449  -7667879.38246  22952690.143    22952697.077
       228.000         173.000
  22015646.123     5448771.65049   4263408.40646  22015645.376    22015654.502
       232.000         187.000
  21966400.756     2208241.90049   1738525.37147  21966400.987    21966406.678
       236.000         195.000
  21670992.608   -21427387.20149 -16346226.60947  21670991.645    21670998.749
       232.000         188.000
  20988141.956   -19582386.65749 -15226358.94647  20988141.892    20988148.538
       242.000         208.000
 99  6 16  4 22 30.0000000  0  6G 1G16G15G25G22G14
  21662746.139     3365046.44749   2637883.47747  21662745.613    21662752.631
       237.000         199.000
  22935444.569    -9956130.66649  -7738494.44446  22935444.372    22935451.934
       223.000         174.000
  22031535.235     5532269.70549   4328471.79746  22031534.736    22031543.731
       232.000         187.000
  21980054.906     2279994.87749   1794436.78847  21980054.945    21980060.675
       236.000         195.000
  21658754.985   -21491696.25549 -16396337.45447  21658754.326    21658761.906
       232.000         188.000
  20976836.274   -19641798.09949 -15272653.51747  20976836.119    20976842.995
       242.000         208.000
 99  6 16  4 23  0.0000000  0  6G 1G16G15G25G22G14
  21670019.038     3403266.09149   2667665.03747  21670018.728    21670025.485
       238.000         199.000
  22918240.227   -10046539.52349  -7808942.81246  22918239.223    22918247.744
       223.000         174.000
  22047506.798     5616200.84149   4393872.65446  22047506.119    22047515.463
       232.000         187.000
  21993771.437     2352075.63249   1850603.61047  21993771.559    21993777.319
       236.000         195.000
  21646617.735   -21555477.01949 -16446036.65347  21646617.049    21646624.089
       232.000         188.000
  20965621.387   -19700732.25049 -15318576.17447  20965621.212    20965627.980
       243.000         208.000
 99  6 16  4 23 30.0000000  0  6G 1G16G15G25G22G14
  21677322.846     3441647.87749   2697572.94447  21677322.452    21677329.297
       238.000         199.000
  22901076.522   -10136734.76249  -7879224.73546  22901075.505    22901085.064
       223.000         174.000
  22063554.852     5700533.53049   4459586.41146  22063554.729    22063563.285
       231.000         187.000
  22007544.204     2424451.87449   1907000.68447  22007544.024    22007550.295
       236.000         194.000
  21634578.060   -21618745.77149 -16495336.86847  21634577.084    21634584.414
       232.000         189.000
  20954491.584   -19759219.59349 -15364150.67047  20954491.238    20954498.144
       243.000         208.000
 99  6 16  4 24  0.0000000  0  6G 1G16G15G25G22G14
  21684649.170     3480147.81949   2727572.92447  21684649.140    21684655.363
       237.000         198.000
  22883946.416   -10226754.15949  -7949369.63346  22883945.934    22883954.475
       225.000         173.000
  22079668.342     5785209.85649   4525567.94546  22079667.974    22079676.462
       231.000         186.000
  22021362.760     2497069.04349   1963585.49247  22021362.928    22021369.115
       236.000         194.000
  21622627.668   -21681545.40749 -16544271.54047  21622626.727    21622634.323
       232.000         189.000
  20943433.503   -19817330.03249 -15409431.47547  20943433.303    20943439.701
       244.000         209.000
 99  6 16  4 24 30.0000000  0  6G 1G16G15G25G22G14
  21691988.383     3518715.74049   2757625.86947  21691988.149    21691994.580
       238.000         198.000
  22866843.524   -10316629.76849  -8019402.47946  22866843.524    22866851.186
       225.000         174.000
  22095835.774     5870170.03049   4591770.63746  22095834.852    22095844.163
       231.000         186.000
  22035215.451     2569865.43949   2020309.96347  22035215.498    22035221.707
       236.000         194.000
  21610755.829   -21743931.56149 -16592884.02647  21610754.886    21610762.039
       232.000         189.000
  20932433.754   -19875133.96449 -15454473.45047  20932433.708    20932440.245
       243.000         209.000
 99  6 16  4 25  0.0000000  0  6G 1G16G15G25G22G14
  21699336.832     3557332.35249   2787716.75947  21699336.392    21699343.155
       237.000         198.000
  22849762.430   -10406390.74949  -8089346.01546  22849761.170    22849770.659
       223.000         173.000
  22112049.220     5955372.36849   4658162.03746  22112049.397    22112057.300
       231.000         185.000
  22049093.785     2642796.44049   2077139.31647  22049093.580    22049099.908
       235.000         194.000
  21598956.364   -21805937.28649 -16641200.06747  21598955.624    21598962.905
       232.000         190.000
  20921486.745   -19932660.99949 -15499299.66047  20921486.366    20921493.042
       243.000         209.000
 99  6 16  4 25 30.0000000  0  6G 1G16G15G25G22G14
  21706696.987     3596010.61649   2817855.68947  21706696.597    21706703.423
       238.000         198.000
  22832700.563   -10496051.13549  -8159211.14846  22832698.991    22832709.252
       224.000         174.000
  22128307.263     6040808.76649   4724735.81646  22128306.512    22128315.506
       230.000         185.000
  22062998.902     2715868.70549   2134078.75447  22062999.183    22063004.915
       235.000         193.000
  21587229.459   -21867562.31649 -16689219.46447  21587228.583    21587236.042
       233.000         190.000
  20910591.378   -19989915.95749 -15543913.86547  20910591.219    20910597.774
       242.000         209.000
 99  6 16  4 26  0.0000000  0  6G 1G16G15G25G22G14
  21714068.742     3634749.49449   2848041.85347  21714068.403    21714075.270
       238.000         198.000
  22815658.066   -10585609.68449  -8228996.96346  22815657.949    22815666.606
       226.000         172.000
  22144610.887     6126484.50549   4791496.09846  22144610.545    22144619.992
       230.000         185.000
  22076932.690     2789091.32349   2191135.34047  22076932.817    22076938.642
       236.000         193.000
  21575576.314   -21928799.44449 -16736936.59547  21575575.500    21575582.782
       232.000         190.000
  20899746.808   -20046904.07849 -15588320.14247  20899746.616    20899753.267
       243.000         210.000
 99  6 16  4 26 30.0000000  0  6G 1G16G15G25G22G14
  21721449.862     3673537.29149   2878266.12747  21721449.803    21721456.184
       238.000         198.000
  22798633.422   -10675075.05449  -8298710.14046  22798633.215    22798640.756
       224.000         173.000
  22160959.926     6212399.58049   4858442.88346  22160959.847    22160968.218
       230.000         184.000
  22090895.237     2862464.52249   2248309.26647  22090895.231    22090901.020
       235.000         193.000
  21563995.564   -21989656.58449 -16784357.63447  21563994.577    21564002.311
       233.000         190.000
  20888953.486   -20103623.05949 -15632516.69647  20888953.339    20888959.885
       243.000         210.000
 99  6 16  4 27  0.0000000  0  6G 1G16G15G25G22G14
  21728845.651     3712402.21449   2908550.50647  21728845.383    21728852.000
       237.000         198.000
  22781629.868   -10764428.64849  -8368336.22046  22781628.747    22781637.895
       222.000         171.000
  22177359.705     6298580.88849   4925597.10146  22177359.813    22177367.814
       231.000         184.000
  22104891.881     2936017.25749   2305623.08247  22104892.122    22104897.883
       235.000         193.000
  21552493.613   -22050099.21249 -16831455.68747  21552492.980    21552500.022
       233.000         190.000
  20878219.051   -20160032.56649 -15676472.10547  20878219.120    20878225.640
       244.000         210.000
 99  6 16  4 27 30.0000000  0  6G 1G16G15G25G22G14
  21736258.841     3751359.24949   2938906.66147  21736258.441    21736265.047
       237.000         198.000
  22764650.659   -10853654.88349  -8437863.02246  22764649.581    22764658.642
       226.000         172.000
  22193813.838     6385047.90749   4992973.96346  22193813.443    22193822.143
       229.000         184.000
  22118927.901     3009777.24849   2363098.40147  22118928.045    22118933.849
       235.000         192.000
  21541076.358   -22110097.02349 -16878207.11747  21541075.414    21541082.910
       233.000         191.000
  20867548.380   -20216107.46949 -15720166.78347  20867548.307    20867554.801
       244.000         210.000
 99  6 16  4 28  0.0000000  0  6G 1G16G15G25G22G14
  21743689.529     3790407.80549   2969334.12547  21743689.547    21743695.786
       238.000         198.000
  22747695.052   -10942756.53349  -8507292.78046  22747694.819    22747702.398
       223.000         173.000
  22210321.839     6471797.96349   5060571.37346  22210320.825    22210329.894
       229.000         183.000
  22133003.326     3083744.13349   2420734.94647  22133003.271    22133009.270
       235.000         192.000
  21529746.343   -22169636.11449 -16924601.10947  21529745.867    21529752.376
       233.000         191.000
  20856943.160   -20271837.98849 -15763593.11047  20856943.209    20856949.679
       244.000         211.000
 99  6 16  4 28 30.0000000  0  6G 1G16G15G25G22G14
  21751146.199     3829592.83449   2999867.93347  21751145.715    21751152.601
       237.000         197.000
  22730769.029   -11031702.63049  -8576601.28246  22730767.907    22730776.690
       226.000         173.000
  22226888.597     6558856.91449   5128409.47146  22226888.465    22226897.039
       229.000         183.000
  22147123.205     3157944.61249   2478553.50047  22147122.986    22147129.193
       235.000         192.000
  21518511.118   -22228677.29649 -16970607.12447  21518509.616    21518517.499
       232.000         191.000
  20846412.988   -20327174.22749 -15806712.19647  20846412.789    20846419.208
       244.000         211.000
 99  6 16  4 29  0.0000000  0  6G 1G16G15G25G22G14
  21758634.118     3868942.57249   3030530.08047  21758633.841    21758640.447
       237.000         197.000
  22713877.575   -11120467.75949  -8645768.81246  22713877.210    22713884.521
       227.000         175.000
  22243515.238     6646230.46249   5196492.70746  22243514.775    22243523.661
       230.000         182.000
  22161287.838     3232380.32249   2536555.35947  22161287.790    22161293.850
       234.000         192.000
  21507375.289   -22287195.81949 -17016205.90247  21507374.694    21507381.884
       233.000         191.000
  20835962.612   -20382091.19949 -15849504.58947  20835962.413    20835969.034
       244.000         211.000
 99  6 16  4 29 30.0000000  0  6G 1G16G15G25G22G14
  21766149.786     3908437.81649   3061305.61847  21766149.488    21766156.008
       237.000         197.000
  22697019.123   -11209059.28149  -8714801.05646  22697017.752    22697027.031
       227.000         177.000
  22260197.444     6733895.59749   5264803.15446  22260197.566    22260206.321
       229.000         182.000
  22175491.841     3307022.81249   2594718.33647  22175491.836    22175498.187
       235.000         191.000
  21496335.697   -22345208.98449 -17061410.86947  21496334.477    21496342.577
       231.000         191.000
  20825588.315   -20436608.11949 -15891985.25447  20825588.095    20825594.724
       244.000         211.000
 99  6 16  4 30  0.0000000  0  6G 1G16G15G25G22G14
  21773692.309     3948073.90849   3092190.90147  21773692.057    21773698.745
       237.000         197.000
  22680196.622   -11297461.61549  -8783685.85846  22680196.307    22680203.188
       226.000         176.000
  22276934.735     6821850.33949   5333339.27446  22276933.660    22276943.306
       230.000         181.000
  22189733.357     3381862.65749   2653035.10747  22189733.237    22189739.594
       234.000         191.000
  21485390.412   -22402725.90849 -17106229.15247  21485389.774    21485396.354
       234.000         191.000
  20815291.360   -20490718.57949 -15934149.19447  20815291.154    20815297.640
       244.000         211.000
 99  6 16  4 30 30.0000000  0  6G 1G16G15G25G22G14
  21781261.347     3987849.40649   3123184.81247  21781260.947    21781267.561
       237.000         197.000
  22663411.550   -11385667.68249  -8852417.75446  22663411.017    22663418.730
       226.000         176.000
  22293725.926     6910088.29549   5402096.07446  22293725.725    22293733.796
       229.000         181.000
  22204010.308     3456888.41149   2711496.72747  22204010.284    22204015.901
       234.000         191.000
  21474536.377   -22459764.07949 -17150674.38147  21474535.638    21474542.640
       233.000         192.000
  20805071.510   -20544424.11049 -15975997.61347  20805071.289    20805077.840
       246.000         211.000
 99  6 16  4 31  0.0000000  0  6G 1G16G15G25G22G14
  21788858.143     4027770.76749   3154292.37947  21788857.748    21788864.333
       237.000         197.000
  22646668.350   -11473653.22849  -8920977.79046  22646668.028    22646675.517
       227.000         176.000
  22310573.845     6998624.43249   5471085.22146  22310573.341    22310582.616
       229.000         182.000
  22218327.751     3532127.15549   2770124.31947  22218327.802    22218334.405
       234.000         190.000
  21463774.001   -22516320.27249 -17194744.04847  21463773.449    21463780.435
       233.000         192.000
  20794933.193   -20597701.01349 -16017512.02647  20794933.267    20794939.691
       246.000         211.000
 99  6 16  4 31 30.0000000  0  6G 1G16G15G25G22G14
  21796476.555     4067805.91849   3185488.61347  21796476.194    21796483.017
       237.000         196.000
  22629964.918   -11561429.55949  -8989374.83346  22629964.072    22629973.043
       227.000         176.000
  22327475.680     7087444.22749   5540295.40346  22327475.520    22327484.744
       229.000         181.000
  22232685.810     3607579.32549   2828918.21847  22232686.242    22232691.706
       233.000         190.000
  21453099.798   -22572413.17249 -17238452.71147  21453099.308    21453106.312
       234.000         192.000
  20784872.972   -20650567.59349 -16058706.71447  20784873.042    20784879.376
       245.000         211.000
 99  6 16  4 32  0.0000000  0  6G 1G16G15G25G22G14
  21804116.103     4107952.20549   3216771.45847  21804115.775    21804122.207
       237.000         196.000
  22613300.099   -11649003.31449  -9057614.02346  22613299.119    22613306.841
       225.000         177.000
  22344430.928     7176544.11549   5609723.83346  22344430.223    22344439.896
       229.000         181.000
  22247087.250     3683259.61749   2887889.87847  22247087.432    22247093.309
       233.000         190.000
  21442515.401   -22628034.53449 -17281793.93847  21442514.626    21442521.453
       234.000         193.000
  20774889.909   -20703028.86149 -16099585.56747  20774889.773    20774896.318
       246.000         211.000
 99  6 16  4 32 30.0000000  0  6G 1G16G15G25G22G14
  21811773.823     4148194.03049   3248128.74247  21811773.433    21811779.978
       236.000         196.000
  22596670.208   -11736393.12349  -9125709.87746  22596670.321    22596678.155
       227.000         178.000
  22361435.545     7265903.86849   5679354.76846  22361435.081    22361443.478
       227.000         180.000
  22261527.586     3759144.14749   2947020.68447  22261527.775    22261533.751
       233.000         190.000
  21432020.948   -22683182.90649 -17324766.61147  21432019.971    21432027.404
       233.000         193.000
  20764978.819   -20755111.80549 -16140169.62447  20764978.574    20764985.050
       246.000         211.000
 99  6 16  4 33  0.0000000  0  6G 1G16G15G25G22G14
  21819446.858     4188516.30949   3279548.72047  21819446.561    21819453.096
       236.000         196.000
  22580073.255   -11823610.13049  -9193671.05946  22580072.581    22580081.666
       229.000         179.000
  22378486.630     7355507.63449   5749175.84346  22378486.736    22378495.364
       228.000         180.000
  22276003.057     3835213.27549   3006295.33747  22276003.644    22276009.128
       233.000         189.000
  21421617.248   -22737854.18049 -17367367.51147  21421616.693    21421623.528
       234.000         193.000
  20755137.544   -20806827.93649 -16180467.85247  20755137.287    20755143.884
       245.000         212.000
 99  6 16  4 33 30.0000000  0  6G 1G16G15G25G22G14
  21827129.135     4228886.95249   3311006.38547  21827128.953    21827135.405
       236.000         196.000
  22563498.808   -11910709.51149  -9261540.63746  22563497.326    22563506.719
       226.000         180.000
  22395575.789     7445311.63649   5819152.94146  22395574.606    22395584.072
       227.000         179.000
  22290503.772     3911415.17849   3065673.43647  22290504.185    22290510.201
       233.000         189.000
  21411300.257   -22792070.05249 -17409613.55647  21411299.486    21411306.779
       234.000         193.000
  20745354.640   -20858236.94549 -16220526.76647  20745354.610    20745360.940
       245.000         212.000
 99  6 16  4 34  0.0000000  0  6G 1G16G15G25G22G14
  21834825.456     4269331.56349   3342521.68447  21834825.195    21834832.072
       237.000         196.000
  22546945.956   -11997694.81249  -9329321.29746  22546945.095    22546953.285
       228.000         180.000
  22412703.372     7535318.05049   5889287.75446  22412703.158    22412711.847
       227.000         179.000
  22305028.826     3987745.10349   3125151.29647  22305028.770    22305035.332
       233.000         189.000
  21401073.411   -22845812.42349 -17451490.64247  21401072.666    21401079.811
       234.000         193.000
  20735631.454   -20909332.35849 -16260341.31147  20735631.381    20735637.807
       246.000         212.000
 99  6 16  4 34 30.0000000  0  6G 1G16G15G25G22G14
  21842538.404     4309863.33749   3374104.90147  21842538.046    21842544.461
       236.000         196.000
  22530418.329   -12084547.28149  -9396998.47546  22530418.226    22530426.044
       227.000         179.000
  22429870.334     7625530.77949   5959583.33446  22429870.654    22429879.005
       228.000         179.000
  22319577.555     4064198.93849   3184725.70247  22319577.518    22319583.759
       233.000         188.000
  21390938.939   -22899069.23649 -17492989.37247  21390938.302    21390945.107
       235.000         193.000
  20725971.746   -20960094.15249 -16299895.90247  20725971.888    20725978.187
       246.000         212.000
 99  6 16  4 35  0.0000000  0  6G 1G16G15G25G22G14
  21850270.203     4350494.18849   3405765.32547  21850270.023    21850275.992
       235.000         195.000
  22513918.906   -12171251.90949  -9464560.44046  22513918.608    22513926.310
       228.000         179.000
  22447078.290     7715958.59849   6030046.53646  22447078.201    22447087.553
       229.000         179.000
  22334155.930     4140808.49649   3244421.46447  22334155.946    22334161.699
       232.000         188.000
  21380898.846   -22951829.91849 -17534101.50547  21380897.862    21380904.895
       235.000         194.000
  20716380.360   -21010497.39249 -16339171.09847  20716380.448    20716386.696
       246.000         212.000
 99  6 16  4 35 30.0000000  0  6G 1G16G15G25G22G14
  21858018.896     4391214.10149   3437495.14947  21858018.549    21858025.097
       237.000         195.000
  22497447.514   -12257809.63349  -9532007.97146  22497447.231    22497455.454
       226.000         178.000
  22464324.616     7806588.30449   6100667.03846  22464323.403    22464333.530
       226.000         179.000
  22348761.494     4217561.32349   3304228.85847  22348761.564    22348768.020
       233.000         188.000
  21370949.981   -23004111.07749 -17574839.99147  21370949.250    21370955.712
       235.000         194.000
  20706856.096   -21060547.41049 -16378171.05947  20706856.072    20706862.414
       246.000         212.000
 99  6 16  4 36  0.0000000  0  6G 1G16G15G25G22G14
  21865787.676     4432039.19049   3469306.92047  21865787.400    21865793.717
       236.000         195.000
  22481011.678   -12344180.11149  -9599309.57346  22481010.810    22481018.953
       228.000         180.000
  22481612.214     7897435.63949   6171457.12446  22481612.404    22481620.806
       226.000         178.000
  22363397.752     4294475.20549   3364161.75446  22363398.092    22363403.864
       232.000         187.000
  21361094.691   -23055900.53249 -17615195.32647  21361093.782    21361100.459
       235.000         194.000
  20697407.576   -21110199.73149 -16416861.13147  20697407.423    20697413.872
       246.000         212.000
 99  6 16  4 36 30.0000000  0  6G 1G16G15G25G22G14
  21873578.781     4472981.81449   3501210.28847  21873578.287    21873585.174
       235.000         195.000
  22464618.513   -12430326.86649  -9666436.85546  22464617.949    22464625.836
       229.000         181.000
  22498944.718     7988518.35949   6242430.62846  22498944.155    22498953.272
       226.000         177.000
  22378070.309     4371580.12049   3424243.51046  22378070.474    22378076.366
       233.000         187.000
  21351333.919   -23107193.10549 -17655163.47647  21351333.080    21351339.939
       235.000         194.000
  20688042.246   -21159414.54349 -16455210.28747  20688041.907    20688048.315
       246.000         212.000
 99  6 16  4 37  0.0000000  0  6G 1G16G15G25G22G14
  21881396.634     4514064.93349   3533223.12847  21881396.215    21881402.830
       236.000         195.000
  22448269.834   -12516239.51649  -9733381.70246  22448269.516    22448277.420
       230.000         183.000
  22516325.587     8079855.64249   6313602.47846  22516325.372    22516333.635
       226.000         177.000
  22392781.993     4448890.40249   3484485.28846  22392781.800    22392787.998
       231.000         187.000
  21341669.870   -23157977.78849 -17694735.87147  21341669.450    21341675.656
       235.000         194.000
  20678762.960   -21208177.22249 -16493207.13347  20678762.730    20678769.176
       246.000         212.000
 99  6 16  4 37 30.0000000  0  6G 1G16G15G25G22G14
  21889248.073     4555324.92549   3565373.78947  21889247.569    21889254.321
       236.000         194.000
  22431969.933   -12601895.44949  -9800126.49746  22431969.201    22431977.397
       231.000         183.000
  22533760.121     8171474.06649   6384993.41146  22533759.923    22533769.219
       226.000         176.000
  22407535.815     4526422.44749   3544899.86746  22407535.756    22407541.652
       230.000         186.000
  21332108.320   -23208223.66249 -17733888.41447  21332107.299    21332114.491
       235.000         194.000
  20669575.445   -21256457.82049 -16530828.33248  20669575.261    20669581.437
       246.000         213.000
 99  6 16  4 38  0.0000000  0  6G 1G16G15G25G22G14
  21897134.641     4596769.04349   3597667.92447  21897134.419    21897140.859
       236.000         194.000
  22415720.894   -12687284.15849  -9866663.07646  22415720.600    22415728.409
       230.000         183.000
  22551249.787     8263382.62249   6456610.42146  22551249.305    22551258.778
       224.000         176.000
  22422336.735     4604201.77749   3605507.14446  22422336.090    22422342.958
       231.000         186.000
  21322653.408   -23257909.25949 -17772604.38047  21322652.625    21322659.729
       236.000         195.000
  20660483.309   -21304237.11849 -16568058.91148  20660483.275    20660489.362
       245.000         213.000
 99  6 16  4 38 30.0000000  0  6G 1G16G15G25G22G14
  21905054.813     4638389.66149   3630099.58947  21905054.456    21905061.250
       236.000         194.000
  22399521.492   -12772411.95449  -9932996.33546  22399520.744    22399529.689
       229.000         183.000
  22568793.301     8355574.18649   6528447.95446  22568793.190    22568802.060
       225.000         176.000
  22437181.795     4682213.13649   3666295.21446  22437181.902    22437187.935
       230.000         185.000
  21313307.189   -23307023.83049 -17810875.38747  21313306.415    21313313.269
       235.000         195.000
  20651482.605   -21351536.23749 -16604915.32048  20651482.486    20651488.522
       245.000         213.000
 99  6 16  4 39  0.0000000  0  6G 1G16G15G25G22G14
  21913001.550     4680150.18249   3662640.27347  21913000.905    21913007.590
       235.000         194.000
  22383363.603   -12857321.96849  -9999159.88346  22383363.250    22383371.226
       230.000         183.000
  22586383.099     8448009.27449   6600475.25246  22586382.853    22586391.355
       226.000         175.000
  22452060.749     4760402.56349   3727222.04146  22452060.602    22452066.894
       230.000         185.000
  21304067.276   -23355579.61949 -17848710.98747  21304066.841    21304073.059
       235.000         195.000
  20642563.931   -21398404.08849 -16641435.67348  20642563.930    20642570.014
       245.000         213.000
 99  6 16  4 39 30.0000000  0  6G 1G16G15G25G22G14
  21920968.434     4722016.62249   3695263.48847  21920968.369    21920974.699
       236.000         194.000
  22367245.042   -12942025.28049 -10065162.36546  22367244.159    22367253.585
       231.000         183.000
  22604013.346     8540656.20449   6672667.62946  22604012.748    22604021.421
       225.000         175.000
  22466969.198     4838747.23049   3788269.84446  22466969.491    22466974.960
       231.000         185.000
  21294930.687   -23403592.66649 -17886123.66747  21294929.557    21294936.560
       236.000         195.000
  20633725.414   -21444850.41449 -16677627.57048  20633725.359    20633731.630
       245.000         213.000
 99  6 16  4 40  0.0000000  0  6G 1G16G15G25G22G14
  21928950.997     4763965.60449   3727951.02747  21928950.523    21928957.172
       236.000         194.000
  22351164.509   -13026529.14149 -10131009.44846  22351164.011    22351171.493
       231.000         183.000
  22621680.036     8633494.70149   6745009.28046  22621679.457    22621688.500
       224.000         175.000
  22481901.743     4917218.38849   3849416.20046  22481901.913    22481907.850
       231.000         185.000
  21285894.167   -23451079.67649 -17923126.44947  21285893.363    21285899.974
       236.000         195.000
  20624963.535   -21490894.25849 -16713505.84148  20624963.145    20624969.566
       246.000         214.000
 99  6 16  4 40 30.0000000  0  6G 1G16G15G25G22G14
  21936949.335     4805997.22149   3760702.95447  21936949.016    21936955.417
       235.000         193.000
  22335120.146   -13110842.62249 -10196708.17146  22335120.108    22335127.047
       231.000         184.000
  22639381.981     8726519.30149   6817495.93746  22639381.362    22639390.565
       224.000         174.000
  22496854.861     4995797.46349   3910646.65346  22496855.591    22496860.435
       231.000         185.000
  21276955.967   -23498049.70649 -17959726.39447  21276955.110    21276962.033
       236.000         196.000
  20616278.209   -21536535.81349 -16749070.64848  20616278.158    20616284.307
       246.000         214.000
 99  6 16  4 41  0.0000000  0  6G 1G16G15G25G22G14
  21944968.391     4848137.36749   3793539.45547  21944968.045    21944974.715
       235.000         193.000
  22319117.524   -13194936.40449 -10262235.67646  22319116.707    22319124.661
       231.000         184.000
  22657124.198     8819755.22649   6890147.26646  22657123.380    22657132.959
       223.000         175.000
  22511835.641     5074521.97449   3971990.43146  22511835.950    22511841.653
       230.000         184.000
  21268119.520   -23544485.09749 -17995909.73447  21268118.548    21268125.820
       236.000         196.000
  20607678.268   -21581728.77949 -16784285.90048  20607678.191    20607684.345
       246.000         214.000
 99  6 16  4 41 30.0000000  0  6G 1G16G15G25G22G14
  21953012.623     4890410.40249   3826479.50347  21953012.466    21953018.800
       235.000         193.000
  22303163.634   -13278774.04649 -10327563.60746  22303162.922    22303171.862
       229.000         184.000
  22674911.429     8913227.43349   6962982.72146  22674910.426    22674920.660
       222.000         174.000
  22526849.275     5153419.30949   4033468.88046  22526849.796    22526855.803
       230.000         184.000
  21259387.137   -23590374.15349 -18031667.37147  21259386.733    21259393.001
       236.000         196.000
  20599168.021   -21626450.28849 -16819133.78048  20599167.923    20599174.035
       246.000         214.000
 99  6 16  4 42  0.0000000  0  6G 1G16G15G25G22G14
  21961081.140     4932810.96449   3859518.91847  21961081.080    21961087.290
       234.000         193.000
  22287255.894   -13362369.60849 -10392702.88746  22287255.004    22287262.691
       231.000         184.000
  22692740.557     9006921.14049   7035990.76246  22692739.144    22692749.455
       223.000         173.000
  22541893.043     5232474.63649   4095070.44246  22541893.472    22541898.570
       231.000         184.000
  21250756.581   -23635727.75049 -18067007.75847  21250756.128    21250762.527
       236.000         196.000
  20590740.847   -21670734.92549 -16853641.24048  20590740.757    20590747.108
       246.000         214.000
 99  6 16  4 42 30.0000000  0  6G 1G16G15G25G22G14
  21969173.247     4975335.41349   3892654.86947  21969173.138    21969179.478
       234.000         193.000
  22271392.420   -13445732.07949 -10457660.57246  22271392.206    22271399.367
       230.000         184.000
  22710609.822     9100824.38249   7109162.07446  22710609.532    22710618.116
       223.000         173.000
  22556968.358     5311695.60449   4156801.07646  22556968.176    22556974.559
       230.000         183.000
  21242227.848   -23680546.11249 -18101931.08347  21242227.002    21242233.357
       236.000         196.000
  20582394.918   -21714593.00649 -16887816.32848  20582394.865    20582400.870
       246.000         214.000
 99  6 16  4 43  0.0000000  0  6G 1G16G15G25G22G14
  21977281.201     5017943.13649   3925855.71647  21977280.845    21977287.935
       234.000         193.000
  22255565.991   -13528899.57749 -10522466.30946  22255565.922    22255572.837
       231.000         184.000
  22728507.248     9194876.32149   7182449.24446  22728508.011    22728515.530
       225.000         172.000
  22572064.749     5391028.30549   4218618.76946  22572064.945    22572070.679
       231.000         183.000
  21233792.769   -23724872.44749 -18136471.01447  21233791.982    21233798.462
       236.000         197.000
  20574115.834   -21758099.74749 -16921717.64348  20574115.796    20574121.696
       245.000         214.000
 99  6 16  4 43 30.0000000  0  6G 1G16G15G25G22G14
  21985397.378     5060594.02249   3959090.19247  21985397.186    21985403.850
       235.000         193.000
  22239767.709   -13611920.24749 -10587157.64246  22239767.130    22239775.013
       230.000         185.000
  22746423.005     9289024.32949   7255811.29746  22746422.739    22746432.290
       222.000         172.000
  22587172.615     5470420.39949   4280482.74246  22587173.165    22587179.015
       229.000         183.000
  21225442.808   -23768751.13049 -18170662.12847  21225441.832    21225448.094
       237.000         197.000
  20565892.805   -21801311.75249 -16955389.29348  20565892.759    20565898.748
       246.000         214.000
 99  6 16  4 44  0.0000000  0  6G 1G16G15G25G22G14
  21993521.193     5103284.81249   3992355.75747  21993520.782    21993526.950
       235.000         192.000
  22223996.339   -13694799.26049 -10651738.60046  22223995.858    22224003.356
       231.000         184.000
  22764354.867     9383256.61949   7329239.00846  22764355.095    22764362.908
       222.000         172.000
  22602292.437     5549875.80449   4342396.05346  22602292.958    22602299.137
       228.000         183.000
  21217179.095   -23812176.51349 -18204500.01347  21217178.323    21217184.806
       236.000         197.000
  20557729.626   -21844209.62949 -16988816.16648  20557729.530    20557735.703
       245.000         214.000
 99  6 16  4 44 30.0000000  0  6G 1G16G15G25G22G14
  22001655.948     5146033.28049   4025666.26947  22001655.471    22001662.268
       234.000         192.000
  22208259.404   -13777497.00449 -10716178.32546  22208259.212    22208266.893
       231.000         185.000
  22782307.481     9477598.24349   7402751.93746  22782307.627    22782315.871
       222.000         171.000
  22617428.971     5629418.86549   4404377.65546  22617429.300    22617435.187
       229.000         183.000
  21209007.389   -23855118.74749 -18237961.42547  21209006.490    21209013.322
       236.000         197.000
  20549636.930   -21886736.78649 -17021954.16548  20549637.022    20549643.140
       246.000         214.000
 99  6 16  4 45  0.0000000  0  6G 1G16G15G25G22G14
  22009807.128     5188868.48349   4059044.36247  22009806.888    22009813.191
       235.000         192.000
  22192562.923   -13859981.67149 -10780451.99346  22192562.379    22192569.812
       231.000         185.000
  22800285.592     9572074.00749   7476369.37446  22800284.981    22800294.461
       222.000         171.000
  22632584.015     5709059.19249   4466435.05146  22632584.138    22632589.535
       228.000         182.000
  21200932.391   -23897552.65249 -18271026.73947  21200931.730    21200938.711
       236.000         197.000
  20541624.393   -21928842.59149 -17054763.83948  20541624.140    20541630.272
       246.000         215.000
 99  6 16  4 45 30.0000000  0  6G 1G16G15G25G22G14
  22017982.576     5231830.41549   4092521.20447  22017982.138    22017988.874
       234.000         192.000
  22176917.548   -13942198.44849 -10844516.90746  22176917.080    22176924.548
       230.000         186.000
  22818301.174     9666746.42349   7550140.04046  22818301.189    22818309.819
       222.000         171.000
  22647770.395     5788863.68449   4528620.37846  22647770.035    22647776.368
       228.000         183.000
  21192966.646   -23939412.35949 -18303644.62247  21192966.155    21192972.751
       236.000         197.000
  20533709.004   -21970437.95549 -17087175.76448  20533708.899    20533714.907
       245.000         215.000
 99  6 16  4 46  0.0000000  0  6G 1G16G15G25G22G14
  22026188.265     5274951.71249   4126122.22647  22026188.027    22026194.573
       234.000         191.000
  22161330.216   -14024109.85349 -10908343.90046  22161330.030    22161337.237
       233.000         186.000
  22836360.859     9761650.61449   7624091.30446  22836360.537    22836369.584
       224.000         171.000
  22662995.663     5868872.84949   4590965.18546  22662995.055    22663001.340
       228.000         182.000
  21185117.954   -23980657.43049 -18335783.57247  21185117.558    21185123.626
       237.000         197.000
  20525898.888   -22011480.03749 -17119156.57048  20525898.796    20525904.853
       246.000         215.000
 99  6 16  4 46 30.0000000  0  6G 1G16G15G25G22G14
  22034427.974     5318252.16449   4159862.85047  22034427.763    22034434.271
       233.000         191.000
  22145802.819   -14105706.56749 -10971925.67046  22145802.640    22145809.218
       231.000         187.000
  22854466.877     9856798.11649   7698232.16946  22854467.341    22854475.577
       223.000         170.000
  22678261.272     5949093.95049   4653475.14146  22678261.147    22678267.370
       229.000         182.000
  21177388.765   -24021274.72849 -18367433.34347  21177388.429    21177394.683
       235.000         198.000
  20518193.308   -22051973.03649 -17150709.51048  20518193.140    20518199.299
       246.000         215.000
 99  6 16  4 47  0.0000000  0  6G 1G16G15G25G22G14
  22042701.262     5361728.36149   4193740.41547  22042701.285    22042707.325
       234.000         191.000
  22130331.309   -14187009.77749 -11035278.73447  22130331.011    22130338.381
       234.000         188.000
  22872615.547     9952169.26149   7772547.29646  22872614.918    22872624.790
       220.000         170.000
  22693563.813     6029509.82949   4716136.85046  22693564.292    22693569.846
       228.000         181.000
  21169775.763   -24061281.22949 -18398607.17347  21169774.690    21169781.475
       236.000         198.000
  20510584.992   -22091954.77349 -17181864.07148  20510584.977    20510591.139
       245.000         215.000
 99  6 16  4 47 30.0000000  0  6G 1G16G15G25G22G14
  22051000.682     5405341.83049   4227724.94947  22051000.500    22051006.893
       234.000         191.000
  22114911.767   -14268040.02149 -11098419.09346  22114911.455    22114918.693
       234.000         187.000
  22890800.387    10047731.54749   7847011.33846  22890800.209    22890810.333
       220.000         170.000
  22708900.091     6110102.17949   4778936.09546  22708900.355    22708905.613
       227.000         181.000
  21162272.284   -24100711.97549 -18429332.36847  21162271.574    21162277.637
       238.000         198.000
  20503065.396   -22131470.31549 -17212655.35748  20503065.163    20503071.300
       246.000         215.000
 99  6 16  4 48  0.0000000  0  6G 1G16G15G25G22G14
  22059323.731     5449079.86149   4261806.54147  22059323.578    22059330.486
       234.000         191.000
  22099541.366   -14348811.55649 -11161357.85646  22099540.946    22099548.712
       233.000         187.000
  22909015.957    10143455.12749   7921601.11046  22909015.898    22909024.424
       221.000         169.000
  22724262.488     6190832.58149   4841842.90346  22724261.691    22724268.666
       228.000         181.000
  21154871.939   -24139600.67649 -18459635.18647  21154871.377    21154877.939
       238.000         198.000
  20495629.146   -22170547.91549 -17243105.38948  20495629.081    20495635.166
       246.000         215.000
 99  6 16  4 48 30.0000000  0  6G 1G16G15G25G22G14
  22067666.864     5492923.41949   4295970.35947  22067666.682    22067673.183
       233.000         191.000
  22084217.417   -14429338.64749 -11224106.16446  22084216.995    22084224.214
       232.000         187.000
  22927257.156    10239313.19649   7996295.65046  22927256.261    22927266.226
       220.000         170.000
  22739641.807     6271651.44149   4904818.63746  22739642.183    22739648.235
       227.000         181.000
  21147571.981   -24177961.79349 -18489526.89947  21147571.221    21147577.634
       237.000         198.000
  20488272.533   -22209206.90849 -17273229.23748  20488272.474    20488278.584
       246.000         215.000
 99  6 16  4 49  0.0000000  0  6G 1G16G15G25G22G14
  22076027.033     5536856.05549   4330203.59547  22076026.815    22076033.158
       234.000         190.000
  22068938.277   -14509631.06149 -11286671.58547  22068937.832    22068944.834
       234.000         188.000
  22945522.478    10335298.18149   8071089.08246  22945521.806    22945531.403
       219.000         169.000
  22755035.062     6352543.65949   4967851.54146  22755035.177    22755041.317
       228.000         180.000
  21140373.393   -24215790.38149 -18519003.65347  21140372.335    21140379.327
       238.000         198.000
  20480997.222   -22247438.92849 -17303020.38348  20480997.261    20481003.279
       246.000         215.000
 99  6 16  4 49 30.0000000  0  6G 1G16G15G25G22G14
  22084406.606     5580891.23549   4364516.72247  22084405.954    22084413.014
       233.000         190.000
  22053708.001   -14589666.31649 -11349036.62647  22053707.716    22053714.744
       233.000         189.000
  22963815.066    10431425.81249   8145993.70446  22963815.052    22963823.583
       221.000         168.000
  22770444.661     6433521.21549   5030950.93446  22770445.529    22770450.532
       228.000         180.000
  21133281.325   -24253059.22349 -18548044.25347  21133280.444    21133287.248
       239.000         198.000
  20473809.828   -22285208.74249 -17332451.37348  20473809.766    20473815.909
       245.000         215.000
 99  6 16  4 50  0.0000000  0  6G 1G16G15G25G22G14
  22092810.224     5625052.89849   4398928.42347  22092809.826    22092816.132
       233.000         190.000
  22038527.089   -14669442.56949 -11411199.85047  22038526.466    22038534.138
       233.000         189.000
  22982135.881    10527702.02849   8221014.06246  22982136.028    22982145.501
       220.000         168.000
  22785869.020     6514576.71049   5094111.05946  22785869.041    22785875.068
       228.000         180.000
  21126301.715   -24289737.22549 -18576624.44647  21126300.946    21126307.415
       239.000         199.000
  20466714.061   -22322497.10149 -17361507.20148  20466713.979    20466720.151
       246.000         215.000
 99  6 16  4 50 30.0000000  0  6G 1G16G15G25G22G14
  22101240.980     5669356.96149   4433451.07947  22101241.339    22101247.272
       233.000         190.000
  22023396.507   -14748953.95249 -11473156.68647  22023396.480    22023403.479
       233.000         189.000
  23000486.292    10624133.08649   8296155.09846  23000485.395    23000495.191
       220.000         168.000
  22801313.142     6595736.21349   5157352.23546  22801313.329    22801319.485
       228.000         179.000
  21119438.114   -24325805.40249 -18604729.46147  21119437.438    21119443.774
       238.000         199.000
  20459711.370   -22359296.21249 -17390181.79548  20459711.157    20459717.205
       246.000         215.000
 99  6 16  4 51  0.0000000  0  6G 1G16G15G25G22G14
  22109696.161     5713788.91949   4468073.39247  22109695.846    22109702.581
       232.000         189.000
  22008316.300   -14828200.46549 -11534907.11647  22008316.140    22008323.537
       234.000         190.000
  23018864.182    10720708.96449   8371408.97446  23018864.112    23018873.754
       220.000         169.000
  22816781.479     6677022.71749   5220692.36246  22816781.451    22816787.666
       227.000         179.000
  21112687.139   -24361281.49849 -18632373.11447  21112686.501    21112692.965
       238.000         199.000
  20452799.614   -22395617.21149 -17418483.83148  20452799.681    20452805.651
       246.000         215.000
 99  6 16  4 51 30.0000000  0  6G 1G16G15G25G22G14
  22118176.701     5758354.68549   4502799.97647  22118176.285    22118182.941
       232.000         189.000
  21993290.396   -14907162.09549 -11596435.59247  21993289.972    21993296.999
       233.000         190.000
  23037267.498    10817419.34149   8446767.65946  23037265.793    23037276.796
       217.000         167.000
  22832274.232     6758438.24449   5284133.02446  22832274.245    22832279.569
       227.000         179.000
  21106045.851   -24396181.56249 -18659567.91047  21106045.109    21106051.484
       238.000         199.000
  20445978.284   -22431463.73249 -17446416.14948  20445978.204    20445984.081
       246.000         215.000
 99  6 16  4 52  0.0000000  0  6G 1G16G15G25G22G14
  22126679.790     5803038.93449   4537618.88547  22126679.958    22126686.016
       233.000         189.000
  21978315.904   -14985853.44849 -11657753.43547  21978315.099    21978322.493
       234.000         190.000
  23055692.206    10914241.62449   8522213.55246  23055691.397    23055702.794
       219.000         167.000
  22847791.857     6839983.86649   5347675.07146  22847792.342    22847798.070
       226.000         178.000
  21099510.763   -24430523.44649 -18686327.75947  21099510.233    21099516.327
       238.000         199.000
  20439243.323   -22466856.13049 -17473994.61048  20439243.216    20439249.272
       246.000         215.000
 99  6 16  4 52 30.0000000  0  6G 1G16G15G25G22G14
  22135200.490     5847815.43749   4572509.67547  22135200.360    22135206.664
       233.000         189.000
  21963390.883   -15064284.35749 -11718868.36047  21963390.681    21963397.847
       235.000         191.000
  23074135.340    11011159.92349   8597734.22046  23074134.419    23074143.735
       219.000         167.000
  22863333.854     6921657.72449   5411317.01446  22863334.603    22863339.385
       226.000         178.000
  21093077.035   -24464332.66449 -18712672.54647  21093076.417    21093082.532
       238.000         199.000
  20432590.502   -22501816.82049 -17501236.67748  20432590.252    20432596.252
       246.000         215.000
 99  6 16  4 53  0.0000000  0  6G 1G16G15G25G22G14
  22143734.806     5892663.68049   4607456.37447  22143734.791    22143740.928
       233.000         189.000
  21948513.993   -15142462.64749 -11779786.42647  21948514.140    21948520.569
       234.000         192.000
  23092593.697    11108159.52249   8673318.28646  23092593.360    23092602.346
       218.000         164.000
  22878892.852     7003420.31149   5475028.14246  22878893.172    22878899.392
       227.000         178.000
  21086743.394   -24497615.92749 -18738607.50047  21086742.522    21086748.788
       238.000         199.000
  20426018.188   -22536354.24149 -17528148.91448  20426018.112    20426024.173
       246.000         216.000
 99  6 16  4 53 30.0000000  0  6G 1G16G15G25G22G14
  22152288.392     5937613.19349   4642481.97547  22152288.410    22152294.562
       233.000         189.000
  21933685.758   -15220384.98049 -11840505.05947  21933684.846    21933692.543
       234.000         192.000
  23111069.521    11205250.87149   8748973.82846  23111069.510    23111078.987
       222.000         166.000
  22894467.198     7085264.59149   5538802.89146  22894467.210    22894472.948
       225.000         177.000
  21080514.947   -24530346.25349 -18764111.59447  21080514.274    21080520.468
       238.000         200.000
  20419531.143   -22570443.91549 -17554712.26848  20419530.993    20419536.814
       246.000         216.000
 99  6 16  4 54  0.0000000  0  6G 1G16G15G25G22G14
  22160865.873     5982688.36949   4677605.50447  22160865.772    22160872.087
       232.000         188.000
  21918907.182   -15298046.54049 -11901020.49347  21918906.966    21918914.113
       234.000         192.000
  23129566.942    11302454.17349   8824716.59246  23129566.464    23129575.287
       218.000         165.000
  22910058.983     7167199.60649   5602648.36046  22910058.367    22910064.293
       226.000         177.000
  21074396.875   -24562496.91149 -18789163.99947  21074396.229    21074402.491
       239.000         200.000
  20413131.634   -22604073.38849 -17580917.02648  20413131.563    20413137.505
       246.000         216.000
 99  6 16  4 54 30.0000000  0  6G 1G16G15G25G22G14
  22169468.230     6027894.03249   4712830.70547  22169468.316    22169474.405
       233.000         188.000
  21904180.543   -15375435.65849 -11961323.62547  21904180.052    21904187.496
       234.000         193.000
  23148088.039    11399782.92049   8900557.10246  23148088.572    23148097.315
       220.000         166.000
  22925666.491     7249217.50649   5666558.40646  22925666.102    22925673.247
       224.000         176.000
  21068392.168   -24594051.91549 -18813752.26247  21068391.446    21068397.709
       239.000         200.000
  20406823.472   -22637222.78349 -17606747.69748  20406823.360    20406829.205
       246.000         216.000
 99  6 16  4 55  0.0000000  0  6G 1G16G15G25G22G14
  22178100.505     6073256.77149   4748178.30447  22178100.361    22178106.341
       233.000         188.000
  21889509.493   -15452531.64749 -12021398.35647  21889508.838    21889516.339
       234.000         193.000
  23166636.193    11497253.05249   8976507.80046  23166636.102    23166644.508
       220.000         165.000
  22941293.971     7331340.54049   5730550.37446  22941294.073    22941300.107
       224.000         176.000
  21062505.035   -24624988.98949 -18837859.02547  21062504.392    21062510.340
       239.000         200.000
  20400613.830   -22669854.44949 -17632174.94248  20400613.729    20400619.645
       246.000         216.000
 99  6 16  4 55 30.0000000  0  6G 1G16G15G25G22G14
  22186770.600     6118818.57649   4783681.02147  22186770.448    22186776.694
       233.000         188.000
  21874903.439   -15529286.88349 -12081207.56147  21874902.710    21874909.933
       234.000         194.000
  23185218.631    11594904.62349   9052599.87046  23185218.857    23185227.681
       220.000         165.000
  22956953.451     7413631.55349   5794673.24446  22956952.892    22956958.785
       226.000         176.000
  21056743.000   -24655268.29549 -18861453.23847  21056742.081    21056748.316
       239.000         200.000
  20394510.808   -22701925.90249 -17657165.65348  20394510.734    20394516.779
       246.000         216.000
 99  6 16  4 56  0.0000000  0  6G 1G16G15G25G22G14
  22195471.874     6164544.16849   4819311.35847  22195471.745    22195478.047
       233.000         188.000
  21860362.288   -15605701.03049 -12140750.98847  21860361.667    21860369.130
       234.000         194.000
  23203832.893    11692723.80049   9128822.51046  23203833.330    23203843.220
       216.000         164.000
  22972644.610     7496089.14449   5858925.89546  22972644.389    22972650.523
       226.000         176.000
  21051102.694   -24684907.78649 -18884548.89647  21051101.995    21051108.471
       238.000         201.000
  20388511.500   -22733452.83949 -17681732.07048  20388511.527    20388517.519
       246.000         216.000
 99  6 16  4 56 30.0000000  0  6G 1G16G15G25G22G14
  22204197.177     6210395.95049   4855040.02247  22204196.754    22204203.895
       231.000         188.000
  21845885.183   -15681777.88449 -12200031.59347  21845885.228    21845891.636
       235.000         194.000
  23222473.794    11790681.53449   9205153.17646  23222474.036    23222482.427
       220.000         165.000
  22988363.653     7578692.99549   5923292.52546  22988363.917    22988369.728
       224.000         175.000
  21045578.566   -24713936.88849 -18907168.93147  21045578.079    21045584.219
       237.000         201.000
  20382612.935   -22764449.91749 -17705885.60648  20382612.991    20382618.835
       246.000         216.000
